GFSSW_prec_cthk_000.txt.gz
RH
46 40 36 31 21 22 24 28 29 30 34 37 39 41 41 42 38 35 32 33 34 33 33 32 30 29 31 33 35 43 49 45 40 37 31 31 34 35 39 39 37 36 36 34 34
46 46 40 34 29 22 26 29 31 33 35 45 45 50 54 53 50 45 43 40 39 39 39 42 40 36 33 35 39 45 51 42 37 35 33 33 36 38 40 42 41 38 37 37 37
42 48 45 38 34 26 26 30 33 35 37 42 51 51 59 57 56 47 46 45 46 44 45 45 42 40 40 40 38 43 44 41 38 37 36 36 36 38 37 40 43 43 42 40 38
38 45 48 44 38 33 25 30 34 39 44 43 49 57 57 59 55 49 48 48 51 54 54 50 48 44 44 44 42 45 40 40 40 39 41 40 40 38 37 35 41 45 44 41 38
48 39 50 50 42 37 25 28 33 40 45 47 47 49 57 57 58 50 49 46 46 51 56 56 54 51 48 46 45 49 44 42 42 41 41 42 43 42 39 37 38 41 46 44 41
56 51 48 51 48 40 32 26 30 37 44 47 52 53 50 53 49 55 52 52 52 54 53 53 52 51 53 53 50 48 48 46 44 43 42 43 39 40 32 35 35 36 40 45 44
71 58 51 53 54 45 39 28 30 35 39 44 48 52 52 48 44 42 49 49 48 49 49 48 49 51 56 55 52 51 51 48 45 43 43 41 38 36 32 34 34 33 37 38 41
75 68 59 61 57 51 45 39 35 37 44 46 47 53 50 46 43 44 43 47 48 48 49 49 49 49 52 54 56 58 58 59 47 43 43 47 42 34 34 32 31 31 32 35 35
69 75 68 63 72 57 51 45 38 40 40 47 50 52 49 45 46 43 42 42 44 48 49 48 48 48 50 52 54 55 59 60 58 54 52 50 44 38 37 36 34 32 32 32 32
51 78 76 68 76 74 60 53 47 43 41 43 43 49 43 42 43 46 45 46 46 47 48 48 49 50 52 54 56 54 59 55 56 58 57 55 55 47 44 43 40 37 34 33 32
30 59 77 76 71 79 68 61 55 52 45 37 42 39 37 41 43 44 44 44 47 49 52 50 53 51 49 50 50 56 62 65 62 60 60 58 52 47 46 42 40 37 36 35 34
26 39 72 84 81 81 76 60 56 46 47 41 40 40 41 42 43 44 43 43 48 53 54 55 53 49 50 54 59 60 63 63 60 59 58 55 47 47 43 40 39 38 34 36 35
24 36 71 85 85 85 77 71 58 52 47 39 39 41 42 45 45 43 43 47 51 56 57 56 48 46 53 59 63 65 67 67 64 57 53 56 42 40 34 34 35 33 33 32 34
32 23 64 88 92 91 88 77 65 58 57 44 44 41 39 44 45 41 45 48 55 56 59 59 53 56 60 64 68 68 64 66 67 70 73 58 54 36 34 34 33 30 31 31 32
46 26 48 84 97 93 85 83 67 58 69 50 55 53 52 44 47 48 50 52 58 58 60 57 59 64 68 67 72 70 68 72 73 77 79 69 74 46 36 33 30 31 34 32 31
53 30 63 96 99 94 92 90 72 67 68 61 60 63 61 54 58 61 58 57 59 62 63 64 67 71 74 76 79 82 82 82 81 82 82 65 74 41 39 32 31 31 30 33 31
62 36 65 98 99 96 96 87 82 73 57 61 58 60 61 61 62 60 63 67 67 75 73 68 59 62 68 80 85 86 87 94 95 92 78 63 69 41 38 36 36 35 31 34 33
68 47 72 85 98 98 96 91 85 60 58 57 55 59 61 61 60 65 66 71 74 75 72 69 65 61 65 78 85 88 88 92 85 89 80 60 60 46 41 39 37 29 30 36 37
63 82 94 95 98 91 95 91 69 53 57 59 58 61 63 64 63 68 72 70 65 68 71 73 73 66 67 80 89 98 97 75 85 78 91 72 52 39 37 34 31 29 31 32 35
85 88 92 97 99 98 93 81 66 53 54 56 58 57 62 62 69 75 70 59 65 58 66 75 81 68 76 79 81 92 91 98 97 96 91 67 54 51 37 43 45 34 27 30 34
85 89 95 96 98 98 95 83 68 59 55 58 58 62 58 63 70 72 64 60 58 62 68 80 82 78 85 79 83 94 92 95 89 92 87 75 49 39 36 48 47 40 35 33 35
84 83 91 95 98 98 95 80 73 65 62 63 61 59 63 70 77 78 77 62 66 72 79 82 88 87 82 80 79 74 75 80 83 73 78 78 46 40 57 58 56 48 40 38 42
98 97 97 97 97 89 87 83 73 66 65 62 64 64 67 73 78 82 70 61 70 74 82 88 95 97 95 93 92 93 87 82 81 86 75 75 47 41 56 66 63 58 51 49 47
98 98 98 99 91 87 84 83 69 68 69 71 73 70 75 79 84 77 70 69 73 78 86 91 98 97 91 95 97 98 93 90 87 86 64 60 54 51 67 65 68 70 66 63 60
97 98 90 90 94 88 83 78 75 79 79 78 78 75 82 87 87 79 71 72 80 85 93 97 96 98 96 93 98 98 95 81 80 71 70 47 58 60 61 75 78 74 67 68 66
97 97 90 89 93 90 85 85 86 87 91 83 80 82 85 92 85 73 69 72 78 85 94 97 97 98 97 98 97 90 84 78 70 65 65 63 63 63 80 79 79 76 69 68 67
98 97 87 93 93 83 75 83 86 85 84 85 85 86 91 92 88 78 70 69 77 91 97 98 98 98 94 95 91 84 71 73 69 68 64 74 70 75 85 88 84 78 73 71 68

GFSSW_prec_cthk_003.txt.gz
RH
55 44 53 47 40 33 23 23 27 30 31 34 37 39 31 28 34 35 30 26 29 29 29 29 28 28 28 30 33 39 45 41 35 34 30 29 31 33 33 33 38 37 34 34 32
37 45 47 55 48 37 32 24 28 31 33 37 41 47 48 51 49 46 45 39 37 39 39 38 36 34 30 33 35 41 46 38 33 32 32 31 31 33 34 33 35 39 39 37 35
52 37 45 63 51 44 35 25 28 32 34 37 45 51 57 61 57 52 49 46 43 46 45 43 43 41 39 39 38 43 40 37 36 35 34 34 32 34 32 33 34 37 40 39 38
67 54 40 50 56 48 40 32 27 33 37 38 43 51 57 64 61 52 51 48 48 52 51 49 45 42 42 42 43 45 39 39 36 38 39 38 37 37 34 29 34 35 38 42 40
67 73 61 41 60 51 46 37 27 33 39 42 43 53 62 62 60 54 54 47 48 53 57 56 53 48 46 44 45 50 44 43 42 41 38 37 36 35 34 33 35 37 38 39 43
48 65 68 58 54 58 48 42 28 33 40 44 46 51 56 63 60 57 53 53 52 55 54 55 53 52 51 51 50 49 50 47 45 42 41 39 34 38 28 29 31 33 34 36 38
28 50 69 71 54 69 54 47 34 33 36 41 42 50 57 55 50 48 54 54 53 54 53 55 55 52 54 55 55 54 52 48 44 41 44 42 39 36 29 30 28 29 30 32 34
19 47 70 73 65 67 68 53 44 38 39 41 40 45 51 53 50 49 51 50 49 48 48 49 51 52 53 56 56 56 56 56 47 45 42 41 38 35 34 35 32 29 28 30 30
25 30 61 69 75 66 74 61 53 46 45 49 45 44 46 54 51 49 45 48 48 49 50 50 51 50 52 51 51 51 51 55 49 47 47 49 45 37 36 34 32 30 30 29 30
27 25 44 72 76 74 82 74 60 54 47 46 45 43 39 45 47 48 46 45 44 47 51 51 50 51 50 50 46 48 55 50 48 46 48 48 46 41 38 38 35 34 32 31 32
33 27 25 50 82 82 91 83 77 58 51 40 39 40 37 41 42 46 48 50 50 50 51 51 52 52 47 46 43 49 53 55 51 50 52 46 42 40 38 39 37 35 33 32 31
32 32 23 40 80 91 87 84 71 57 52 46 44 43 43 41 41 44 45 46 49 51 51 52 52 47 49 50 51 52 54 53 47 50 50 48 38 37 35 33 34 33 34 32 30
48 46 36 31 75 88 86 87 79 72 62 48 44 42 42 43 44 43 43 45 45 49 49 51 46 46 49 53 54 54 57 54 55 56 51 48 34 28 25 25 27 29 30 31 31
63 63 50 29 53 79 91 84 94 77 71 49 47 44 45 47 47 44 44 43 47 48 50 50 46 50 53 55 57 59 58 60 62 68 64 54 49 30 28 28 29 29 30 29 31
75 70 59 37 47 84 93 93 89 76 70 54 56 54 50 47 45 47 48 48 53 51 52 47 51 54 57 60 65 65 63 65 70 76 76 62 70 36 34 32 30 30 27 27 30
80 73 70 42 49 96 98 94 97 92 75 64 60 62 59 53 56 57 56 55 55 56 58 56 57 60 62 63 62 62 65 69 70 77 85 62 69 37 32 30 28 30 31 29 28
84 73 67 56 73 94 99 99 98 94 67 65 61 65 63 62 64 61 64 65 64 67 66 61 62 62 59 59 58 64 77 84 88 89 78 66 76 41 34 35 31 28 31 33 32
96 68 55 46 74 98 99 99 97 80 73 58 54 62 63 57 61 64 64 65 62 67 70 71 62 58 58 57 62 66 77 85 92 89 80 75 74 44 37 33 29 26 28 32 36
89 65 50 49 80 99 98 98 89 77 70 65 60 62 64 59 59 61 65 64 62 68 72 68 65 58 60 63 64 79 80 71 97 94 96 74 54 39 33 28 29 32 33 33 28
96 76 69 52 91 98 99 97 84 77 67 63 61 58 61 63 66 65 64 60 62 59 63 68 70 60 68 72 71 74 78 84 89 96 93 67 58 44 32 28 28 37 40 39 33
97 78 60 75 91 98 98 97 85 80 69 65 61 62 61 63 65 69 64 57 59 62 67 70 76 73 77 79 73 82 86 91 94 97 92 75 48 40 38 38 43 44 44 41 37
99 92 86 90 98 97 97 84 78 80 76 69 57 56 60 60 66 66 68 65 64 65 74 74 82 83 72 71 77 81 83 88 93 86 85 79 48 42 40 51 56 48 49 43 41
96 97 91 90 92 94 89 83 81 86 76 68 60 58 61 63 69 70 72 70 68 68 75 78 87 89 81 84 85 96 91 90 88 91 81 85 53 46 49 53 55 65 62 53 47
99 99 96 94 94 92 89 89 87 87 78 64 63 60 65 71 68 73 78 70 68 71 76 84 90 87 83 89 98 98 92 94 98 92 77 66 59 51 51 50 59 65 69 60 53
98 96 90 95 97 87 87 87 92 91 73 68 71 71 71 77 78 80 78 74 71 71 81 88 91 91 93 92 96 97 92 88 89 78 78 58 61 53 57 59 64 70 78 65 57
99 96 92 93 96 87 86 85 84 78 74 78 79 78 78 82 74 75 76 70 66 75 89 94 94 95 93 94 96 94 85 78 72 72 68 64 57 59 60 60 73 87 77 65 67
99 95 89 93 95 87 86 82 76 80 85 89 84 83 85 80 77 81 77 72 72 78 85 93 95 94 89 93 98 96 85 77 72 64 65 74 65 64 75 86 94 85 81 74 72

GFSSW_prec_cthk_006.txt.gz
RH
68 48 49 47 57 48 41 33 23 24 28 29 35 36 38 34 28 34 33 27 26 27 27 26 28 29 30 32 33 35 35 31 28 29 27 27 26 27 26 28 30 32 33 32 31
66 69 48 45 52 62 49 37 30 26 29 32 39 43 43 36 37 42 41 37 31 31 31 29 31 30 32 33 35 35 36 28 28 30 30 28 27 28 28 28 28 31 33 34 33
51 59 68 52 43 64 55 44 36 25 31 35 40 47 52 55 56 50 53 47 43 39 40 37 38 38 36 36 37 36 36 30 33 32 31 30 28 29 28 28 28 31 33 33 35
38 46 65 64 58 60 64 50 40 28 31 36 39 51 56 62 64 54 54 49 50 50 48 46 45 44 42 42 41 39 35 35 35 36 38 36 35 31 29 25 31 32 32 32 34
19 43 54 65 65 52 63 57 45 30 32 37 39 48 55 62 64 55 53 50 52 57 53 53 51 47 44 42 43 45 37 40 39 38 35 36 33 35 34 30 32 32 34 34 34
16 21 37 60 64 62 63 65 50 35 34 40 43 44 56 60 61 66 61 57 50 64 61 60 59 57 52 48 46 44 43 42 40 39 38 37 33 39 29 30 31 30 30 33 34
21 21 20 42 64 67 66 69 58 39 35 41 45 47 53 57 59 61 65 61 62 65 64 58 60 55 54 53 52 47 46 40 39 39 39 39 35 32 26 29 28 28 28 28 30
26 26 25 27 48 76 68 76 65 46 39 39 39 43 48 53 57 58 61 63 62 61 61 62 60 58 56 56 54 51 50 47 42 42 40 40 34 32 32 31 30 30 27 27 27
28 27 27 23 44 77 72 84 79 58 48 45 44 44 46 48 56 59 62 63 61 58 57 56 55 54 55 53 51 49 42 46 42 40 42 41 38 38 34 35 33 30 31 30 29
30 28 23 25 36 82 79 89 90 67 56 51 49 47 41 42 52 60 60 61 62 59 58 56 54 52 50 51 40 37 44 39 35 36 37 35 35 35 38 35 34 33 32 31 31
35 30 30 28 26 84 83 86 92 87 63 44 39 41 41 41 50 56 57 56 59 57 54 56 54 50 43 43 40 38 40 40 37 37 37 31 28 30 30 30 32 33 33 32 31
63 48 50 42 27 63 92 87 91 89 76 53 48 44 43 42 46 51 51 52 54 54 56 54 52 44 44 44 45 43 44 41 39 40 39 35 26 27 27 25 26 27 28 31 32
86 72 72 50 42 52 90 89 88 92 79 73 54 49 46 43 44 45 47 49 51 54 53 47 43 40 46 47 47 46 47 45 44 42 42 42 29 23 22 21 22 24 25 24 28
92 85 83 63 41 31 63 96 99 97 96 78 64 51 46 44 44 44 46 46 47 45 47 44 43 47 49 49 46 47 44 47 51 52 52 45 39 24 23 23 22 24 24 24 26
89 85 81 72 63 46 76 87 98 97 97 82 70 58 51 46 44 50 50 49 48 45 45 45 48 51 51 47 50 52 53 54 54 55 55 45 66 26 25 25 25 24 25 25 25
92 94 72 70 60 62 92 98 99 98 96 84 71 63 56 51 50 53 54 52 51 50 50 47 48 49 51 53 57 56 57 57 57 60 67 36 46 31 22 25 24 25 26 26 28
87 90 80 62 47 51 93 98 99 97 86 86 68 65 59 58 58 54 57 58 55 62 60 55 55 55 56 58 56 57 61 63 71 74 52 36 49 35 25 28 30 32 30 30 30
98 88 63 43 49 69 98 99 97 88 78 76 67 62 61 58 65 60 61 62 59 60 59 60 54 54 53 51 52 57 59 59 57 52 51 52 52 27 32 33 34 40 36 29 30
98 82 57 46 43 73 95 98 94 80 78 76 76 68 67 59 61 62 62 59 56 59 64 64 59 51 52 55 58 67 76 64 78 68 89 62 46 37 35 43 44 45 42 42 36
98 83 58 55 59 86 97 98 92 84 79 76 74 59 58 59 59 58 59 53 55 55 54 60 66 52 58 63 65 70 73 84 93 88 80 63 57 38 43 48 49 43 44 46 41
97 85 88 73 79 91 98 99 92 86 81 79 75 65 54 56 54 56 55 51 52 54 60 64 63 65 69 70 64 78 84 91 90 87 81 71 49 48 50 48 56 53 49 44 45
97 86 69 84 98 98 98 97 92 86 81 74 69 64 57 56 58 57 56 51 51 59 69 66 70 74 67 62 69 73 81 86 96 93 94 81 51 50 46 47 50 49 53 51 52
97 79 66 91 99 98 97 97 94 89 85 77 73 66 59 58 59 54 55 56 58 64 66 70 80 78 67 75 77 84 81 86 97 97 87 90 47 56 58 58 56 56 53 55 53
97 90 73 91 92 91 87 90 90 88 82 73 69 67 63 58 55 59 62 62 64 63 67 70 73 77 72 78 80 94 86 87 89 84 75 74 61 66 65 58 55 52 55 63 58
94 81 74 88 86 87 85 83 85 81 77 69 65 60 56 57 61 64 67 68 66 68 69 76 84 84 81 84 87 94 93 88 81 69 76 52 61 60 64 58 57 52 62 68 61
89 81 81 87 85 81 81 81 83 85 79 69 65 66 63 62 63 70 73 75 70 69 77 81 84 91 92 89 88 95 91 83 74 71 62 59 55 60 64 62 63 71 79 74 69
86 86 91 93 87 81 85 86 81 75 76 72 71 75 75 75 75 77 75 76 73 75 78 82 89 93 88 83 83 92 91 81 76 68 66 71 63 68 72 76 88 87 79 74 66

GFSSW_prec_cthk_009.txt.gz
RH
49 62 75 55 55 55 61 52 42 30 23 26 28 34 37 38 38 35 26 30 33 27 26 33 30 32 30 30 31 37 43 34 31 27 26 28 28 27 25 25 28 29 28 34 34
27 41 47 69 57 53 55 61 52 37 26 27 30 38 44 47 45 39 32 31 27 25 29 33 33 33 32 31 34 38 33 33 27 27 30 30 31 29 28 26 24 29 30 31 32
19 23 35 50 66 63 62 69 63 47 34 28 32 41 48 50 53 49 46 40 35 28 32 36 37 33 31 30 34 38 34 30 31 32 34 34 32 28 30 29 30 28 30 34 31
16 16 20 40 52 62 65 75 69 59 41 30 34 42 53 62 63 56 53 47 44 45 41 41 39 38 39 35 32 35 33 31 34 37 35 34 31 31 29 28 29 31 33 36 32
18 16 16 21 42 61 62 67 76 63 44 34 35 39 55 70 69 58 55 53 48 56 54 50 48 46 44 39 40 41 39 33 35 34 36 38 35 34 37 33 31 31 32 32 32
21 18 17 16 28 51 63 61 77 71 53 36 39 41 54 64 63 69 62 56 55 59 62 58 55 52 49 46 42 43 41 40 39 38 41 40 32 36 32 26 29 31 31 31 32
21 23 18 16 15 38 54 64 65 74 52 40 43 46 52 62 60 62 69 65 58 63 71 65 61 60 56 51 48 45 43 39 34 36 40 38 35 31 27 29 28 29 28 25 27
26 22 24 18 15 20 42 66 63 76 62 45 45 51 53 53 60 59 69 71 66 66 72 66 64 65 60 57 50 47 46 43 38 38 37 39 35 30 30 31 31 28 27 27 25
33 34 28 23 20 17 32 66 68 83 72 51 47 50 51 49 58 61 66 70 64 65 69 70 71 65 59 55 49 49 46 45 44 40 41 40 36 32 33 30 30 30 31 30 29
44 34 32 29 25 21 34 62 80 93 83 68 55 54 46 45 55 62 66 72 66 64 62 64 65 62 59 55 51 48 48 42 37 34 37 36 32 29 30 30 33 32 30 29 30
56 53 50 39 41 28 33 68 91 96 94 78 51 48 48 47 48 57 66 71 70 66 63 65 63 60 53 50 46 42 39 35 33 33 31 29 27 24 23 24 25 26 26 28 29
68 76 75 67 65 46 32 89 94 87 98 91 57 52 50 46 50 54 62 68 70 66 64 66 61 55 50 47 45 42 40 37 33 32 32 31 24 24 21 18 19 20 21 22 23
80 92 86 85 72 48 47 90 94 98 97 93 72 55 51 48 48 50 59 65 65 60 59 60 52 48 47 46 43 40 40 38 39 37 35 34 26 22 21 20 20 20 20 20 21
90 90 88 84 70 58 56 92 98 94 96 96 89 58 54 50 48 47 54 57 56 57 58 56 50 47 42 40 40 41 39 41 41 46 45 39 34 22 18 19 18 18 18 18 20
86 86 84 75 69 63 80 93 98 97 97 97 93 75 58 50 49 51 50 52 51 49 50 49 43 44 44 40 43 44 45 45 46 52 51 41 53 25 22 19 17 20 22 20 21
81 88 91 82 61 59 83 98 97 99 97 97 90 81 62 53 52 54 53 50 49 47 47 44 46 43 43 43 44 48 51 53 52 60 60 37 44 24 22 18 19 20 22 23 24
88 94 98 89 48 60 79 96 98 93 93 93 88 84 70 57 57 56 57 55 50 59 54 49 46 48 45 49 53 56 60 59 67 72 52 33 43 29 20 23 23 23 24 31 31
87 96 87 81 51 58 91 98 96 89 89 82 83 82 73 60 57 55 55 56 50 48 51 56 59 51 54 53 51 54 55 52 50 46 41 39 47 32 30 28 30 28 27 26 34
76 83 75 54 44 68 95 92 87 87 82 81 79 78 74 65 63 58 53 54 49 51 58 55 57 50 50 47 50 58 63 56 68 61 69 45 41 39 35 38 30 31 33 32 38
81 79 73 55 49 82 93 97 97 82 77 76 78 68 68 63 66 62 57 53 54 53 53 56 59 49 51 53 54 58 61 77 85 80 67 48 51 46 49 51 42 38 43 42 46
81 81 87 65 69 77 95 99 95 78 78 79 74 66 60 59 61 62 59 54 53 53 52 52 53 59 59 59 57 68 73 83 79 84 85 74 46 53 57 56 55 53 48 54 58
85 84 88 62 82 94 97 99 93 82 83 78 77 68 56 53 55 56 56 50 50 51 55 56 61 63 59 58 62 64 73 77 92 81 87 80 50 52 55 59 58 51 46 48 54
74 77 72 68 81 93 97 95 86 92 92 86 78 73 64 56 58 53 51 52 49 52 57 64 67 70 70 67 67 70 72 75 85 92 83 89 51 55 58 57 58 58 53 53 57
69 71 80 86 91 87 98 97 91 93 88 83 78 71 62 59 56 53 54 55 54 57 65 63 66 71 65 69 70 87 84 86 94 92 73 64 57 58 65 71 68 67 59 57 57
75 62 88 91 89 93 93 92 94 91 85 77 72 70 68 65 58 56 56 58 60 64 63 67 80 77 74 75 82 86 87 86 93 87 85 50 65 55 66 71 72 66 62 62 62
63 76 87 86 85 86 83 88 88 86 79 72 65 61 61 61 62 64 62 62 64 68 69 75 82 84 84 81 83 86 81 84 82 77 76 75 68 69 67 67 66 68 67 70 76
71 82 88 86 79 80 80 79 81 81 78 71 65 67 65 66 65 63 65 65 68 71 74 82 87 90 83 76 78 86 84 86 83 82 79 75 76 77 78 77 77 78 81 83 81

GFSSW_prec_cthk_012.txt.gz
RH
13 24 34 42 56 63 56 60 67 57 42 28 25 28 33 35 34 33 33 27 24 31 27 30 30 28 28 28 29 31 39 36 31 31 27 25 30 34 32 29 26 30 27 32 38
17 17 15 28 33 44 62 61 63 67 52 36 26 29 36 43 45 41 37 36 33 31 28 30 30 31 33 31 33 36 39 35 29 29 29 30 33 32 32 30 25 27 26 30 31
19 19 18 21 23 34 49 58 65 70 67 46 28 31 41 49 52 43 40 33 34 30 24 33 36 34 34 34 37 35 35 30 23 29 29 32 34 32 33 34 30 27 26 29 29
27 21 19 18 17 23 41 55 63 75 68 56 36 34 47 56 60 53 51 48 44 36 32 33 37 38 36 36 36 36 35 33 26 29 35 33 33 34 32 31 30 31 31 30 35
27 27 23 20 18 17 26 43 50 67 76 65 39 37 48 63 62 58 60 56 53 56 47 42 39 38 39 36 35 38 35 33 30 28 31 33 35 33 31 33 27 26 29 29 33
32 31 30 27 21 18 18 36 60 58 88 74 43 42 47 62 66 67 62 56 60 67 61 56 49 46 47 45 46 44 43 40 36 33 33 32 31 33 30 23 27 30 27 27 28
37 33 31 30 29 27 18 32 56 66 70 79 58 45 49 56 59 59 63 63 62 65 70 67 60 53 49 50 50 48 47 42 37 32 33 32 33 33 28 26 27 25 25 25 24
53 43 32 31 31 25 26 25 43 64 67 84 64 58 56 48 54 56 64 81 67 65 79 76 68 61 56 53 50 47 48 47 32 31 32 36 36 29 31 29 27 26 27 25 24
58 54 54 41 32 28 25 21 37 57 70 89 69 53 58 47 51 56 63 68 71 82 81 79 71 68 61 57 53 51 51 48 44 38 37 37 38 33 34 30 31 31 30 28 25
64 60 57 55 44 32 32 23 39 67 81 87 72 60 49 47 46 54 63 71 74 77 76 75 71 64 59 58 57 51 55 50 46 43 37 37 36 33 31 31 30 30 28 28 29
66 71 75 77 61 51 53 37 46 61 77 87 80 57 47 46 46 52 63 74 74 75 72 70 70 67 61 57 55 54 53 50 46 39 35 32 30 28 25 24 22 23 25 25 25
78 80 86 90 86 75 66 48 64 71 87 86 78 62 53 48 48 52 60 67 75 77 73 72 67 60 57 56 53 53 53 49 42 36 34 31 28 25 21 18 18 19 19 19 21
83 86 85 85 88 78 67 49 73 96 91 84 92 78 57 50 51 51 54 64 75 78 78 72 62 58 56 53 51 49 49 44 41 38 34 31 28 24 19 19 18 18 18 18 18
78 81 82 85 78 91 65 60 87 98 93 98 96 81 61 56 53 54 60 62 74 79 75 69 63 57 52 51 45 45 41 42 40 42 45 36 46 23 17 16 18 18 16 16 17
72 74 85 86 79 82 72 75 94 99 96 96 97 88 62 57 54 57 57 64 71 72 69 63 58 57 54 45 41 43 44 42 43 46 48 39 49 23 18 19 18 19 19 20 20
67 81 91 98 84 64 73 92 91 98 97 97 94 92 73 64 57 54 56 59 61 59 60 57 51 45 42 40 41 44 46 45 47 50 60 42 39 20 20 21 23 22 21 22 23
71 81 85 94 90 62 84 97 98 98 97 96 92 90 77 61 61 56 56 55 54 61 57 49 46 43 42 44 45 49 53 66 69 70 57 34 40 24 24 25 27 27 25 24 26
78 86 91 94 77 54 81 93 98 90 95 86 93 93 82 63 63 60 58 58 52 50 53 57 57 46 47 47 52 54 56 61 60 60 52 43 46 30 27 27 25 29 29 31 29
81 90 70 75 67 45 68 96 97 93 83 86 94 97 92 74 62 63 62 56 52 48 57 58 59 49 51 49 52 58 62 48 61 54 64 47 34 30 34 28 25 26 31 36 36
87 87 64 71 54 57 85 94 92 97 86 82 80 80 82 74 63 62 61 52 49 48 50 56 62 51 53 51 52 54 50 69 74 79 65 45 44 47 40 38 35 34 40 43 44
75 80 69 73 77 79 91 95 86 93 84 83 75 69 69 71 62 60 56 53 51 51 53 54 56 61 58 58 53 58 64 69 73 78 83 68 54 45 48 40 38 39 40 51 52
71 77 69 73 85 91 97 96 98 90 86 77 74 63 62 59 65 63 60 57 54 56 56 55 59 68 61 53 56 60 68 70 84 78 82 79 59 48 49 53 50 49 50 51 56
66 69 60 71 89 87 95 97 94 86 87 80 78 72 57 59 64 60 59 55 56 55 55 54 65 70 72 66 65 68 68 72 78 80 82 89 59 54 55 64 68 67 66 62 62
61 58 61 71 80 89 97 97 97 93 85 80 75 72 67 63 62 61 60 57 52 53 54 57 63 65 69 71 69 82 78 78 83 90 80 74 63 57 63 70 76 82 84 77 74
64 70 74 77 86 87 95 96 95 93 85 78 77 74 69 66 61 62 57 58 56 57 61 63 71 67 72 68 70 77 81 82 89 90 91 73 80 65 75 75 77 79 74 76 73
75 72 76 79 88 96 91 95 88 83 80 74 72 70 69 69 65 60 57 58 60 62 63 64 75 81 81 73 76 83 80 78 80 84 91 89 87 88 79 81 78 78 72 71 68
71 74 78 71 74 75 78 77 81 78 78 74 72 67 68 72 67 65 65 65 66 64 68 76 84 85 83 73 78 86 83 88 88 90 91 93 90 86 77 78 84 87 79 78 77

GFSSW_prec_cthk_015.txt.gz
RH
22 21 20 23 33 39 46 60 59 68 63 57 44 26 27 31 31 33 30 23 27 29 29 30 27 26 26 25 28 30 41 39 31 27 23 21 28 32 33 31 28 28 27 33 40
29 28 25 21 21 24 41 42 55 61 66 66 52 33 27 35 39 37 31 34 31 25 28 33 30 29 29 25 29 33 38 37 28 26 25 26 29 33 33 31 28 29 29 31 32
31 32 32 30 23 20 26 28 43 55 67 69 62 37 32 39 43 38 39 37 36 31 32 31 36 35 33 29 30 33 36 32 29 28 31 32 30 32 34 32 27 27 30 29 30
33 33 32 31 31 28 24 23 41 54 66 79 68 47 34 46 47 45 43 40 36 35 32 32 40 39 38 37 31 34 32 32 28 28 33 33 30 31 32 32 30 26 28 30 31
44 42 39 35 32 31 31 24 29 52 59 82 85 57 43 48 46 52 56 53 50 46 33 35 39 41 40 34 35 37 35 35 32 30 32 32 29 29 30 32 28 25 26 28 31
53 55 45 40 36 34 31 30 25 49 64 65 89 66 50 52 51 57 56 60 61 58 49 46 39 41 41 39 40 38 37 38 35 33 31 34 31 30 27 25 27 27 23 26 28
65 62 56 51 41 36 31 25 22 36 62 65 83 83 54 46 58 61 60 55 60 65 65 63 58 49 48 44 45 44 43 39 35 30 31 30 29 30 25 22 22 21 22 21 26
72 75 69 62 52 41 33 28 24 24 61 71 89 84 64 43 53 56 69 67 64 64 70 71 68 59 51 51 45 45 44 48 33 32 31 34 34 27 25 28 27 25 24 21 21
81 82 75 66 58 48 40 27 22 19 61 83 81 75 70 52 49 55 61 63 73 74 78 82 78 70 65 57 52 50 52 48 43 35 36 38 37 30 30 29 29 28 26 24 22
74 68 71 76 75 69 55 40 30 20 74 82 81 85 64 57 55 53 59 65 80 90 83 88 82 75 68 65 60 52 54 47 45 41 43 41 40 32 30 30 27 27 27 28 26
65 73 76 78 82 84 72 51 31 37 56 87 73 78 67 55 56 59 61 70 70 72 77 81 85 77 71 64 60 56 53 49 44 41 37 35 33 30 26 25 24 23 23 22 22
66 69 74 76 78 84 77 63 48 58 72 81 86 85 66 57 58 61 64 65 70 74 71 72 71 68 72 70 64 59 56 53 47 43 41 37 31 26 23 20 19 18 18 18 19
61 65 72 81 79 77 80 68 56 72 90 95 84 84 80 59 54 61 60 63 72 75 73 75 68 62 68 67 64 61 58 55 49 41 37 35 28 22 19 19 19 18 17 17 17
58 62 72 84 87 77 78 63 65 80 97 95 84 90 83 61 59 61 63 63 66 73 77 75 68 65 65 67 63 61 52 48 46 44 45 37 46 27 19 19 17 16 17 17 16
59 70 86 96 96 75 80 63 98 84 97 98 90 91 80 63 57 64 66 59 62 66 70 74 71 67 67 63 60 55 48 44 43 45 44 40 45 31 20 19 18 19 17 16 16
68 84 93 97 94 78 65 70 89 97 97 98 82 77 87 75 61 62 65 60 59 61 72 72 68 66 67 61 54 50 46 43 43 47 57 41 39 30 22 20 19 21 21 19 18
75 90 93 94 90 65 66 88 93 97 99 89 86 90 86 76 64 63 60 59 62 71 77 69 66 62 56 53 47 46 47 60 61 62 55 37 44 29 21 23 24 25 24 23 23
90 87 64 90 79 60 78 95 97 98 94 86 94 91 83 72 70 62 59 60 58 59 66 68 66 54 47 47 47 50 48 60 60 66 56 41 43 30 25 27 30 30 29 27 26
75 62 83 75 55 73 89 96 97 99 94 85 94 97 91 77 66 63 58 55 53 51 55 62 60 53 51 49 49 55 59 52 59 54 62 46 35 28 30 34 35 36 34 32 30
66 58 69 66 59 75 93 98 97 97 96 88 89 85 87 77 62 60 59 51 50 47 51 53 60 53 55 52 51 53 50 61 64 70 69 51 45 42 39 40 41 40 39 40 42
57 52 68 66 73 85 98 96 98 94 91 86 80 80 80 77 65 60 57 51 52 50 51 50 55 63 60 58 55 56 59 60 63 72 78 77 56 45 46 46 48 48 49 53 50
54 68 82 87 92 95 99 98 97 91 89 81 72 70 78 78 72 63 58 53 51 52 54 56 62 70 61 53 51 53 59 68 76 72 78 81 57 45 48 50 56 59 63 69 67
47 73 84 91 97 96 94 93 96 95 88 77 71 67 65 69 66 60 60 56 54 57 57 57 63 68 64 60 59 64 69 71 75 80 75 85 61 53 56 63 69 69 71 71 73
50 67 74 80 90 95 94 93 95 87 85 79 75 65 66 67 62 65 66 59 58 60 56 56 62 63 65 65 66 75 74 77 79 88 78 72 64 64 71 75 80 75 81 80 76
56 67 71 81 83 90 95 95 85 81 73 75 74 72 69 66 63 64 62 60 57 58 57 60 69 66 61 64 68 73 77 77 84 83 91 68 79 75 78 80 83 79 79 75 72
61 67 70 72 78 79 81 87 84 79 78 73 71 73 68 64 60 58 55 57 57 58 60 63 68 71 74 70 78 84 79 83 82 82 81 83 81 81 81 81 75 78 79 77 75
64 66 68 65 70 71 69 71 72 72 70 71 67 70 75 74 66 60 56 54 56 59 63 69 75 78 79 76 81 87 82 78 78 78 80 89 81 83 81 84 80 82 83 82 81

GFSSW_prec_cthk_018.txt.gz
RH
31 30 30 28 26 24 34 38 46 48 72 80 74 62 43 33 31 31 28 22 23 26 27 29 28 31 33 36 37 37 42 40 30 27 22 17 23 28 30 29 26 26 25 24 28
32 33 32 31 32 32 26 35 44 51 53 74 78 71 51 41 36 34 24 28 26 29 30 30 31 30 33 31 36 38 42 36 27 25 24 20 24 30 31 29 28 27 26 29 33
41 42 41 38 33 33 33 31 25 44 51 60 88 75 59 42 46 32 31 33 31 31 30 32 35 35 33 31 33 35 37 29 26 24 26 25 26 30 34 32 28 28 28 29 31
55 55 51 52 47 36 33 33 32 29 43 54 74 79 64 51 51 39 38 39 39 38 31 31 37 39 35 36 30 33 32 29 26 23 24 28 29 29 31 31 28 27 28 30 34
48 60 70 62 55 48 43 33 31 23 35 56 63 89 68 57 42 53 47 48 47 40 36 34 38 39 38 35 34 35 33 31 27 26 28 29 32 30 29 30 30 27 29 30 29
61 77 78 74 64 60 49 42 30 21 29 55 67 85 83 63 43 50 59 62 56 46 37 35 42 40 38 36 38 38 33 32 30 30 30 29 29 31 27 28 28 28 28 30 28
65 76 80 79 73 64 49 42 34 26 17 52 72 85 95 64 58 54 58 70 72 65 48 41 44 44 40 40 41 42 41 38 34 30 32 31 27 29 26 25 26 29 27 26 27
61 67 68 69 67 65 54 42 32 26 15 53 77 79 78 76 63 66 60 64 65 70 65 59 57 51 44 45 45 44 43 46 35 33 31 33 31 23 21 23 23 22 22 23 22
56 60 61 65 64 64 62 52 33 26 19 48 77 85 77 79 62 66 70 68 67 67 70 75 72 64 55 49 50 51 53 48 39 33 32 37 36 25 25 26 26 25 24 22 20
57 62 66 68 69 71 74 62 44 31 19 43 78 88 75 76 63 64 72 75 74 82 85 85 84 75 68 58 58 49 52 46 45 40 40 39 39 31 29 29 28 26 24 23 22
58 59 66 72 76 71 73 71 52 30 28 57 78 75 81 78 65 64 71 73 82 89 94 89 85 85 74 70 57 55 56 52 45 41 39 38 35 31 27 27 26 25 24 23 23
63 69 69 74 78 75 74 71 58 54 38 66 89 78 75 73 69 68 75 71 82 91 92 91 90 87 82 74 68 63 62 56 50 47 43 39 34 30 28 25 23 21 19 19 20
61 66 71 78 87 88 75 74 58 59 47 98 97 81 88 75 63 71 79 72 74 77 80 81 77 81 77 71 69 63 59 57 55 51 45 41 31 26 21 18 18 17 16 18 17
66 68 80 94 95 90 74 71 59 60 77 98 91 86 93 76 67 71 78 71 77 77 74 71 62 63 69 67 64 65 58 55 54 51 52 42 47 29 20 18 17 16 17 17 16
79 82 87 98 98 96 74 62 84 62 84 92 94 96 92 74 62 75 78 69 70 72 74 75 67 66 66 65 62 62 57 53 50 51 48 43 48 29 22 20 17 17 17 17 16
87 91 86 96 94 89 63 72 67 89 96 92 97 89 95 80 69 73 75 66 67 68 72 70 70 71 68 64 58 59 58 55 51 50 56 39 42 33 22 20 18 18 19 18 19
89 84 82 94 85 68 65 71 87 96 98 93 91 85 91 77 71 72 73 66 69 74 81 70 72 70 66 65 61 57 58 57 54 61 50 40 46 35 24 22 22 24 23 23 23
71 77 70 77 64 69 80 84 94 96 98 84 78 90 87 79 73 73 70 67 62 61 66 79 82 72 63 57 55 52 48 52 48 62 56 43 45 31 24 27 28 28 28 28 29
74 63 68 62 64 87 91 92 97 98 97 86 86 84 90 86 74 68 65 64 60 63 69 76 67 59 54 48 44 52 58 52 59 57 62 46 36 28 32 33 35 36 36 36 35
52 48 61 74 85 86 92 98 96 91 88 76 83 91 91 82 71 65 63 53 56 57 55 54 62 53 52 50 52 54 53 61 62 62 63 51 49 46 42 40 40 40 42 43 44
46 62 75 83 88 94 97 96 96 92 88 85 80 82 84 75 68 61 56 51 48 47 49 48 51 56 56 56 57 59 61 55 58 65 73 73 55 45 44 44 46 49 50 52 52
65 73 82 88 94 97 98 99 92 95 85 79 74 77 83 79 67 57 58 51 49 47 50 49 54 63 60 56 53 53 57 60 69 67 80 81 61 48 48 51 55 58 63 67 67
58 61 67 78 85 95 93 90 91 84 78 70 68 69 75 72 71 62 55 51 51 51 51 48 57 65 62 59 57 60 61 65 70 78 83 84 60 51 53 57 63 65 67 69 69
53 56 59 67 73 78 84 86 80 78 75 63 64 65 69 67 60 64 57 56 54 55 53 54 60 58 62 60 61 69 70 72 79 85 76 74 58 57 61 64 68 72 68 67 68
50 60 69 68 69 72 71 73 73 73 73 69 67 63 65 67 63 63 61 59 58 59 57 55 62 66 64 61 65 71 73 74 79 73 76 59 73 67 71 74 77 76 67 70 73
54 61 62 64 67 68 68 70 67 63 69 72 72 71 67 65 61 62 60 60 59 59 57 58 69 67 65 61 69 75 75 77 75 74 73 70 74 76 78 81 76 70 73 75 77
54 57 62 61 64 64 63 66 70 66 65 70 70 72 74 71 63 57 53 53 55 57 60 63 70 70 69 68 77 81 77 77 75 73 74 80 75 77 80 79 79 74 70 70 70

GFSSW_prec_cthk_021.txt.gz
RH
36 36 38 39 34 31 31 32 39 43 46 50 66 80 72 54 40 38 31 22 22 25 25 28 35 39 45 45 47 46 50 47 36 30 24 21 21 23 26 27 26 25 24 23 24
39 43 48 46 45 42 37 33 28 36 42 46 58 85 80 71 47 41 27 26 25 29 32 29 30 35 40 39 43 45 50 44 36 27 25 23 24 24 24 26 25 24 25 26 29
37 45 51 61 61 62 56 44 34 27 37 51 53 72 89 77 59 38 31 28 30 31 33 34 35 34 36 35 39 42 43 36 33 29 28 26 25 24 25 27 25 26 30 32 34
38 40 49 60 81 77 71 59 43 35 24 43 57 63 91 83 64 50 44 33 32 34 37 38 40 38 37 35 33 37 37 34 31 28 28 27 26 25 23 25 27 28 31 36 37
42 54 57 68 79 85 84 68 55 37 28 23 56 63 93 83 59 61 59 43 41 43 37 40 41 38 37 35 32 34 35 32 30 27 27 27 26 25 23 23 28 28 30 31 35
51 54 57 58 70 76 82 71 60 41 32 25 50 64 80 92 71 54 72 70 53 57 46 39 40 38 36 35 36 35 31 30 30 28 26 27 25 27 23 22 24 27 29 30 30
57 55 54 52 56 61 66 71 53 46 37 29 40 64 77 88 74 53 67 75 74 62 45 42 41 44 42 37 39 36 38 34 29 28 30 28 26 27 25 24 24 25 25 28 28
58 62 57 55 58 61 62 61 56 44 36 28 44 74 63 70 82 62 74 83 86 81 56 44 51 50 45 42 42 43 41 44 33 31 30 31 30 25 24 22 22 23 23 23 25
70 64 65 64 66 68 66 65 62 38 37 29 42 79 97 82 80 75 79 86 91 96 87 59 61 56 49 49 50 49 51 45 36 33 34 36 35 24 23 23 22 19 17 18 19
75 69 69 68 74 76 71 68 66 44 39 29 51 85 90 85 82 77 77 78 77 87 91 86 78 72 61 58 55 50 48 45 42 35 36 36 37 27 29 28 28 25 22 20 19
77 63 71 74 80 77 74 71 68 52 42 38 58 79 68 80 82 78 90 80 81 85 86 86 87 76 66 59 53 49 48 48 40 36 36 35 35 28 26 28 26 25 24 22 21
60 63 73 71 77 89 85 75 72 68 38 47 88 85 95 80 79 84 85 89 93 96 90 94 93 84 77 72 66 59 58 57 46 40 40 36 34 28 25 26 26 26 23 22 21
78 80 79 84 93 92 83 77 73 58 50 48 74 86 93 85 77 81 81 91 84 94 93 95 90 89 94 82 75 70 65 56 52 47 44 42 34 28 24 23 21 19 18 18 17
91 91 88 92 94 98 86 77 69 51 50 69 88 81 88 88 75 75 83 84 82 89 96 94 86 92 87 82 75 69 60 55 54 52 54 45 49 32 23 20 18 16 17 17 17
94 98 83 90 98 98 79 72 74 52 64 88 88 86 84 80 71 78 87 81 84 82 87 94 84 83 88 82 72 64 58 56 54 54 51 46 49 31 22 19 17 17 16 18 16
80 78 86 92 93 88 65 57 64 66 97 99 90 87 92 83 73 86 87 80 82 84 80 76 70 64 65 67 65 63 61 59 58 54 59 42 44 32 21 20 20 19 18 19 19
59 65 73 80 75 66 61 57 69 94 97 99 90 83 89 81 77 85 87 78 82 86 86 77 73 68 66 68 65 62 63 62 54 60 50 42 47 31 24 23 22 22 21 22 21
63 61 50 44 51 54 62 72 89 97 98 94 84 91 93 82 78 87 79 78 71 67 75 76 80 70 68 69 69 65 61 58 43 54 54 44 47 29 24 25 25 27 28 28 28
58 63 70 68 61 73 85 93 97 95 92 88 87 93 96 85 81 84 79 67 61 60 68 73 75 71 70 68 62 63 63 50 53 55 58 46 36 26 28 30 34 35 35 35 35
56 57 63 67 78 83 87 97 94 88 76 76 77 84 88 81 77 78 72 62 57 60 63 66 82 69 68 63 59 52 50 57 58 48 55 45 48 44 38 38 40 43 43 41 41
64 69 74 75 77 80 84 88 88 80 71 67 77 72 78 81 69 63 66 54 53 64 63 60 63 65 61 59 58 57 59 56 55 58 62 68 53 47 46 45 47 49 50 53 55
60 65 71 81 79 79 82 84 84 78 71 71 73 78 78 77 67 58 58 54 51 56 58 55 58 65 60 56 53 53 56 55 58 60 73 77 66 51 50 52 53 57 60 62 62
51 61 66 72 77 81 79 79 78 78 77 73 71 72 76 75 69 55 52 47 53 50 52 52 56 64 61 58 57 56 56 57 61 69 79 81 66 54 57 59 64 65 68 66 59
47 55 60 66 72 72 74 76 75 70 68 66 67 69 72 69 60 61 55 54 51 52 52 50 56 58 61 56 57 62 59 64 70 82 80 70 62 65 65 67 67 69 64 57 58
49 62 65 66 63 68 69 70 73 76 71 65 66 71 73 71 66 64 60 56 56 58 55 55 63 65 61 59 60 60 65 70 76 73 75 66 67 64 67 69 72 74 65 58 58
50 58 59 64 64 66 64 67 66 69 69 65 68 69 66 67 63 63 58 58 56 57 58 57 66 65 65 56 59 68 68 72 74 71 70 71 74 67 70 74 75 78 66 60 58
48 52 54 57 62 61 62 63 63 64 67 68 68 73 72 69 61 59 58 57 56 56 59 60 66 66 68 59 65 74 72 73 74 72 71 75 67 70 73 76 79 73 67 60 62

GFSSW_prec_cthk_024.txt.gz
RH
44 41 40 41 49 46 45 44 38 32 35 39 51 61 73 84 70 46 40 30 25 29 27 31 48 51 52 51 47 43 46 44 35 35 32 27 25 23 26 27 29 28 25 25 25
42 36 34 38 42 54 64 69 53 42 36 41 47 61 72 80 73 57 38 35 29 34 35 30 39 50 51 49 52 50 50 43 36 34 34 29 27 25 24 26 27 27 27 26 27
34 41 37 47 44 55 69 91 82 61 36 36 44 62 63 95 76 58 53 37 35 35 41 34 36 41 51 46 46 49 48 45 40 40 38 32 30 26 24 21 22 24 27 30 29
41 44 52 57 56 59 65 81 96 77 55 31 35 50 62 80 83 72 58 37 39 39 44 45 41 43 43 46 43 44 43 42 40 41 39 34 30 28 25 19 21 25 28 35 37
41 47 57 63 59 63 66 78 91 89 70 40 33 49 63 74 88 80 66 50 42 45 44 48 46 41 39 40 40 42 40 38 36 36 34 33 30 26 21 19 20 24 28 35 42
47 53 64 55 59 61 62 66 72 84 72 46 33 56 68 66 80 84 77 56 47 48 47 47 46 42 38 36 36 36 35 34 33 33 32 29 26 25 22 19 18 20 26 30 35
58 68 66 65 66 60 66 65 64 73 65 54 36 46 68 63 70 91 71 72 59 56 51 48 45 44 40 38 36 37 37 32 29 31 31 28 27 26 21 20 18 18 21 28 30
62 73 76 66 70 74 72 72 69 68 58 53 37 46 63 62 89 91 72 84 84 81 66 55 46 48 46 41 41 40 40 41 34 31 28 28 30 26 25 22 20 18 18 20 24
70 74 79 69 72 71 76 75 70 69 58 55 40 55 63 57 87 84 77 87 92 96 84 64 51 52 52 48 49 47 50 44 37 33 32 33 35 28 25 24 23 21 18 17 18
89 84 68 70 76 78 77 75 71 68 50 49 37 65 61 65 78 81 86 89 89 95 88 79 67 61 57 51 53 52 48 44 41 33 33 34 36 26 23 23 25 24 21 19 17
91 90 83 73 75 78 83 78 72 67 55 44 41 74 68 81 73 84 95 96 97 98 93 88 83 63 52 52 46 49 48 46 40 36 35 33 33 25 23 24 23 22 21 19 18
89 82 92 80 82 88 87 81 75 86 53 57 50 77 86 97 79 87 96 94 89 98 97 98 94 81 72 64 56 55 56 53 45 38 37 34 32 25 20 21 22 21 20 20 20
93 87 95 90 91 95 89 81 76 63 56 61 65 79 93 92 88 85 94 90 92 95 97 87 88 88 82 73 67 64 62 58 53 46 42 39 31 25 20 20 19 18 18 17 17
71 92 88 92 92 91 84 75 75 58 56 68 81 86 83 78 85 90 97 95 96 97 95 94 92 96 95 88 77 72 65 60 54 51 54 44 47 31 25 23 20 18 16 15 18
57 64 85 86 90 98 72 67 51 51 55 85 87 94 93 78 77 88 96 94 92 96 97 96 96 92 91 93 85 77 66 60 58 57 51 46 49 30 24 21 20 19 18 17 17
45 55 65 72 80 64 60 50 59 65 88 89 97 96 87 81 78 79 87 87 89 86 91 91 88 88 86 88 80 75 67 62 61 58 59 46 47 31 22 22 22 21 20 20 20
47 44 46 50 52 52 49 64 75 90 91 87 83 80 80 84 78 74 86 87 89 93 95 85 84 82 79 82 78 70 66 67 54 61 55 47 47 30 26 24 23 23 22 22 22
58 55 47 42 45 55 70 82 85 79 87 83 79 74 83 81 82 85 88 87 80 81 88 88 87 74 70 67 67 65 63 62 45 54 51 48 47 30 26 23 24 26 26 26 26
64 62 62 58 58 67 81 85 93 98 91 81 79 86 89 80 81 92 90 83 77 73 76 80 81 74 69 67 66 69 70 62 65 61 57 42 35 26 28 28 29 31 32 34 35
62 65 66 63 69 77 75 79 95 87 75 72 77 84 87 81 79 86 81 74 70 66 64 66 78 71 73 71 68 63 62 63 60 46 48 41 43 39 35 36 39 41 42 44 45
61 66 68 66 67 72 75 78 77 74 68 71 78 78 82 76 71 71 72 63 59 59 59 58 62 76 72 74 72 67 64 55 54 58 57 54 43 43 44 45 46 48 50 52 52
57 66 69 69 69 75 76 75 65 65 65 64 67 69 75 78 70 70 69 60 51 56 67 59 70 76 68 63 58 53 56 55 57 54 63 68 60 49 51 53 53 55 57 59 56
50 57 62 65 69 70 72 75 75 68 67 69 72 73 75 72 64 58 56 53 51 56 61 59 61 67 63 58 58 59 58 55 54 60 70 72 62 54 54 55 59 57 61 61 57
46 55 61 63 67 71 71 72 70 70 69 69 70 71 73 74 64 56 52 52 50 53 53 53 56 56 60 58 62 65 60 59 61 73 72 71 64 59 57 55 58 61 65 62 50
53 59 61 67 69 71 73 76 75 73 67 65 67 69 73 75 67 60 58 57 56 54 56 56 61 63 63 62 62 60 59 63 70 70 74 62 65 59 62 62 61 64 67 59 53
51 58 62 63 65 65 65 68 70 73 69 63 68 75 70 69 65 67 61 60 59 62 61 60 70 68 64 57 60 62 60 69 74 73 68 66 65 61 62 63 66 72 69 66 58
51 53 54 56 61 62 65 65 63 65 67 68 69 72 72 70 63 58 58 57 58 60 62 63 67 66 67 59 60 62 64 67 72 71 69 72 63 62 65 66 71 72 72 71 66

GFSSW_prec_cthk_027.txt.gz
RH
55 53 49 41 35 39 43 52 54 52 43 34 35 44 60 80 77 75 51 38 33 31 31 31 45 61 61 55 47 43 46 44 39 36 33 32 30 26 27 28 30 31 28 28 28
56 48 42 47 41 47 45 47 63 66 64 53 34 42 56 68 88 75 65 50 38 42 35 32 41 53 64 60 55 48 46 39 34 33 32 33 31 28 25 27 30 30 31 29 28
49 43 47 52 51 56 56 55 64 73 75 80 54 40 54 70 70 57 88 69 41 40 39 35 40 46 57 59 57 52 46 41 36 32 33 34 35 31 26 24 25 29 30 32 30
49 50 51 52 57 61 63 60 69 77 83 93 77 38 51 72 86 84 81 74 49 45 47 42 44 45 50 58 56 54 50 45 44 41 40 39 38 35 28 23 23 24 25 27 31
52 53 59 56 62 60 64 61 62 64 77 94 87 43 41 72 73 82 85 76 55 50 54 46 44 45 44 49 57 53 49 46 45 45 44 42 40 38 29 25 22 20 21 25 29
52 56 76 75 69 70 67 63 63 60 63 82 85 53 38 69 68 83 85 77 52 53 60 59 43 43 42 42 46 52 48 43 40 40 39 40 40 37 30 24 20 18 18 23 26
66 80 82 79 78 72 74 73 69 65 62 75 80 56 42 59 68 82 83 76 60 52 54 68 55 45 39 41 40 44 46 42 37 36 36 35 34 32 27 24 20 17 17 18 25
74 87 99 95 82 73 75 75 74 70 67 76 75 52 44 46 63 94 97 79 74 60 59 64 56 52 46 42 43 44 42 44 35 31 30 30 29 27 26 25 21 18 17 17 17
74 83 94 96 76 75 77 79 78 74 72 77 70 50 48 66 58 72 91 84 82 71 73 72 60 57 53 48 50 47 48 43 37 35 33 32 35 29 26 24 22 21 18 18 17
82 98 89 87 77 79 81 79 78 72 72 69 57 49 45 58 62 64 79 93 93 85 92 93 71 64 56 51 50 53 48 43 37 33 34 37 39 31 26 24 23 21 19 19 19
76 92 85 84 79 85 78 82 80 69 74 57 44 61 57 54 85 88 86 99 98 97 98 94 83 61 52 51 47 44 42 41 38 36 35 36 35 28 26 25 23 22 20 19 19
61 80 96 91 85 88 92 85 72 78 63 47 44 79 66 64 92 87 93 97 97 97 97 97 89 66 56 56 50 49 48 45 40 36 34 34 32 24 22 22 21 21 20 20 20
58 69 86 89 86 85 86 74 76 63 71 70 91 71 74 71 83 89 97 98 95 98 93 91 92 79 65 61 57 55 51 49 47 42 38 37 30 24 22 21 20 18 17 17 19
53 60 77 82 87 90 69 74 60 71 65 93 84 92 97 80 78 76 96 98 95 96 97 97 95 92 80 75 66 63 55 54 50 50 49 41 42 27 25 21 20 19 18 17 18
43 53 66 71 68 62 61 53 59 55 68 74 94 94 89 87 85 92 94 93 94 97 97 97 95 92 92 84 74 69 64 62 58 56 49 44 42 26 24 23 22 22 22 22 22
34 39 44 47 56 59 56 59 65 71 88 88 93 91 89 91 87 93 95 96 96 96 96 93 97 96 96 93 90 77 72 67 63 57 53 45 43 27 24 25 25 24 25 24 24
35 43 44 45 51 59 62 69 74 76 93 96 93 81 80 84 89 95 96 95 96 98 95 91 89 93 93 91 88 83 80 76 58 60 53 48 47 30 27 26 26 26 26 26 26
45 48 53 59 68 63 67 68 77 84 93 93 87 80 83 79 89 85 88 90 84 85 97 93 94 90 86 84 85 82 76 73 51 46 43 50 47 29 28 26 27 28 28 28 29
49 50 59 63 68 63 62 64 77 81 81 74 70 76 80 78 75 75 85 86 81 79 82 86 89 81 83 76 73 76 74 61 62 61 55 38 34 28 29 29 28 29 29 31 34
55 57 62 64 65 61 69 68 74 70 66 64 67 71 79 76 79 80 82 79 79 76 72 75 89 81 76 70 68 62 64 68 66 54 44 36 37 30 32 33 36 35 37 40 43
57 59 62 65 61 63 70 73 72 70 65 68 79 79 75 72 74 82 83 75 72 69 65 64 69 77 73 73 74 71 69 62 57 54 47 41 34 36 38 40 42 46 48 49 49
47 64 61 63 62 63 68 65 64 65 66 63 67 70 71 70 71 71 75 65 65 62 63 63 68 74 75 71 71 68 66 59 56 53 58 55 42 40 43 45 48 51 54 54 53
41 56 63 59 72 68 64 62 64 63 64 61 61 65 68 69 67 66 63 61 56 52 58 59 63 73 73 69 65 64 58 54 52 54 60 54 47 49 53 52 53 52 54 58 55
43 52 62 66 69 70 72 73 71 68 68 68 69 71 71 66 59 61 57 56 52 54 60 60 61 59 56 54 58 62 59 57 55 62 58 59 58 54 53 56 56 54 55 59 57
47 57 61 69 72 78 76 76 73 72 69 68 69 69 73 77 66 59 53 53 53 55 57 57 61 60 56 55 61 61 60 58 59 59 68 62 64 57 59 59 57 58 60 61 61
47 54 60 63 66 67 69 72 75 73 68 65 74 75 73 74 65 64 58 59 57 59 57 58 68 63 61 58 61 61 58 59 63 68 71 68 65 60 59 60 60 62 62 63 62
49 50 53 52 60 64 66 66 65 69 69 67 69 78 76 73 68 65 60 58 58 58 61 60 66 65 65 58 59 62 55 61 66 71 70 73 63 61 63 61 62 62 62 61 63

GFSSW_prec_cthk_030.txt.gz
RH
73 67 63 52 47 48 42 39 47 54 59 49 37 29 35 50 63 77 57 57 43 37 30 32 47 65 64 59 53 53 53 47 42 39 35 32 32 30 27 26 27 29 29 31 29
60 54 47 42 49 52 52 53 46 49 64 55 50 39 28 42 50 58 66 72 51 43 44 38 45 57 64 62 60 51 47 38 39 38 35 32 32 32 27 26 26 27 30 29 28
49 49 50 57 59 65 64 64 60 64 60 57 62 50 44 33 53 68 92 81 64 48 48 41 49 55 56 63 62 56 47 42 39 36 34 34 33 33 30 28 27 28 30 33 31
51 53 64 70 78 71 64 64 64 68 73 71 68 65 52 46 62 58 83 92 77 49 51 54 51 57 49 55 62 61 51 47 43 37 35 34 34 33 31 30 26 27 28 30 36
59 67 73 83 92 86 64 60 64 62 63 64 69 74 70 61 43 62 84 93 86 56 53 58 51 56 52 49 58 61 59 53 50 44 41 38 36 36 33 33 28 26 25 27 29
63 73 75 96 96 87 70 75 69 66 63 60 62 62 81 62 40 66 81 93 78 65 58 56 56 54 56 51 47 57 59 56 54 49 46 45 42 40 35 35 31 26 23 23 24
67 74 79 91 99 96 80 72 78 76 67 63 62 66 79 52 52 94 81 96 77 65 63 65 62 56 49 51 48 49 58 56 51 49 47 45 43 40 37 35 32 27 24 21 18
77 83 92 82 82 89 83 77 81 78 75 66 64 74 74 35 56 84 92 95 81 67 68 75 67 58 48 45 47 44 46 58 47 44 43 41 34 34 31 31 29 28 23 21 17
62 82 92 87 86 70 78 80 79 78 75 74 77 81 64 35 71 95 92 90 86 66 74 75 75 68 52 45 49 45 36 39 50 42 37 35 29 29 27 26 27 27 24 21 18
56 68 91 82 81 79 78 76 76 75 75 78 79 77 44 47 69 78 84 90 86 76 82 87 88 78 58 47 42 42 39 39 37 43 39 38 33 31 27 25 25 23 22 20 19
58 62 87 80 76 81 78 81 83 72 78 69 67 68 56 64 64 81 88 91 87 81 82 84 89 74 56 50 46 43 38 35 33 38 38 35 36 29 25 24 23 21 20 19 19
53 63 76 81 80 83 86 78 74 79 73 57 56 73 73 78 77 82 96 95 95 85 88 94 86 75 65 57 49 45 40 38 39 37 37 38 35 27 24 23 22 22 20 19 20
49 61 68 76 77 76 67 71 72 64 67 81 77 71 69 71 66 75 91 97 94 97 90 94 85 74 66 54 51 48 42 42 38 38 36 34 27 25 23 23 21 19 19 19 20
46 46 50 57 61 59 66 62 67 78 96 91 86 80 85 88 82 91 97 98 98 98 97 98 95 82 70 60 52 50 46 45 44 42 40 34 28 27 24 23 22 21 20 21 21
43 41 43 44 44 48 60 75 83 80 87 93 93 86 92 93 91 97 95 96 96 97 97 97 96 88 79 62 55 56 50 49 49 49 45 39 35 27 24 23 24 23 23 23 23
43 44 41 44 47 47 58 74 80 83 94 99 97 91 84 87 87 93 98 97 95 96 96 97 96 95 93 78 69 61 55 56 54 52 54 41 38 25 24 24 25 25 26 26 25
44 47 49 49 49 48 54 61 76 83 96 98 96 90 83 83 84 82 97 97 94 97 98 98 99 96 97 93 82 70 67 73 69 70 50 42 40 27 25 25 25 26 28 28 27
44 51 55 51 54 55 55 61 70 86 89 88 84 79 87 90 98 96 94 92 86 90 91 94 96 98 97 93 94 82 75 68 58 47 39 44 37 28 27 26 26 28 29 31 31
51 53 55 52 51 52 56 67 77 81 82 72 65 68 76 79 82 82 84 84 84 86 87 87 93 91 90 88 87 85 87 71 61 53 46 32 30 29 29 28 29 30 32 35 35
51 52 53 49 52 51 56 66 70 69 68 64 67 66 71 76 72 71 73 76 74 74 74 78 89 84 86 83 81 79 76 76 72 60 44 30 28 29 32 32 34 37 39 41 43
46 53 52 50 54 57 61 62 60 61 60 60 63 65 65 67 68 70 73 74 73 73 68 69 74 84 81 78 73 70 67 63 58 50 43 30 27 27 31 36 38 40 42 44 47
39 55 53 49 54 60 63 62 60 60 61 59 60 63 63 63 65 70 69 69 67 64 62 61 69 78 74 73 71 69 63 55 52 59 49 46 34 36 38 38 42 46 48 48 51
37 51 53 51 54 56 54 56 59 58 59 58 59 60 62 62 64 65 67 65 65 62 60 57 62 75 73 72 70 68 66 61 57 53 53 42 36 40 43 46 51 51 49 52 53
43 47 55 57 62 61 60 59 59 61 59 61 63 67 67 68 59 61 62 62 59 52 54 55 55 59 51 60 60 66 61 56 51 52 44 40 43 45 49 53 56 53 52 54 53
47 53 54 64 70 70 69 69 68 67 68 65 65 66 69 68 58 59 57 55 54 57 58 64 68 62 56 55 60 59 55 53 55 47 48 45 48 51 57 56 54 54 58 57 56
46 53 57 58 61 66 68 73 73 69 67 66 67 69 71 71 63 57 53 50 52 57 58 59 70 63 59 55 57 59 55 54 53 51 52 52 57 57 56 56 57 60 60 58 56
39 51 53 52 56 59 61 63 66 68 66 66 70 76 75 75 71 62 58 56 56 56 61 60 64 61 59 55 56 54 47 48 50 53 56 65 60 58 57 57 60 62 60 58 57

GFSSW_prec_cthk_033.txt.gz
RH
54 52 53 51 47 43 50 54 54 44 53 71 72 52 38 32 46 64 60 51 62 38 29 32 43 59 69 62 66 80 85 78 63 49 47 48 43 34 30 29 26 30 34 37 36
46 47 52 53 57 58 60 64 66 65 57 61 68 63 47 33 38 49 50 56 56 52 43 33 41 56 64 69 64 61 70 68 59 53 51 49 39 35 31 28 27 27 31 33 33
44 53 58 68 70 74 74 78 75 72 74 77 74 60 53 39 34 32 57 68 68 53 52 40 43 53 62 68 67 54 50 56 61 52 48 46 38 36 34 31 28 28 31 34 34
52 57 61 71 80 84 84 86 78 79 77 84 74 59 56 51 38 28 44 60 70 59 56 54 50 56 66 57 64 60 51 56 55 49 42 40 39 36 33 34 33 31 29 31 35
61 64 68 75 83 92 93 83 69 68 68 72 75 73 60 55 40 53 42 53 63 67 51 55 49 54 66 55 58 65 59 59 57 48 41 38 37 37 35 36 34 32 27 28 30
71 81 86 86 82 91 97 86 70 62 58 55 56 61 63 56 54 42 64 55 76 81 67 56 47 54 68 65 50 61 67 62 61 56 49 42 39 39 35 36 33 32 28 25 26
60 65 88 94 84 78 95 92 80 75 71 69 68 65 64 55 61 47 62 61 87 96 76 60 57 62 66 66 64 57 66 66 64 61 55 48 44 41 38 38 34 32 31 26 23
55 70 79 96 85 75 78 86 78 78 75 72 66 67 60 47 56 57 58 61 68 96 81 71 63 63 72 66 65 56 61 65 57 62 57 51 41 42 40 38 35 33 32 29 25
59 60 78 95 82 71 70 77 78 76 75 79 73 67 60 60 50 56 67 66 75 95 82 76 68 67 73 67 63 56 46 50 52 56 57 50 44 42 37 34 34 33 31 29 28
53 59 76 83 75 74 70 70 70 72 74 79 77 76 58 65 50 66 77 76 72 82 89 87 81 62 72 64 50 47 44 41 40 52 56 46 42 39 36 34 32 29 27 27 27
47 56 66 71 76 80 82 85 88 78 74 79 79 82 76 73 86 93 79 97 96 82 83 85 85 70 48 48 44 42 43 39 37 43 50 54 40 35 35 30 26 24 24 23 22
41 46 54 62 66 67 73 75 73 75 75 68 69 73 85 84 97 97 96 98 80 77 73 84 80 69 66 60 50 49 47 46 44 42 41 44 43 37 33 26 23 22 21 22 21
38 46 46 48 53 60 64 65 61 66 82 82 84 77 78 91 94 95 91 98 88 78 77 79 76 78 74 69 58 49 45 42 44 45 37 38 42 34 29 25 23 20 19 19 20
40 45 50 47 48 60 72 75 82 83 88 82 87 89 85 94 97 95 91 92 93 82 89 91 85 82 77 75 63 56 46 45 42 47 35 34 25 37 32 25 22 20 19 19 20
41 44 46 51 59 62 68 71 85 93 94 92 84 80 94 97 92 97 96 97 97 91 96 93 91 82 78 73 67 66 51 46 44 48 50 39 32 32 27 28 28 28 25 24 24
46 43 51 53 50 53 65 77 83 93 95 88 95 90 83 93 84 93 95 98 98 97 94 95 97 92 88 79 65 63 53 48 47 48 58 41 32 31 24 22 25 25 25 26 26
47 47 46 52 57 54 62 75 86 88 97 93 87 94 87 83 88 94 98 98 98 99 98 98 98 97 95 88 77 62 57 67 67 69 55 43 41 31 25 24 26 26 28 29 29
48 49 46 46 49 52 60 68 76 84 85 84 81 77 85 86 92 89 97 97 91 91 98 98 98 98 94 85 74 70 62 65 61 57 50 42 40 32 27 27 26 29 28 29 28
45 49 46 46 48 52 59 68 77 80 78 75 76 84 92 85 89 90 84 86 91 86 93 96 97 97 98 92 83 81 75 59 54 44 44 36 33 31 30 28 27 28 28 32 31
39 48 49 46 47 54 55 64 68 67 69 66 68 71 77 78 74 73 74 76 81 79 79 80 92 95 96 95 92 88 78 81 70 70 46 38 29 31 31 30 30 30 34 37 38
37 50 47 47 49 55 59 61 58 60 62 61 58 62 66 68 64 62 62 68 67 68 68 74 73 85 91 87 86 85 86 79 75 65 59 38 31 29 30 32 35 36 38 40 44
36 57 47 46 54 51 54 56 56 58 57 57 59 59 58 57 64 62 62 62 61 63 63 66 74 83 79 80 78 74 69 69 68 69 52 49 44 32 34 35 37 41 44 45 47
38 50 50 46 57 51 51 52 55 55 55 53 56 57 58 57 62 62 62 62 60 61 60 58 67 81 79 73 71 69 62 59 55 55 60 47 43 34 37 38 41 48 49 49 51
41 52 56 54 53 49 48 50 53 52 50 52 55 58 61 62 56 60 61 63 61 57 56 54 55 67 66 67 59 65 63 62 61 63 51 39 43 38 39 43 51 54 53 54 55
42 54 57 62 60 62 58 55 56 60 62 60 61 61 65 66 63 58 59 59 57 55 50 56 67 61 55 56 58 58 59 59 61 56 50 39 35 39 42 54 54 56 59 59 56
45 55 57 59 61 65 65 64 64 64 61 60 63 62 63 66 64 58 57 54 50 53 53 56 70 65 63 55 54 57 55 53 50 47 43 41 43 40 48 57 59 60 61 59 57
41 50 59 59 60 62 65 69 69 64 63 62 66 71 71 72 71 67 57 55 51 52 56 61 68 68 62 54 52 53 45 46 45 44 44 46 46 55 60 59 60 61 62 60 58

GFSSW_prec_cthk_036.txt.gz
RH
46 42 44 48 54 57 56 52 55 61 59 54 63 86 72 56 44 48 65 58 55 56 34 31 37 55 71 81 84 85 91 92 81 72 64 56 54 46 39 34 34 33 40 54 48
45 47 49 53 60 69 71 69 70 70 72 65 56 75 78 71 47 40 52 55 56 59 46 33 39 47 72 78 84 86 87 79 78 74 70 63 60 49 39 32 29 31 36 40 39
46 52 63 65 67 76 77 78 77 70 78 77 73 76 69 70 60 36 46 58 62 61 52 41 41 45 60 72 76 75 70 73 79 81 72 67 63 52 42 36 29 28 33 37 36
59 64 77 86 84 82 81 89 82 75 79 83 86 85 81 65 62 59 27 47 62 61 55 48 45 49 56 57 64 67 60 68 73 78 77 66 63 47 41 38 33 29 32 31 33
43 58 71 89 97 85 84 93 85 70 81 82 92 94 91 72 55 59 48 50 53 72 58 52 48 49 50 50 58 64 70 63 62 68 64 62 54 46 41 40 39 36 29 28 31
46 58 68 77 97 85 74 90 91 81 73 69 85 92 87 68 66 53 67 66 66 76 74 63 43 52 55 62 55 58 70 71 66 58 58 54 50 46 41 42 38 35 32 29 27
48 50 64 86 95 80 72 81 94 85 72 61 55 55 61 55 63 51 58 71 80 80 78 62 55 57 59 64 64 65 69 71 69 60 61 60 54 42 40 42 38 35 32 30 27
42 47 60 83 80 71 63 75 83 80 72 70 63 65 56 49 49 52 47 82 63 71 74 74 61 59 66 65 69 68 66 72 70 66 64 62 54 44 40 41 39 36 32 31 29
37 46 56 61 64 64 61 64 74 79 74 74 67 68 63 60 45 43 49 70 68 69 76 80 79 57 68 71 79 72 64 61 62 63 64 65 55 49 43 42 39 37 34 32 30
34 42 51 56 64 70 70 65 64 65 69 75 77 76 55 55 53 44 45 64 72 89 88 98 94 72 68 77 74 61 58 55 50 58 62 65 58 51 44 41 36 33 33 32 30
38 42 54 62 58 58 68 79 90 78 72 83 76 64 74 64 54 49 51 64 72 90 88 97 86 67 48 44 54 51 54 54 39 47 55 56 62 55 44 40 38 35 33 29 27
40 43 48 57 66 64 61 64 75 76 79 68 63 68 68 78 72 68 68 79 69 88 81 88 86 64 62 59 58 58 56 50 47 46 50 49 50 54 45 37 34 32 29 26 25
43 44 49 49 63 78 79 73 74 86 97 84 80 83 89 90 78 78 78 80 75 89 88 79 80 71 60 58 58 57 56 49 52 51 49 48 44 46 47 38 30 27 25 24 23
43 44 42 50 65 70 81 87 88 89 97 96 96 93 94 98 98 98 97 92 90 85 80 90 74 72 72 64 55 60 57 51 52 52 52 45 36 35 40 39 32 26 24 21 20
42 44 46 53 58 67 66 72 76 84 95 95 92 86 96 98 93 98 97 86 90 91 91 84 82 76 80 74 67 65 60 56 53 52 54 52 50 31 38 40 36 28 25 24 23
42 44 45 52 60 63 58 64 74 78 96 98 90 90 96 91 93 89 94 94 90 87 84 91 87 90 92 81 75 78 74 62 55 54 66 45 50 38 33 29 37 35 31 29 28
39 44 45 46 53 60 63 68 71 74 88 94 94 91 83 80 85 88 89 91 96 94 95 93 95 95 91 89 80 81 80 85 78 72 67 41 48 39 31 28 27 29 34 33 33
34 45 43 45 46 51 67 71 65 75 83 80 84 78 81 82 87 94 98 97 97 93 97 98 98 97 93 91 84 80 72 77 67 71 58 45 49 41 34 27 26 28 29 30 31
30 44 44 42 46 54 64 66 73 76 76 74 74 82 76 83 83 96 96 97 96 95 98 96 98 98 97 94 88 86 83 65 68 50 64 50 35 33 33 33 33 29 29 31 30
28 45 47 44 47 52 55 60 65 70 73 68 73 73 76 74 78 81 85 92 91 90 85 86 97 98 98 95 89 82 75 80 77 70 57 45 38 35 32 31 30 30 28 32 33
30 47 49 45 53 51 56 56 54 58 58 61 63 66 67 67 66 65 70 75 76 79 82 82 83 97 98 98 90 82 83 76 72 66 72 53 40 31 30 30 30 30 32 34 36
34 54 49 46 57 51 51 50 52 54 57 56 55 56 58 58 61 59 63 63 66 67 73 78 80 93 94 87 85 91 87 83 87 76 62 62 54 38 36 35 37 36 37 39 40
39 45 52 50 63 53 50 51 52 55 55 53 56 56 56 54 61 62 61 61 61 63 63 63 77 90 85 88 84 83 80 82 79 80 82 77 59 48 42 41 39 41 44 46 48
51 52 58 58 57 59 54 53 57 52 53 53 53 54 58 59 56 60 61 62 59 57 56 55 60 73 78 73 72 78 74 69 67 76 65 59 55 47 44 41 45 47 52 53 53
67 53 56 69 63 62 58 56 55 59 61 58 60 61 64 68 64 60 60 59 62 57 53 56 64 59 58 63 64 62 64 65 66 64 66 53 47 45 41 43 49 55 58 58 55
63 61 57 57 63 64 67 68 66 67 65 62 62 61 61 65 63 68 56 55 54 54 54 51 66 66 60 56 59 59 57 57 61 63 59 56 50 43 41 43 53 62 58 57 57
46 66 59 61 61 63 74 72 72 69 67 65 67 67 70 76 72 71 63 55 51 47 49 55 66 67 69 59 57 61 47 49 51 49 49 53 41 41 42 46 56 63 61 59 57

GFSSW_prec_cthk_039.txt.gz
RH
39 44 50 55 59 63 62 65 65 63 60 62 62 61 80 89 74 49 60 49 51 47 46 36 37 55 72 84 82 89 89 93 87 80 64 73 71 54 48 40 37 45 45 48 52
48 48 54 68 85 84 79 81 80 73 73 69 67 61 74 78 86 60 49 61 60 55 51 37 39 50 71 80 92 94 90 80 75 73 77 74 72 61 48 43 40 41 45 53 54
37 40 47 62 79 97 88 81 81 81 73 68 73 73 77 72 69 73 44 59 69 69 53 41 40 50 56 72 89 89 75 75 78 81 89 85 76 69 54 47 40 37 37 42 47
39 47 53 64 74 95 87 83 90 80 75 72 75 84 84 75 64 75 68 52 74 74 71 44 47 54 54 58 71 78 76 76 78 89 89 86 77 70 56 48 39 36 32 37 42
41 42 48 61 71 92 83 69 83 87 76 82 88 91 95 85 65 57 69 47 61 64 66 50 43 52 54 54 65 69 71 75 80 82 82 86 80 70 63 51 41 40 36 33 39
38 43 44 60 77 78 73 70 79 84 74 68 91 97 97 92 72 59 62 63 62 75 65 59 44 47 50 53 54 60 70 75 74 73 74 82 79 74 62 51 43 43 38 33 32
40 44 46 50 54 59 63 76 81 84 76 64 68 87 92 85 81 71 69 74 83 76 85 59 53 54 53 59 53 62 67 73 76 67 68 71 73 71 63 51 44 40 38 33 33
38 43 52 52 51 49 54 63 76 72 73 62 58 69 65 57 80 76 68 85 86 80 97 85 65 56 58 62 67 66 66 76 67 70 67 65 60 56 54 49 42 38 35 34 32
38 43 55 67 55 55 53 55 58 68 64 64 62 58 59 55 58 73 79 85 81 91 96 90 79 57 57 67 72 80 70 68 63 62 66 66 58 54 47 43 39 38 36 34 32
41 41 56 71 63 59 60 66 65 63 63 62 66 69 62 60 56 51 67 88 83 94 98 87 84 71 62 63 64 57 55 58 57 59 65 66 60 59 53 47 41 38 36 34 32
47 43 48 58 69 64 62 68 72 62 60 69 66 68 63 57 57 49 58 92 89 87 87 92 89 64 39 58 54 54 59 58 55 54 62 59 63 61 58 51 44 39 36 34 33
44 52 46 47 67 70 64 63 66 68 65 58 51 48 59 55 61 49 54 88 88 71 77 90 83 68 62 57 60 61 62 58 56 53 57 55 56 61 59 52 45 40 37 35 33
38 48 50 49 58 71 64 69 79 91 97 85 68 66 67 62 60 56 56 82 82 87 91 93 81 79 72 66 62 57 54 56 54 57 58 49 48 49 52 52 47 44 35 33 31
34 42 47 54 58 65 63 66 74 83 97 98 92 91 78 71 67 62 55 64 83 92 95 92 88 74 72 65 58 56 51 57 55 56 63 51 48 37 41 43 47 44 37 31 29
31 40 45 52 54 59 58 62 74 84 95 93 97 95 94 94 72 66 64 72 76 97 87 84 78 75 67 61 61 60 59 63 63 61 58 56 54 39 38 40 40 41 36 31 26
28 38 42 46 51 60 62 55 72 83 97 98 97 98 98 98 98 91 91 79 77 93 94 82 84 86 78 71 64 62 64 67 69 71 74 55 55 43 41 34 35 40 38 37 27
25 35 41 41 50 58 63 65 71 77 85 95 96 94 90 93 96 95 91 85 81 96 97 95 93 87 88 83 76 71 71 88 87 83 70 46 52 42 35 37 34 36 37 38 33
25 33 41 40 47 54 62 65 67 72 83 85 84 84 91 93 96 93 89 86 84 78 85 87 91 91 86 80 78 79 76 81 84 81 66 48 52 40 30 35 35 30 32 36 41
25 34 44 41 45 52 56 61 72 77 78 77 75 81 84 90 96 97 96 91 90 82 82 87 87 83 80 81 79 83 82 73 78 68 76 53 41 37 34 34 39 32 30 32 36
28 38 44 45 46 50 49 54 63 64 68 75 73 70 75 79 87 91 96 94 94 87 81 86 90 90 89 89 84 84 82 91 91 88 73 61 47 39 35 33 36 39 34 32 33
40 45 47 44 52 50 55 52 52 54 53 63 71 68 64 66 66 76 82 89 89 87 79 84 89 97 98 96 93 94 91 85 82 85 83 60 49 37 35 33 33 34 37 36 39
50 53 49 51 55 52 53 50 51 53 53 52 54 60 61 60 62 63 69 74 79 88 91 87 91 98 96 95 92 90 89 82 88 83 74 73 56 39 35 34 33 32 33 36 38
47 54 53 57 61 51 48 52 55 56 52 50 52 54 52 53 60 60 62 61 64 72 80 80 87 96 98 95 91 91 86 79 76 77 78 73 55 46 44 39 37 38 40 41 44
49 64 61 59 62 59 55 55 58 53 50 49 50 52 56 56 53 61 63 62 60 62 63 65 73 80 81 77 80 85 83 86 95 96 77 74 64 58 55 50 48 45 47 50 51
48 65 69 65 64 64 60 60 59 58 58 55 57 58 63 64 63 63 62 60 60 56 55 58 65 65 66 71 75 76 81 81 83 75 76 66 63 56 52 49 46 47 50 55 54
46 60 77 72 65 66 68 68 70 67 66 62 63 59 59 69 68 65 61 57 59 60 56 57 66 62 60 60 64 66 64 66 68 67 65 66 63 50 48 46 48 48 52 57 56
38 49 75 81 71 67 74 77 75 72 68 70 70 66 68 73 72 71 67 58 56 56 55 57 61 63 69 61 60 62 58 54 53 54 58 66 57 51 55 48 44 50 56 62 60

GFSSW_prec_cthk_042.txt.gz
RH
33 31 35 44 52 65 86 85 87 91 78 65 60 66 65 96 93 65 42 50 55 48 51 37 41 70 75 86 79 88 91 86 86 83 75 73 69 57 50 47 44 44 44 47 48
36 38 42 49 52 69 95 90 86 87 84 77 68 67 62 72 91 84 53 47 55 57 52 41 36 58 78 82 87 92 80 74 70 76 82 81 76 67 60 53 51 47 48 51 52
36 35 39 49 61 70 94 89 85 85 87 84 74 69 72 72 78 80 83 47 57 69 55 52 38 52 67 83 87 83 70 72 77 83 86 88 82 73 63 52 52 48 52 56 56
34 40 47 53 58 75 86 81 74 89 79 78 73 75 86 74 77 74 82 74 60 68 71 47 44 55 58 69 80 87 84 81 83 87 86 89 89 77 67 54 52 46 42 48 56
36 43 48 49 55 57 69 72 66 81 81 77 81 85 93 81 72 71 66 79 65 81 81 49 45 54 57 57 72 80 81 88 90 91 90 88 88 87 70 58 54 48 43 41 45
33 46 43 47 47 46 53 71 75 82 77 71 86 93 94 85 74 68 63 68 62 88 90 63 43 49 53 55 62 71 82 86 89 90 91 93 83 88 69 61 58 50 47 41 41
33 39 47 49 45 45 54 62 75 77 73 64 81 95 89 92 84 73 64 63 82 96 91 74 49 49 50 53 55 59 80 84 78 80 82 87 91 89 73 64 62 56 46 41 39
34 41 47 56 49 48 47 51 62 66 63 58 58 79 78 85 90 82 67 77 87 96 93 81 58 52 54 56 57 61 66 78 68 73 78 79 77 82 71 67 62 57 49 42 38
42 40 51 58 52 51 50 48 48 58 60 56 60 67 65 70 85 82 69 70 88 87 97 84 70 62 57 59 64 64 64 61 66 68 72 70 70 78 74 72 62 59 51 44 40
41 45 50 52 55 52 57 54 48 48 51 57 60 60 61 64 72 76 79 73 86 87 98 95 77 69 60 61 63 53 56 50 57 66 67 68 70 71 64 57 53 55 50 40 39
38 47 49 50 60 56 60 65 59 45 52 56 61 62 56 59 67 69 74 83 93 97 96 99 89 60 54 59 54 55 58 61 59 64 66 64 67 69 64 56 48 44 42 38 36
29 41 52 46 56 61 62 67 73 68 51 48 50 57 54 60 70 70 76 88 95 95 97 98 83 74 59 58 57 59 61 63 61 61 64 65 62 65 64 58 52 47 42 40 37
24 39 46 46 50 56 64 72 83 87 84 67 51 54 62 61 67 72 85 96 91 90 97 96 84 77 67 61 57 57 58 61 59 59 61 58 57 58 54 54 54 50 46 40 36
20 33 45 46 51 53 60 70 75 86 97 96 80 60 57 63 66 75 86 97 94 94 93 88 81 77 68 59 58 60 57 56 60 62 65 54 61 45 47 47 51 53 48 44 38
19 29 43 44 51 53 58 61 75 83 97 97 96 80 54 62 63 70 81 89 96 92 86 91 79 77 74 63 60 59 55 55 57 61 61 58 59 46 41 42 40 44 46 43 42
18 28 42 42 51 56 60 58 75 78 94 97 98 94 74 65 58 64 77 87 88 87 87 94 91 90 84 70 66 67 63 63 66 67 70 56 58 48 43 34 35 37 39 43 43
24 28 41 41 49 57 62 64 72 77 84 90 97 98 93 74 61 56 61 82 91 98 94 98 97 87 80 73 68 66 67 80 81 81 64 57 65 41 38 35 33 37 37 39 41
30 30 42 41 47 55 60 65 67 75 88 87 92 97 99 96 76 69 76 87 91 92 95 93 94 92 79 75 69 67 61 68 72 77 65 57 59 41 33 31 33 37 38 38 39
28 35 46 47 45 53 57 61 60 75 76 81 83 92 99 98 96 88 74 77 74 79 89 87 86 86 84 80 78 76 73 63 68 67 72 58 45 36 34 30 32 36 39 34 35
30 41 50 51 49 53 55 55 60 64 73 75 74 74 83 92 97 96 90 80 77 73 74 78 83 86 89 92 84 75 69 78 83 83 74 61 57 45 37 34 33 35 36 38 36
35 48 52 54 55 51 55 55 55 53 64 72 68 64 67 75 83 86 90 87 83 82 78 74 75 83 85 86 79 80 83 79 81 82 83 72 56 44 42 36 34 35 37 47 40
38 54 55 61 59 53 55 53 53 54 54 56 62 61 60 60 65 75 81 80 85 85 87 82 92 92 88 84 85 81 82 80 91 91 86 80 62 48 44 41 39 37 38 46 45
39 51 57 64 65 52 50 54 56 54 53 53 54 53 53 56 61 61 63 73 84 82 84 82 90 97 97 96 93 92 87 83 84 87 85 81 62 53 47 42 44 42 39 38 43
40 52 57 65 66 64 57 54 61 55 52 48 49 52 53 52 56 61 61 61 65 74 80 78 83 85 84 77 80 91 90 88 87 92 76 75 64 58 53 49 47 48 45 44 47
42 53 66 66 69 68 63 59 61 61 55 54 54 57 60 61 60 62 62 62 64 62 66 71 78 78 78 79 79 80 82 86 88 79 82 66 70 65 62 61 57 57 53 54 54
37 52 65 72 74 71 72 68 62 64 61 62 60 62 62 68 67 66 61 61 61 60 58 61 68 66 69 68 71 75 75 81 82 84 80 77 70 67 66 63 58 59 52 54 57
36 51 70 67 76 80 75 77 74 72 68 67 67 66 67 70 71 72 68 60 58 61 63 62 63 63 64 61 61 65 57 61 64 66 66 72 55 58 59 57 58 56 51 52 57

GFSSW_prec_cthk_045.txt.gz
RH
28 33 32 39 44 49 63 90 93 92 91 95 80 62 61 80 97 94 65 41 42 50 56 37 44 62 80 94 92 87 91 82 76 69 67 68 64 59 49 43 45 43 41 38 35
30 35 39 43 41 42 65 95 91 86 92 89 83 74 64 71 86 92 85 46 45 50 60 45 41 58 74 87 94 93 94 74 67 68 70 72 72 68 58 48 47 49 44 46 42
32 37 43 46 45 44 62 84 84 83 82 81 78 79 77 69 77 84 93 67 48 58 66 62 41 54 75 80 86 95 89 78 77 76 76 75 79 75 65 53 52 59 48 49 49
33 41 45 46 42 39 41 59 70 66 78 78 78 79 90 85 78 89 91 87 50 59 82 65 49 53 66 84 79 84 85 84 85 77 77 79 84 81 71 60 54 55 67 53 51
35 38 41 42 38 42 43 47 64 68 78 72 73 83 94 93 74 75 83 88 60 59 78 67 47 49 60 66 78 80 79 87 85 82 86 85 87 89 74 65 57 53 62 57 55
36 39 43 44 41 45 49 51 60 74 72 68 80 90 93 97 84 83 75 85 71 56 87 75 46 51 61 58 71 79 83 89 89 86 90 89 89 92 75 70 64 58 58 56 51
42 38 44 49 44 46 50 53 58 65 62 59 70 84 91 94 84 77 81 78 81 70 85 82 57 57 57 56 61 71 87 93 92 88 92 93 95 93 79 75 71 67 66 55 51
44 47 46 53 44 49 50 47 49 54 52 53 61 81 82 89 88 80 75 79 80 76 93 95 72 56 56 53 60 67 80 94 89 89 91 91 83 89 86 79 76 70 71 65 56
43 49 48 47 51 51 56 50 47 47 49 48 55 71 74 87 92 82 75 83 79 79 95 98 81 67 57 59 64 70 69 75 81 79 80 81 77 77 84 81 74 71 63 61 57
37 44 49 46 54 51 57 62 51 47 45 50 55 62 63 78 88 78 69 78 88 89 98 95 80 74 62 60 57 56 58 59 63 71 79 80 73 74 81 79 73 69 65 59 56
26 38 47 44 50 60 60 64 61 53 52 51 57 57 53 64 73 75 68 73 98 98 98 95 79 71 59 53 49 51 53 58 57 64 72 78 75 74 80 82 72 68 65 61 57
23 32 46 48 43 56 63 66 71 62 57 46 52 54 53 61 70 78 68 80 95 98 97 96 80 69 59 54 52 52 54 55 56 55 69 76 76 72 75 72 72 61 55 56 56
33 24 45 46 46 53 59 69 79 82 79 62 52 55 62 62 70 76 69 80 89 98 95 96 83 72 64 60 56 56 54 55 56 57 68 70 72 68 62 65 68 59 54 52 50
38 21 39 45 47 54 60 68 74 83 97 92 62 61 63 71 74 78 80 85 98 96 97 98 89 76 65 66 61 62 57 58 60 66 71 66 75 57 55 58 58 57 52 48 46
34 19 35 44 47 55 60 65 73 86 97 97 80 57 63 76 74 86 92 96 97 94 96 98 93 83 70 63 57 58 55 58 61 63 62 59 66 50 47 48 48 46 47 50 48
28 23 34 43 49 55 61 62 76 80 92 98 85 63 63 77 76 87 82 97 97 96 94 98 91 85 76 66 59 60 61 63 65 64 72 58 59 46 42 40 39 37 39 47 48
23 31 36 42 50 55 63 68 77 80 87 98 91 66 59 69 75 79 84 94 98 98 97 97 90 82 80 71 63 62 65 79 80 77 69 54 57 32 34 36 37 37 34 37 40
22 35 40 47 47 55 62 67 72 75 93 93 94 81 62 62 67 71 78 89 95 92 89 99 96 88 81 72 69 72 69 74 75 79 68 56 52 34 30 33 34 35 32 33 37
27 37 44 52 48 53 58 64 67 73 78 92 99 99 84 63 59 61 66 78 88 86 89 93 96 89 90 83 76 75 74 67 69 66 67 54 40 29 28 33 34 33 33 34 37
32 40 46 53 54 54 56 57 64 71 73 76 83 87 91 76 60 71 73 75 83 82 85 84 92 90 82 76 73 71 67 74 76 73 70 53 50 38 33 33 36 37 33 35 38
38 46 49 55 60 55 57 57 59 66 72 70 69 76 85 95 82 74 72 70 72 71 82 81 78 88 87 81 81 78 82 77 74 71 69 66 50 41 39 39 39 38 36 35 37
41 49 55 60 61 61 56 56 58 59 63 68 66 64 69 78 87 85 84 72 69 73 76 73 77 85 85 82 83 84 82 79 80 75 73 71 57 45 47 44 43 43 42 41 42
41 49 60 65 64 60 56 56 59 58 58 58 60 59 60 63 70 79 80 82 79 80 81 78 86 90 90 87 86 87 86 78 74 74 76 79 63 49 50 50 46 48 47 47 50
40 49 59 68 65 65 62 58 61 58 56 55 56 56 55 59 63 66 67 81 86 86 86 82 84 85 87 81 84 87 86 87 84 89 77 69 66 62 61 57 53 52 50 50 48
35 46 55 64 66 67 67 67 66 62 59 55 55 58 57 57 58 66 65 66 72 83 89 87 88 87 85 84 86 88 88 86 88 79 84 66 68 65 62 60 58 60 59 58 51
31 45 57 58 64 73 72 74 69 66 66 63 66 65 64 69 66 64 63 63 66 68 71 79 85 78 79 78 79 79 78 79 79 80 77 74 70 69 68 63 59 59 58 58 61
29 45 53 58 62 73 77 78 71 66 67 70 73 70 70 69 70 72 66 61 59 62 66 66 70 69 70 68 65 66 59 63 67 68 70 82 60 68 65 65 66 67 59 61 59

GFSSW_prec_cthk_048.txt.gz
RH
26 31 35 36 34 36 36 53 81 92 89 89 89 93 71 61 79 97 91 63 50 51 57 45 45 52 74 90 90 98 90 83 74 70 59 57 58 56 48 43 43 49 44 37 35
27 33 37 39 38 41 39 46 65 77 83 90 89 86 82 68 74 90 97 80 53 59 64 55 42 52 65 87 98 96 95 80 70 70 68 64 65 64 55 49 49 48 49 52 42
31 35 40 41 38 41 40 39 53 63 73 72 74 75 76 82 78 75 90 92 59 67 71 64 46 49 61 71 88 97 81 83 79 75 76 71 72 71 65 56 50 47 44 56 56
34 36 41 41 40 44 44 42 46 51 59 69 70 72 74 86 84 75 91 93 71 66 77 75 56 51 56 64 73 86 92 88 86 83 78 75 75 75 72 62 56 48 47 53 58
44 36 43 44 37 42 50 47 53 57 64 72 65 72 80 87 89 81 88 90 83 68 81 75 64 51 52 58 70 81 83 83 90 88 85 83 81 81 76 67 60 52 52 57 60
45 48 41 46 42 39 50 50 53 54 60 62 67 84 92 91 93 76 81 85 85 72 74 81 70 55 52 56 66 72 82 84 89 90 89 86 80 83 77 72 64 57 57 59 63
39 46 52 41 46 43 48 47 50 50 47 51 62 76 89 95 96 79 79 84 88 70 77 84 74 59 54 59 68 73 86 89 89 90 91 89 84 80 77 78 71 63 61 61 63
32 41 49 48 45 46 50 49 45 49 42 43 53 81 83 87 93 95 81 74 88 65 66 85 84 57 65 66 62 77 85 97 83 91 93 88 80 78 79 84 76 70 66 63 64
32 35 46 48 46 48 50 58 47 48 45 46 51 68 79 84 89 93 80 86 90 65 80 95 86 65 61 66 71 73 81 84 95 88 89 86 84 80 81 88 81 78 71 67 64
43 29 40 51 45 55 51 63 56 52 49 47 52 60 69 83 86 79 82 94 97 75 93 98 94 76 68 64 59 66 64 65 73 81 80 82 78 76 80 86 84 81 74 68 62
39 32 35 51 45 52 57 62 66 57 58 52 54 56 60 78 90 76 79 91 98 82 94 96 98 82 70 56 52 51 56 62 64 72 81 83 82 79 81 85 90 81 73 66 62
38 42 27 47 47 49 59 63 79 73 61 51 52 51 52 66 73 75 78 91 97 92 96 98 96 89 79 57 54 55 55 59 58 61 72 78 81 81 77 72 84 80 72 67 63
37 44 25 47 46 50 56 67 78 83 86 64 52 52 58 63 67 74 80 96 97 90 98 97 88 89 79 64 57 57 58 59 59 60 65 69 79 76 72 70 73 79 72 67 64
37 42 21 45 47 52 59 66 77 85 97 93 57 59 58 66 69 75 79 95 97 98 98 98 89 80 80 72 61 59 58 55 58 61 71 63 75 64 62 63 71 66 74 65 62
37 37 22 47 47 55 59 65 72 88 97 99 82 56 64 74 72 78 75 86 93 95 97 98 91 77 75 73 58 61 59 57 64 69 66 64 72 52 51 56 52 60 61 60 59
28 25 27 46 48 55 62 62 78 84 96 99 67 60 71 76 83 84 83 86 97 97 97 98 95 85 74 72 59 60 61 68 69 71 77 67 67 48 47 43 46 50 57 56 57
25 25 36 47 47 54 64 67 79 86 90 97 78 57 66 75 82 84 87 95 94 97 98 99 97 91 77 69 63 58 61 76 77 78 74 60 59 40 36 36 40 42 45 50 42
26 32 42 50 51 55 60 66 77 83 95 91 78 58 68 76 74 78 84 95 93 90 98 98 98 94 83 68 66 63 56 65 68 75 67 55 52 37 31 33 35 36 39 42 45
31 39 48 52 56 53 58 64 68 80 89 95 93 81 63 67 67 64 73 86 90 88 87 94 93 88 85 75 63 65 68 56 61 61 63 51 39 29 27 27 30 33 34 37 40
35 43 48 53 58 58 57 61 74 78 81 95 99 92 72 65 57 61 62 77 88 86 81 88 94 87 80 76 68 63 59 68 68 68 67 50 45 38 30 29 29 33 35 35 36
39 47 50 56 59 60 61 62 67 75 77 78 86 87 77 62 58 59 63 73 80 83 79 80 84 89 87 84 81 76 80 77 74 71 68 58 44 34 36 35 33 32 34 36 38
43 50 54 61 60 63 62 60 62 67 74 75 72 80 88 88 80 74 75 74 78 71 80 80 86 93 93 90 85 79 77 72 76 73 73 69 52 37 37 43 42 38 36 37 39
42 51 57 63 63 62 61 59 63 61 64 69 72 68 72 83 83 75 74 73 72 69 67 77 87 93 93 89 82 83 82 79 77 77 72 77 57 41 43 50 51 45 42 45 44
42 49 57 63 65 64 65 62 65 63 62 61 63 65 63 69 71 82 79 80 74 70 69 73 79 77 77 70 73 80 77 80 81 87 75 63 58 50 59 60 60 58 52 48 49
34 42 53 60 63 67 69 69 64 62 62 62 61 63 64 63 68 71 69 81 88 85 86 83 86 83 79 76 83 84 82 84 83 78 81 64 66 67 68 68 65 59 59 59 58
27 41 51 55 60 67 72 76 71 68 68 68 68 65 64 69 67 68 69 70 73 84 95 90 92 85 83 78 84 86 82 86 85 84 87 77 69 74 71 71 68 62 60 58 56
29 41 46 49 57 66 69 75 74 70 69 74 69 67 71 75 77 75 70 68 67 69 75 77 83 83 80 74 72 73 63 67 72 73 74 80 61 67 69 68 68 68 64 61 61

GFSSW_prec_cthk_051.txt.gz
RH
32 29 31 34 35 32 36 34 39 49 66 80 86 85 85 84 73 66 97 90 71 76 62 51 48 63 80 78 80 93 91 86 75 70 67 61 53 47 48 48 51 49 48 49 51
33 33 31 37 36 35 38 37 39 44 51 67 84 84 84 87 78 73 89 96 79 86 71 56 51 53 73 87 86 88 90 83 75 76 74 70 60 56 53 50 52 49 43 47 52
37 38 34 38 38 38 42 47 42 41 41 51 61 67 77 80 84 75 81 97 90 86 76 68 63 52 60 79 93 96 89 84 80 78 80 74 66 64 58 53 55 52 45 49 51
37 43 41 40 40 35 44 51 48 49 48 52 55 63 67 73 80 78 76 96 95 81 86 72 70 58 54 62 75 91 82 86 91 84 82 77 69 68 64 56 54 53 48 48 53
35 40 47 40 42 37 40 54 51 53 50 53 57 57 65 72 75 84 75 91 95 82 86 82 71 62 51 56 62 73 83 90 94 90 85 81 76 70 66 58 55 54 50 50 52
33 35 40 51 42 44 40 51 51 50 46 45 51 59 77 82 72 79 80 87 88 78 84 90 71 65 52 53 57 64 74 82 88 90 91 85 81 75 67 65 57 57 56 55 55
40 35 36 46 52 46 43 50 50 48 43 39 50 70 81 91 84 83 85 87 90 78 75 91 84 67 57 55 56 64 75 80 85 86 89 93 84 70 73 69 63 59 58 59 57
38 40 32 44 48 51 47 54 52 51 46 41 45 73 83 93 89 91 91 92 90 80 74 92 89 72 63 55 55 62 72 85 92 89 92 92 79 75 76 74 68 66 60 59 59
39 38 34 40 51 48 53 55 57 54 50 46 46 61 80 87 92 90 91 85 84 84 73 94 96 81 70 64 67 69 71 79 96 89 91 82 79 79 77 78 71 71 67 63 59
38 37 41 33 50 47 58 57 66 58 54 48 46 58 70 86 91 94 87 84 80 88 82 99 96 83 74 69 63 66 67 72 88 90 86 83 78 81 76 76 75 73 70 69 64
35 37 44 29 49 47 57 62 73 66 61 54 46 52 64 76 86 89 82 98 96 77 95 98 91 75 70 66 62 63 64 69 76 82 91 85 82 79 75 72 75 75 70 68 68
35 37 42 30 49 50 56 64 77 78 66 54 47 48 55 74 78 81 93 98 97 83 96 99 94 79 74 62 60 59 64 65 65 72 79 86 84 74 72 70 73 73 76 70 68
32 35 42 29 48 50 57 65 76 84 87 66 49 50 55 67 70 79 92 97 96 87 94 99 92 86 80 69 61 58 55 59 58 64 74 79 80 69 66 71 70 69 74 72 69
31 35 39 27 47 49 60 67 75 83 96 85 55 57 59 64 72 72 91 96 97 89 93 95 92 93 90 80 66 62 52 51 54 64 67 62 66 57 60 64 63 62 71 74 72
32 33 27 33 45 54 62 70 77 88 96 96 71 62 64 70 70 72 88 91 96 86 93 97 92 89 90 85 71 60 55 54 55 60 61 60 66 51 50 54 54 62 69 76 75
26 24 23 39 46 53 64 69 86 86 97 93 61 67 78 73 76 78 92 91 95 95 92 97 93 92 87 89 74 58 54 59 62 62 73 63 67 48 47 43 48 57 57 66 74
24 27 33 42 49 53 62 74 86 89 96 91 67 71 76 85 80 92 89 95 98 98 98 98 95 87 84 87 76 64 63 77 78 76 72 60 65 45 44 42 41 44 52 59 61
28 35 40 47 52 54 61 70 86 89 97 85 58 71 82 84 79 78 89 91 89 92 99 97 97 88 79 82 76 68 60 64 72 72 64 58 60 44 38 38 40 44 46 46 52
31 40 44 49 56 56 58 65 79 90 94 89 70 73 74 72 68 66 77 83 85 87 96 96 97 92 84 79 74 69 65 54 59 60 59 51 46 36 33 32 34 36 39 38 38
33 40 46 51 55 58 61 66 80 89 92 91 92 78 72 69 67 71 74 77 90 89 84 88 92 92 87 78 72 67 61 63 61 61 56 45 42 34 33 33 32 32 33 34 35
36 41 48 55 57 60 66 67 72 85 89 91 96 78 69 57 57 66 67 82 87 87 80 82 82 92 89 85 76 69 72 69 64 58 55 50 38 37 36 35 36 34 31 31 35
37 42 50 58 61 61 67 65 66 76 81 83 86 92 72 64 60 69 75 86 87 85 82 82 88 90 89 80 78 71 65 64 70 66 64 62 52 38 38 36 34 37 37 34 33
37 43 51 58 60 64 64 65 65 65 73 78 76 83 90 90 85 77 72 81 84 79 80 76 83 91 92 86 83 83 83 78 74 71 72 68 53 40 40 41 40 40 43 42 39
36 42 50 57 62 67 67 71 68 66 68 69 73 69 76 85 82 85 82 80 79 77 68 63 79 78 79 73 78 84 80 78 76 80 73 56 52 46 47 45 45 47 47 50 46
31 36 45 55 62 65 70 72 67 62 64 66 66 68 65 70 80 83 78 80 80 78 68 67 75 77 74 72 75 74 74 77 77 71 72 50 51 47 56 54 55 56 57 56 53
26 33 43 49 57 65 69 73 72 65 63 68 67 63 63 68 67 70 74 79 84 86 88 81 87 79 79 75 77 78 79 83 81 79 77 72 65 72 63 66 65 64 65 62 59
27 31 38 44 55 62 65 67 72 71 70 65 71 64 70 72 73 72 68 68 68 75 86 93 92 89 85 80 75 73 67 67 72 75 76 79 65 61 59 58 63 65 66 64 62

GFSSW_prec_cthk_054.txt.gz
RH
38 32 35 32 32 33 35 35 37 38 40 50 66 82 87 87 92 82 70 84 82 62 72 65 55 67 76 72 68 81 77 75 78 68 66 64 60 53 46 41 40 44 51 53 62
35 38 37 36 35 34 36 40 40 40 40 44 48 74 80 85 86 81 73 84 91 73 81 67 61 61 92 80 73 83 81 69 80 78 71 71 65 59 52 45 45 41 41 51 57
31 40 40 40 37 33 35 38 42 45 43 42 43 51 67 74 84 79 70 86 95 88 83 79 69 59 65 92 80 75 76 80 70 77 79 74 72 63 58 54 50 46 42 46 54
34 33 41 41 39 37 33 43 46 48 48 48 47 48 57 66 76 82 78 77 96 92 90 91 84 69 58 89 86 73 79 80 78 81 86 78 74 71 65 62 55 53 48 47 51
40 40 33 38 46 40 37 41 48 50 47 46 46 48 55 65 71 72 83 83 97 95 94 94 86 70 51 66 90 74 81 86 82 83 86 84 79 75 69 66 60 56 54 51 50
40 40 33 35 46 48 40 41 49 48 45 43 42 54 58 66 63 66 80 87 96 94 96 96 84 71 55 52 62 80 88 89 84 91 88 86 86 81 69 70 67 61 55 54 53
40 39 38 32 40 50 44 44 53 51 47 43 42 60 75 75 75 65 71 86 94 93 96 97 81 67 59 55 56 68 74 81 85 83 82 91 86 75 75 72 70 64 61 55 55
39 38 40 38 36 50 49 50 55 52 50 45 43 53 77 86 87 75 74 86 90 93 96 99 88 73 67 61 54 67 69 78 80 86 85 92 70 68 79 73 72 66 64 62 57
38 38 41 44 35 51 49 57 60 57 51 48 46 55 74 84 91 86 87 89 92 83 95 96 90 78 70 68 61 65 71 74 87 84 86 85 80 79 79 75 70 70 66 64 64
38 39 41 46 32 50 50 61 66 64 53 47 46 58 68 86 97 88 92 97 93 83 89 94 94 84 74 67 55 52 59 68 75 77 85 87 84 75 76 76 71 70 67 66 64
36 38 40 45 31 49 52 62 74 73 58 50 49 55 66 84 85 95 92 98 91 86 86 99 98 79 69 63 56 54 54 63 66 72 87 87 85 75 73 74 71 71 67 66 65
34 35 38 43 31 50 52 61 76 79 66 45 49 53 60 81 89 94 92 97 98 90 88 98 96 84 76 68 61 56 54 55 62 73 92 90 83 74 67 68 70 69 70 67 67
33 34 37 38 39 48 53 62 76 81 82 52 50 56 64 82 86 85 88 91 84 87 88 94 93 88 77 74 63 58 54 54 54 61 81 76 70 65 64 64 61 62 64 72 67
31 35 36 29 44 46 53 67 77 81 90 60 56 54 62 69 86 92 91 98 87 88 86 98 95 85 77 73 64 55 52 52 51 47 51 57 47 49 56 57 52 56 60 64 72
31 33 29 31 44 48 57 69 78 86 90 74 68 58 57 74 78 93 91 98 90 80 91 97 95 87 82 76 66 60 48 48 47 49 54 51 54 38 45 45 49 52 58 58 69
26 29 26 42 46 48 58 69 83 92 92 73 64 68 64 65 81 88 97 96 91 82 94 97 95 91 86 79 72 63 55 54 53 56 58 50 51 38 41 41 41 45 55 55 67
28 32 38 43 48 51 56 71 86 92 95 72 65 74 72 77 80 88 93 94 90 91 97 98 97 92 89 83 78 68 60 70 68 69 56 49 50 38 41 42 40 46 45 51 60
32 39 42 43 47 52 56 66 83 93 87 64 67 78 74 77 81 88 93 99 91 87 91 96 99 93 85 82 75 69 59 56 58 58 50 50 53 40 38 41 41 43 47 45 50
34 41 42 45 50 53 59 68 84 91 93 60 60 72 72 77 79 82 93 90 91 92 98 95 94 89 88 81 74 78 69 54 54 53 50 42 40 34 36 36 36 38 42 41 44
37 42 44 47 51 57 59 67 83 89 91 80 76 62 62 69 70 79 85 88 90 90 86 85 91 84 84 84 77 74 67 61 59 61 47 40 36 30 31 34 33 34 35 37 38
38 42 46 49 53 58 63 67 73 85 89 97 80 69 62 57 58 67 74 83 87 90 85 80 76 90 81 77 79 71 68 61 57 53 49 38 30 28 32 34 36 35 35 36 38
39 41 46 50 55 57 66 64 69 80 84 89 90 62 55 57 57 66 73 80 87 84 84 81 81 92 92 80 72 69 63 58 59 64 56 51 37 34 35 39 39 37 36 37 36
39 40 46 50 54 55 60 61 64 67 75 81 85 92 68 62 61 63 73 79 86 82 78 78 83 92 95 89 80 76 66 60 59 60 63 60 54 43 45 43 40 42 40 37 38
36 41 46 50 54 57 62 63 63 67 70 72 74 77 85 77 72 69 74 80 82 77 78 75 77 78 69 68 66 71 68 67 67 72 65 62 58 52 50 48 46 46 46 42 42
31 35 40 48 53 55 61 65 62 64 66 67 70 70 71 79 78 76 80 81 80 81 75 68 75 78 71 71 73 72 72 75 77 65 65 58 55 53 56 55 51 49 48 47 45
26 30 37 44 51 56 58 63 61 63 66 65 63 64 63 66 70 74 73 77 78 82 80 74 78 71 74 70 74 75 71 69 68 64 66 67 62 74 63 58 53 52 50 50 46
23 27 34 40 50 54 55 60 64 66 65 66 68 65 66 70 70 70 71 72 72 82 87 84 78 78 76 72 71 70 64 64 65 67 66 68 64 64 61 59 54 54 53 56 59

GFSSW_prec_cthk_057.txt.gz
RH
27 34 35 38 34 35 32 33 37 35 37 38 40 54 64 78 82 96 95 84 87 74 53 65 62 71 82 77 75 78 83 79 68 67 73 63 59 58 45 42 44 52 55 59 73
32 29 36 41 39 36 32 35 40 41 41 39 38 43 57 74 88 92 95 84 81 87 59 68 67 69 86 79 83 78 80 73 75 71 73 66 64 59 55 48 44 45 51 60 64
37 37 34 40 41 40 36 36 38 42 43 44 43 42 45 63 80 90 85 85 82 94 64 73 78 67 75 87 80 78 70 68 81 81 73 71 68 62 64 59 52 43 45 55 62
35 38 39 33 39 46 40 38 40 46 45 44 46 42 44 55 79 87 82 79 84 96 74 80 89 72 74 85 86 85 66 80 82 80 74 76 70 71 69 68 53 48 44 48 56
37 37 39 36 36 44 48 36 43 46 46 44 44 40 45 55 68 74 81 78 78 94 88 86 88 77 65 67 84 86 71 79 82 76 76 81 75 75 71 66 62 52 50 46 51
37 38 38 39 33 39 51 40 45 51 48 47 42 41 62 59 62 61 72 83 73 93 94 89 88 83 66 71 88 92 83 79 84 87 79 81 81 77 72 70 66 62 55 52 50
37 38 39 39 37 36 48 50 50 57 53 48 41 45 62 81 69 64 66 77 83 93 99 90 93 82 64 62 81 86 78 87 75 79 79 78 80 70 75 75 70 67 63 56 55
35 37 38 38 43 34 47 50 57 59 55 48 39 46 64 75 75 73 68 73 82 89 96 92 93 83 72 68 76 79 91 93 73 80 80 69 63 66 79 80 74 72 65 65 58
30 36 38 39 44 32 48 51 61 65 56 46 44 53 75 81 87 80 69 76 83 93 98 96 96 93 83 76 71 71 88 88 78 76 76 67 63 73 72 71 70 72 70 67 66
30 36 39 38 43 33 50 54 65 70 59 45 44 59 71 82 96 82 73 84 95 97 98 98 97 83 78 75 71 65 57 66 71 75 73 72 71 72 71 70 65 71 72 71 65
32 35 38 36 38 38 47 59 76 80 61 47 47 54 65 85 93 85 81 97 96 98 98 98 97 83 66 61 58 51 42 63 68 75 80 74 79 77 78 68 64 69 71 70 68
29 33 37 36 34 46 47 66 77 79 65 46 46 55 60 88 95 95 94 97 94 94 95 97 98 80 72 67 66 55 45 60 75 81 82 79 86 81 77 73 64 63 65 65 68
30 32 35 33 36 47 51 63 75 79 70 58 49 55 70 87 92 96 97 96 87 84 85 93 95 92 76 69 62 61 49 56 68 70 73 79 84 75 71 71 67 64 65 69 69
30 33 34 29 43 47 53 62 73 78 84 65 65 52 66 79 91 90 95 97 91 86 84 91 96 93 81 71 65 62 57 65 61 62 64 61 63 57 60 64 60 61 62 65 67
25 29 29 33 44 48 54 63 74 82 91 72 68 51 70 84 83 91 95 93 87 83 84 91 97 92 81 71 68 66 55 58 57 57 47 55 59 46 49 51 56 60 57 61 64
23 27 33 40 47 48 52 63 80 93 82 70 61 62 70 83 84 91 96 95 78 83 87 93 97 93 78 75 73 68 59 58 54 53 57 47 46 36 40 41 39 49 52 53 61
29 33 38 43 50 48 50 70 88 86 80 69 61 64 67 79 87 91 93 97 81 91 99 98 96 95 85 82 75 68 66 70 67 69 58 45 44 40 39 37 38 43 44 44 51
33 35 37 40 45 47 58 66 84 81 69 63 65 65 72 76 85 81 92 93 82 75 92 98 98 93 85 77 72 68 62 58 57 53 50 50 48 38 32 32 34 38 40 40 42
35 38 40 43 45 51 59 74 82 90 61 56 65 64 67 73 81 86 97 90 77 76 86 89 96 92 87 81 76 73 73 64 60 53 52 48 36 31 30 31 31 32 33 37 40
37 40 44 44 49 56 59 67 78 86 78 61 66 58 61 75 79 84 91 84 81 80 83 81 93 92 87 82 77 75 72 69 64 64 45 42 35 32 30 33 34 36 36 36 38
38 44 43 46 51 57 60 63 70 80 80 70 73 62 64 69 68 75 83 86 83 85 82 84 76 91 92 84 79 76 75 70 66 57 59 41 37 31 31 34 34 36 38 36 36
39 43 43 48 54 53 60 61 65 73 84 76 65 61 61 56 63 69 79 83 85 85 84 82 81 85 86 84 79 73 68 66 65 65 48 49 45 34 33 33 34 38 38 37 34
41 39 42 49 55 50 54 57 61 68 75 82 66 55 57 59 63 68 76 79 84 82 83 79 80 92 90 77 71 73 68 65 60 62 63 58 49 43 40 37 36 38 39 40 37
38 40 43 49 52 51 53 55 57 62 68 71 76 74 61 58 59 63 74 79 81 80 78 78 76 75 76 72 66 69 65 66 63 68 59 55 51 53 51 46 43 41 42 43 40
34 37 35 45 48 50 55 54 55 59 64 68 68 72 76 73 68 68 66 74 79 80 77 76 80 79 72 72 72 71 64 64 70 64 67 60 61 56 54 52 52 49 48 47 43
29 30 35 41 45 50 52 55 56 59 62 61 63 64 65 73 73 70 70 77 78 78 75 70 76 70 77 71 71 71 68 68 71 72 70 67 62 59 57 56 52 49 48 46 45
22 24 33 38 45 49 48 51 54 56 61 64 64 62 63 68 69 71 73 76 75 77 79 75 73 75 73 65 64 63 59 62 66 66 65 65 62 60 61 61 60 58 57 53 50

GFSSW_prec_cthk_060.txt.gz
RH
35 36 31 37 42 37 35 33 33 32 33 32 31 35 44 51 60 73 84 83 95 83 64 81 65 73 82 81 87 81 87 70 61 61 68 65 64 57 57 52 46 53 58 78 76
33 35 37 35 39 40 40 34 35 35 36 35 39 40 43 46 56 78 85 89 91 91 71 71 71 70 82 77 86 82 88 62 60 65 73 63 65 57 59 57 46 49 55 66 76
34 34 36 38 36 41 43 39 34 36 38 36 43 44 44 42 47 73 91 88 93 85 80 75 69 73 78 81 91 86 85 76 68 78 64 66 67 57 62 67 57 43 51 61 71
33 35 34 38 37 33 41 51 35 39 40 40 47 45 41 44 56 86 88 88 88 87 97 81 71 87 74 93 88 89 69 85 84 79 69 64 64 68 71 68 60 47 43 54 66
31 34 36 37 37 35 35 50 41 45 47 45 49 44 41 51 57 63 77 80 85 88 96 85 80 80 78 75 96 90 78 88 82 81 77 72 65 64 69 63 60 58 46 48 60
29 35 35 37 37 36 33 44 50 47 54 51 48 44 52 57 68 57 69 75 85 86 95 94 85 84 75 76 90 85 83 79 87 84 93 86 82 65 66 66 65 63 57 46 53
29 29 32 36 37 39 32 44 52 53 57 54 45 42 48 59 69 64 62 70 79 87 93 94 95 92 77 81 83 87 85 89 81 89 81 87 80 60 64 72 68 66 63 56 50
29 27 33 36 38 43 31 44 52 58 60 53 41 43 54 65 71 69 62 74 77 85 92 90 97 96 83 72 85 87 88 97 91 77 80 68 66 62 64 62 68 67 66 62 58
28 28 32 36 36 40 32 46 55 61 61 48 43 50 69 71 79 77 69 70 76 82 93 91 89 92 86 78 80 84 86 95 93 76 88 74 67 61 59 61 65 69 70 66 63
25 29 32 35 35 35 38 45 57 66 64 54 50 58 76 75 86 81 70 72 71 89 96 96 98 91 88 84 83 86 82 87 92 76 75 70 67 66 59 56 61 68 71 71 66
28 29 31 34 36 32 41 51 74 84 67 53 51 52 59 78 92 88 70 75 91 98 98 95 95 85 71 68 65 63 73 79 79 85 79 69 71 70 64 62 58 64 64 67 68
30 29 31 34 32 37 46 60 73 79 73 49 44 50 62 87 95 90 78 92 98 97 96 98 92 83 82 74 66 69 72 74 76 84 78 75 73 69 62 59 60 59 62 63 66
29 30 32 31 32 42 47 64 70 78 78 56 51 52 68 90 95 91 92 93 96 98 98 98 94 94 84 77 81 74 66 80 78 80 79 80 77 69 67 62 62 63 62 60 63
24 27 28 28 41 44 53 62 69 78 90 67 62 58 68 82 97 89 96 97 97 98 93 97 92 91 84 84 73 68 59 68 69 73 80 69 68 67 62 59 65 68 64 65 62
23 21 23 31 41 46 57 59 71 79 89 61 56 54 71 86 91 95 96 97 88 88 81 94 91 93 79 67 70 72 70 83 75 63 66 70 59 48 54 58 56 64 63 63 63
24 24 30 36 43 46 51 59 77 88 80 62 54 61 73 81 87 97 95 91 87 86 87 95 95 96 90 74 71 65 66 68 61 55 65 53 54 46 51 48 49 54 61 61 58
27 29 37 40 45 44 51 67 85 75 75 64 57 64 70 77 84 93 87 88 89 90 94 93 98 94 87 76 70 63 64 82 77 71 67 44 52 45 44 43 39 34 41 48 54
30 30 35 39 42 43 58 72 81 61 68 59 61 66 74 77 76 82 87 75 74 79 99 96 98 92 86 77 71 66 60 72 64 67 58 52 52 42 41 39 34 34 34 36 38
31 32 39 37 41 50 62 72 78 73 55 57 64 70 70 67 75 85 90 77 78 84 89 95 96 94 88 77 75 77 78 65 71 59 69 58 44 40 37 32 31 30 29 31 36
32 37 41 39 45 53 61 65 70 73 55 51 63 61 66 72 75 80 82 77 76 82 81 83 97 93 89 81 75 75 68 79 77 76 59 60 50 44 38 33 33 33 33 34 33
33 40 39 42 48 55 59 62 69 73 64 58 58 64 67 68 68 70 81 73 72 74 75 75 80 91 88 88 82 80 81 74 69 70 82 66 54 40 38 33 33 33 35 37 37
35 43 39 44 52 50 57 60 65 73 71 61 59 64 68 62 63 71 83 77 74 71 72 78 77 92 92 91 86 81 79 75 86 78 66 68 59 45 39 33 33 35 37 38 36
36 40 40 45 53 50 50 55 62 68 76 62 56 62 68 61 66 72 76 82 83 80 81 79 84 93 93 84 83 82 77 75 72 74 75 68 53 43 43 39 37 35 36 38 37
34 38 41 45 50 51 48 51 58 63 64 63 61 53 58 60 63 67 76 78 82 83 80 83 80 82 86 78 71 76 73 74 74 80 67 60 51 48 49 50 51 49 44 40 37
35 37 31 42 47 50 49 48 52 58 61 62 63 70 62 64 69 69 71 80 83 81 80 81 84 81 77 80 81 77 72 68 73 69 71 59 54 58 60 58 55 50 48 46 44
30 33 32 39 42 46 50 50 53 54 60 57 59 60 70 71 69 70 66 71 76 82 80 78 80 75 85 76 75 76 72 70 69 70 70 67 66 64 57 55 53 52 50 48 47
27 26 29 37 43 46 47 49 51 49 56 54 57 58 63 71 66 67 67 67 72 73 74 76 78 80 75 64 62 66 59 63 66 68 68 73 66 61 59 58 57 52 54 54 52

GFSSW_prec_cthk_063.txt.gz
RH
39 35 37 37 34 33 38 36 29 34 32 30 30 31 31 38 46 49 53 66 76 96 84 76 87 73 66 92 74 88 92 81 68 64 67 57 58 59 63 59 57 63 62 66 72
39 38 37 33 35 34 33 39 35 32 34 32 32 38 39 43 44 42 51 86 89 92 91 81 88 79 66 96 80 94 92 73 70 71 60 58 56 57 61 60 60 61 68 70 73
40 35 37 36 36 33 33 35 44 33 34 33 37 42 45 45 46 45 65 94 90 95 95 80 86 86 68 95 86 80 93 74 76 76 63 62 66 66 60 57 54 55 57 65 67
45 35 36 37 35 35 33 30 42 43 43 41 40 46 47 47 49 51 68 83 88 93 96 81 88 88 76 93 88 88 84 80 84 83 70 68 68 68 63 54 52 54 53 52 60
53 35 34 37 34 35 33 31 37 50 38 49 47 49 50 55 53 49 55 72 83 88 93 91 82 88 80 76 87 92 93 88 82 86 72 68 68 73 68 60 55 54 55 56 54
56 35 31 31 35 37 35 32 37 48 46 52 52 52 50 51 53 60 52 68 81 87 90 89 85 88 81 72 87 90 88 95 86 87 87 72 68 67 68 66 62 55 53 62 59
51 35 30 32 35 38 37 30 40 47 52 55 54 43 45 47 59 61 60 60 74 90 93 94 88 90 89 78 84 90 93 94 97 96 90 81 71 66 65 65 62 58 57 59 63
44 33 29 32 34 35 37 29 41 48 55 58 47 43 49 66 70 68 65 62 73 86 94 95 93 92 94 80 86 96 97 97 93 91 91 83 74 69 63 57 57 57 60 59 58
39 30 30 32 34 34 32 33 42 51 58 54 43 51 62 71 74 80 70 62 79 83 88 94 94 97 97 92 92 94 97 96 89 93 96 82 78 79 70 68 65 59 64 65 64
33 33 31 32 35 35 28 37 45 54 63 58 54 54 62 67 80 85 74 64 81 83 87 95 95 98 95 93 94 81 83 84 89 92 92 90 79 75 71 63 58 55 57 60 64
31 31 31 33 34 30 34 44 61 70 64 44 46 48 64 79 94 90 79 74 79 89 91 92 95 97 85 80 78 76 79 75 81 85 96 89 85 72 64 59 50 48 50 56 60
31 30 32 34 31 26 38 51 60 71 62 49 42 47 70 91 98 84 70 80 86 89 90 92 90 93 89 83 77 74 77 76 75 83 92 87 81 69 64 57 53 53 50 51 57
31 28 29 29 28 36 40 54 60 68 72 58 52 60 77 93 95 86 76 90 96 91 92 89 81 92 82 86 83 82 70 64 73 81 88 83 81 70 59 59 61 56 52 49 52
32 28 26 23 35 40 45 54 59 65 76 57 55 68 80 96 89 81 87 93 98 98 98 97 92 89 87 81 75 73 71 74 82 94 94 81 85 68 60 60 59 57 53 50 50
32 27 25 28 35 43 48 54 59 69 76 52 53 62 87 93 94 96 91 95 98 97 94 96 92 97 94 74 81 75 63 66 85 82 79 76 78 66 62 62 58 54 55 56 56
32 29 30 34 38 42 46 56 66 74 68 53 53 68 81 85 95 96 98 96 91 88 97 93 95 95 96 88 79 71 76 88 84 84 82 76 70 57 60 56 50 50 54 54 59
36 32 35 37 39 39 46 64 74 65 63 54 58 67 75 83 87 89 89 90 90 91 98 96 98 91 90 83 77 76 75 98 97 90 78 60 61 51 44 46 46 46 45 52 56
38 32 36 38 39 38 53 68 66 57 61 53 60 63 71 78 84 83 87 87 85 88 97 98 98 88 81 76 70 72 71 77 83 82 69 56 57 47 40 39 40 36 34 35 36
38 32 36 37 37 44 57 69 70 57 53 55 59 63 66 71 76 78 77 81 88 86 94 98 97 91 82 75 69 69 73 62 65 59 68 57 47 42 38 37 35 34 31 32 32
36 34 39 38 41 48 58 64 66 52 54 59 63 58 62 66 73 74 78 76 83 83 84 88 93 92 83 75 69 68 68 73 79 69 62 63 50 47 42 41 32 31 31 30 30
38 36 39 42 44 50 58 60 65 56 53 57 59 65 59 59 63 72 77 77 76 78 76 80 86 93 83 84 82 77 74 71 72 79 84 65 56 46 48 40 36 33 33 34 34
36 38 41 43 48 52 56 61 60 61 59 52 61 70 66 56 61 71 77 72 72 75 75 75 84 88 88 84 81 79 75 73 82 75 75 71 62 52 47 37 36 36 37 38 39
37 39 42 46 50 49 52 58 64 66 57 58 57 63 65 59 64 73 68 70 68 68 72 74 80 90 90 84 80 82 78 75 76 74 76 77 66 58 52 46 41 40 42 43 41
35 41 43 46 49 51 50 56 63 64 60 52 53 56 56 63 65 73 76 76 75 72 69 69 76 78 80 77 75 81 78 78 79 87 76 74 66 59 55 54 53 51 50 50 50
33 33 32 42 47 47 46 51 58 60 61 59 60 62 55 58 58 67 71 76 81 79 79 79 81 78 76 75 73 71 72 76 78 75 75 64 66 68 63 60 59 58 57 57 57
34 36 33 36 40 44 49 51 54 58 59 60 60 65 68 61 65 65 65 68 74 77 77 79 82 78 83 76 76 76 74 71 70 72 70 67 65 62 61 61 64 61 59 56 52
30 30 31 38 43 44 49 49 52 54 59 57 57 60 67 70 58 60 60 62 66 71 73 74 74 79 80 69 70 75 72 70 70 70 70 73 70 68 68 67 62 60 58 52 51

GFSSW_prec_cthk_066.txt.gz
RH
56 52 43 40 39 34 33 34 37 33 28 32 27 26 28 29 33 36 39 40 44 61 63 62 71 76 82 65 78 95 90 87 69 65 59 54 58 57 59 67 65 65 70 67 73
58 52 44 42 41 37 34 30 39 41 33 30 26 27 33 35 37 37 41 45 74 84 77 80 86 90 94 67 80 97 86 89 66 59 58 55 60 60 61 73 71 67 68 72 77
60 59 50 41 39 36 32 31 30 41 41 43 30 32 36 41 43 47 47 57 93 98 96 93 98 95 96 69 81 96 80 86 78 71 64 63 61 63 66 66 68 69 60 63 64
67 63 49 37 38 35 32 32 29 36 45 36 38 36 42 46 52 47 47 53 77 96 96 92 94 93 91 68 73 95 80 91 80 75 70 67 68 67 65 60 60 66 65 59 65
66 61 51 36 34 34 35 34 32 35 46 37 42 42 52 56 46 45 43 45 70 88 96 98 89 98 91 67 73 84 78 84 87 82 77 73 69 67 66 63 59 55 59 63 66
79 64 47 36 34 35 38 37 33 35 45 44 46 49 54 47 47 49 51 48 67 88 93 97 95 95 94 69 85 93 81 79 94 90 85 78 69 68 70 68 62 53 52 60 66
85 65 43 34 35 34 37 38 30 39 45 48 50 50 42 40 50 55 55 55 65 76 92 96 95 96 97 79 80 97 94 89 88 92 87 81 75 71 71 67 63 58 56 57 59
92 68 36 37 36 36 36 34 32 40 48 51 51 42 39 50 59 63 61 57 66 79 93 96 89 91 96 89 79 97 94 96 93 96 94 90 82 72 67 69 67 62 57 55 57
94 71 34 38 38 38 37 30 36 44 52 50 42 46 49 56 61 68 72 65 66 86 93 95 93 89 94 94 83 96 96 93 94 90 97 87 86 76 68 67 66 63 58 58 61
94 75 33 36 39 38 31 34 38 48 54 52 48 47 56 67 75 79 81 66 69 85 91 97 93 88 93 94 85 80 98 96 95 96 92 95 94 84 77 68 63 59 58 55 54
86 75 34 36 39 34 33 42 54 63 52 40 39 42 54 73 87 89 81 64 76 85 92 97 96 83 90 91 77 74 91 94 95 94 94 95 94 89 80 68 61 54 50 50 49
82 71 34 34 38 29 38 44 53 60 53 45 43 51 72 87 94 83 76 77 82 93 91 95 96 87 91 95 80 81 80 88 92 90 92 93 89 80 73 67 62 58 54 50 51
80 69 34 34 39 35 40 44 54 58 59 48 53 63 76 91 87 75 82 89 89 88 89 89 84 92 97 89 87 83 77 76 76 78 88 94 94 81 71 70 63 57 51 47 44
72 68 35 35 40 38 41 46 55 55 58 45 59 74 85 90 87 88 94 97 91 91 90 88 89 91 97 85 78 84 77 78 73 78 86 85 84 75 69 65 59 55 52 51 49
68 63 35 37 41 41 39 47 53 56 56 44 58 77 90 89 90 96 90 87 85 88 91 90 84 87 91 84 79 78 80 82 83 89 90 89 87 66 62 60 54 52 51 52 51
69 64 35 41 42 41 41 50 56 59 53 52 62 72 78 94 93 95 98 95 92 90 89 89 86 83 81 79 80 80 82 86 91 96 97 85 82 60 62 58 54 52 52 51 51
74 68 39 44 41 38 40 58 60 56 50 54 63 70 76 91 92 94 93 93 90 93 94 93 90 95 81 78 77 77 79 95 93 97 87 79 77 62 57 58 54 51 51 51 51
77 70 45 44 39 37 48 62 55 51 53 54 61 69 74 76 80 88 87 94 91 87 92 97 98 98 90 83 81 78 77 92 90 86 78 74 69 56 50 51 50 47 45 44 46
78 68 50 43 39 43 52 64 53 48 47 55 62 71 72 70 75 81 88 93 92 86 88 90 93 95 87 82 77 77 79 74 81 73 73 69 59 50 46 43 44 44 41 38 37
82 68 48 42 41 50 55 58 53 48 49 55 62 64 68 68 68 75 81 85 85 86 80 82 87 88 82 77 74 71 68 76 77 74 67 64 52 52 44 43 41 38 37 34 33
81 70 46 44 47 54 54 59 51 48 50 54 66 64 61 66 67 72 75 75 79 83 79 75 75 83 74 82 81 70 66 66 66 70 70 60 51 42 45 46 42 37 36 36 34
86 63 45 47 51 52 52 56 52 47 49 58 67 67 60 60 67 72 70 72 72 71 73 73 76 84 82 75 75 73 68 67 74 71 73 66 55 49 52 49 46 44 43 41 39
87 57 49 50 53 52 50 55 54 51 51 57 62 63 58 58 67 67 66 66 68 69 70 68 78 88 84 75 73 74 70 69 69 73 78 73 67 60 59 58 54 52 49 43 40
78 52 50 49 52 51 52 56 59 51 50 56 57 59 58 56 56 62 65 62 64 65 66 65 74 74 76 72 75 79 75 75 75 85 78 78 68 68 67 66 61 56 51 47 45
66 41 38 45 50 53 53 56 56 52 49 51 55 54 53 58 62 67 63 67 65 63 63 64 71 73 73 72 73 72 74 76 75 75 79 71 73 75 74 73 64 58 55 53 51
53 38 35 39 46 53 54 55 54 57 45 48 54 53 50 53 57 61 65 68 70 72 72 72 80 75 79 72 72 73 72 72 73 74 76 77 79 77 76 73 69 61 58 56 56
43 35 29 40 48 50 48 48 55 56 56 53 56 65 67 58 56 56 60 62 67 70 71 74 73 78 81 74 70 73 69 73 74 73 74 79 79 77 75 72 72 69 63 61 58

GFSSW_prec_cthk_069.txt.gz
RH
77 73 64 53 45 41 41 39 35 42 39 31 27 24 23 25 27 29 30 34 36 38 45 46 41 40 50 55 52 64 86 89 83 81 62 54 60 61 66 65 64 61 72 74 81
85 80 73 58 45 39 43 40 35 32 43 37 36 28 23 27 31 32 39 45 51 61 69 68 61 52 58 67 58 71 80 67 84 74 71 62 59 61 68 76 69 66 73 80 74
86 86 83 65 46 37 41 40 37 31 37 42 36 35 26 33 37 41 50 54 53 60 75 77 74 70 69 85 73 61 74 67 87 82 79 66 67 62 70 77 69 68 77 77 73
89 87 86 85 50 34 41 42 40 32 38 41 36 34 33 41 46 52 54 52 48 53 74 91 87 83 81 97 80 75 75 64 80 87 81 72 68 68 67 62 70 73 84 68 74
84 89 89 89 60 36 41 45 42 36 40 40 39 37 42 54 48 48 46 45 46 46 79 95 97 97 93 91 87 80 75 73 82 89 87 75 74 64 65 64 68 79 86 74 75
78 81 92 86 59 40 40 43 43 37 37 45 45 44 49 48 40 43 45 48 50 47 74 90 93 98 92 95 82 66 86 76 94 86 90 76 77 69 70 68 68 78 79 78 80
70 75 84 86 62 48 40 43 44 34 40 49 51 47 39 32 39 54 57 55 53 52 77 93 94 98 91 95 81 65 86 82 96 93 93 82 79 75 69 70 71 70 70 68 70
74 76 83 73 61 60 43 46 39 39 45 50 50 37 33 38 51 58 62 62 54 57 81 94 97 95 98 95 87 77 91 98 97 91 96 91 85 77 72 72 69 71 66 66 66
69 69 78 69 55 57 44 40 42 43 47 50 37 40 40 50 59 66 70 72 69 60 86 93 98 95 98 94 86 85 96 94 94 93 93 91 89 81 74 72 69 70 68 66 68
67 67 76 62 54 55 37 41 42 46 48 46 40 45 42 51 69 75 80 77 70 79 92 96 95 96 97 92 91 87 96 96 92 94 94 96 89 83 77 72 69 68 71 69 65
68 72 74 58 54 56 36 44 48 54 49 37 35 40 48 66 87 95 86 77 68 92 94 91 89 86 87 96 96 87 92 97 95 95 94 95 96 84 80 72 70 67 67 69 67
61 73 69 55 55 49 36 46 51 57 51 43 46 54 66 83 91 79 83 77 77 91 94 90 91 79 82 90 93 90 91 97 96 96 90 95 95 91 85 77 72 67 63 62 65
63 72 70 52 54 50 40 44 50 54 54 44 56 69 74 79 74 81 80 84 86 97 93 89 86 79 83 93 95 86 82 93 97 96 89 95 93 91 93 92 72 62 57 54 53
66 76 64 55 52 54 43 43 49 53 53 45 59 73 79 87 91 95 96 98 94 92 93 90 90 81 86 98 91 84 80 80 88 84 92 88 93 81 86 85 72 65 56 52 49
67 75 62 62 55 57 42 40 50 54 44 41 54 70 78 90 94 98 93 89 84 82 87 88 88 82 88 97 87 86 77 75 81 90 88 89 94 72 75 70 63 63 58 51 48
67 74 74 65 58 64 42 40 53 55 38 50 59 76 84 91 96 92 91 89 89 85 88 89 86 88 96 91 85 83 87 94 91 89 88 87 88 67 66 68 66 63 57 53 52
70 81 70 61 59 65 40 45 59 51 44 49 59 74 81 89 93 93 93 94 94 95 91 89 90 94 92 89 84 82 86 97 98 98 96 91 87 70 60 60 59 54 50 50 51
75 75 74 62 64 51 40 57 52 42 50 51 61 68 73 79 85 90 89 95 90 87 92 91 94 92 84 82 83 80 77 83 85 96 93 87 81 63 58 61 56 52 53 55 54
82 82 74 65 70 46 44 63 47 45 45 54 63 68 68 67 80 87 91 91 92 89 96 96 93 88 75 76 75 83 77 68 75 78 85 78 57 52 56 58 55 54 52 49 48
83 84 76 67 66 46 52 58 49 42 49 55 62 63 66 64 74 83 86 84 82 85 84 88 93 93 82 71 79 73 70 76 79 80 71 75 62 60 52 50 50 52 50 49 47
92 84 77 75 56 51 54 59 52 44 49 56 62 60 59 60 66 78 81 82 77 78 76 76 79 90 89 85 82 71 74 76 77 76 76 70 63 56 55 54 50 49 46 44 42
90 92 86 84 54 52 52 57 49 47 52 62 63 62 57 54 63 71 74 80 81 76 79 74 78 83 85 80 76 73 69 66 72 71 72 66 61 58 56 55 51 48 47 45 43
98 96 87 68 50 50 44 57 48 45 54 65 62 59 59 59 61 62 64 66 68 66 68 66 70 78 72 69 71 73 68 64 62 64 69 68 63 58 58 56 55 52 49 47 46
97 97 93 61 48 45 48 59 53 48 55 62 61 58 59 56 57 57 62 62 59 63 63 61 66 67 72 67 69 72 70 70 70 74 69 70 68 69 68 65 63 59 54 51 48
95 88 78 47 48 48 50 58 52 53 53 60 61 58 55 61 59 58 58 61 59 58 57 59 68 69 66 66 67 69 69 69 72 69 71 66 68 71 72 70 69 65 61 56 51
98 84 52 37 45 51 53 56 51 53 52 55 53 54 52 57 59 62 59 57 57 56 55 56 67 61 68 66 66 67 67 69 70 70 68 69 71 69 72 71 69 68 67 64 58
98 77 37 43 48 54 52 53 55 52 51 51 49 49 55 57 57 55 58 63 61 62 65 64 68 70 76 69 65 69 64 66 68 70 70 72 71 73 73 71 72 72 69 68 64

GFSSW_prec_cthk_072.txt.gz
RH
68 79 82 82 81 80 60 40 40 39 39 47 45 40 33 23 23 24 24 26 29 32 36 37 37 33 33 44 50 55 71 67 65 76 64 67 73 68 62 68 66 61 60 74 81
63 66 77 83 85 80 64 51 42 41 38 43 50 44 38 25 26 25 28 36 48 50 49 56 60 58 47 44 54 62 63 53 49 60 64 67 73 69 69 67 65 65 65 71 86
59 64 66 76 79 83 65 54 55 42 39 43 51 41 37 28 31 34 42 49 51 48 50 53 61 64 63 55 55 61 56 47 53 57 74 74 82 74 71 72 64 59 60 61 74
63 63 60 68 73 80 67 57 61 52 41 47 47 43 36 35 38 45 48 51 49 48 50 56 66 71 69 64 57 72 55 57 52 57 80 76 76 74 69 72 74 68 65 66 70
62 60 62 74 75 76 60 53 55 51 44 49 50 46 42 47 43 43 41 40 40 40 44 51 59 79 78 74 70 80 68 56 57 57 75 81 80 81 65 68 75 76 68 61 64
60 60 61 70 72 78 56 51 59 58 43 43 51 54 47 48 35 34 37 42 46 46 47 52 56 96 90 79 80 92 86 62 58 63 74 89 81 93 71 65 70 85 75 64 67
56 62 58 73 74 70 55 53 57 59 40 44 59 53 43 28 27 34 45 53 54 50 52 59 74 97 97 93 78 82 88 80 65 63 85 92 90 91 76 68 66 74 80 77 75
54 63 60 66 74 66 60 50 55 54 45 50 53 42 28 27 35 46 55 55 59 58 52 75 91 97 99 96 95 95 92 90 64 88 93 91 88 91 79 75 75 72 80 85 76
59 66 64 68 72 72 66 46 47 57 51 49 44 32 35 40 43 51 62 64 68 67 59 82 90 97 96 95 98 95 88 90 82 94 97 92 95 94 81 80 83 75 79 80 81
57 64 65 70 65 70 56 52 42 55 52 46 36 39 38 45 56 71 81 79 76 70 74 88 93 91 95 96 96 88 90 95 97 93 96 93 94 89 84 82 82 80 73 78 79
57 69 73 75 64 66 61 50 45 57 54 35 33 42 47 62 71 86 86 80 78 70 89 95 95 92 92 98 86 80 76 87 88 94 96 96 92 90 87 84 80 78 73 75 76
53 64 67 81 67 66 69 53 52 64 52 36 44 52 66 72 71 74 76 80 68 86 92 94 94 92 96 97 91 78 78 94 91 97 94 94 91 91 86 88 80 76 75 74 75
46 54 66 78 70 65 54 57 57 63 48 41 48 63 71 80 77 84 83 81 87 97 97 95 91 86 89 95 93 90 85 89 98 96 95 93 91 93 93 90 82 76 71 69 70
43 67 64 75 71 78 58 55 57 66 50 37 48 63 73 83 88 90 97 97 95 97 96 90 87 81 82 92 92 91 84 79 90 92 97 89 97 95 95 88 84 77 71 69 67
37 67 66 73 78 75 60 62 60 65 44 34 50 68 79 86 89 93 91 96 94 93 95 96 89 81 80 90 89 89 80 80 82 89 90 92 95 85 87 90 81 80 74 72 71
40 66 72 71 83 76 66 65 64 56 39 43 58 72 85 85 90 88 89 85 84 91 95 93 85 87 89 97 93 87 86 90 92 94 93 91 90 76 78 78 85 88 79 75 70
55 75 78 77 83 75 68 62 73 51 40 44 60 70 81 84 88 92 89 87 86 86 93 94 95 93 96 94 90 89 90 97 98 96 95 88 88 81 70 72 75 76 73 70 67
63 87 83 85 90 79 64 70 67 39 43 45 58 67 79 87 91 92 94 94 87 83 88 87 95 94 95 94 95 90 85 87 91 95 95 94 88 73 70 70 70 70 68 62 60
80 82 84 97 90 75 66 77 47 40 39 52 57 67 74 82 89 93 95 95 90 83 86 89 94 91 86 81 80 85 83 69 79 84 91 88 69 68 71 71 66 64 62 62 61
91 87 87 96 90 70 74 67 49 37 43 49 58 61 71 82 86 83 90 86 90 92 87 87 88 88 81 75 70 71 69 69 72 81 86 81 68 68 69 70 67 63 57 56 55
96 90 98 95 83 78 76 56 47 41 47 50 57 60 64 74 84 84 80 83 89 80 78 80 80 90 77 78 79 69 68 66 66 68 74 80 66 59 57 57 56 57 57 55 51
98 95 92 91 88 80 77 49 47 45 50 52 60 61 59 67 79 85 81 77 75 75 75 76 87 90 88 87 80 74 70 66 72 69 70 67 62 60 58 57 56 53 50 49 49
96 98 98 92 94 83 59 49 45 45 51 54 60 59 62 65 71 75 78 73 70 71 66 63 76 82 80 75 74 74 69 65 62 63 69 68 64 60 62 62 57 53 52 49 48
97 89 97 93 83 61 52 53 47 46 52 54 56 57 59 59 61 65 71 71 66 66 64 57 65 61 66 61 65 72 70 63 60 65 65 60 59 60 60 59 58 58 56 53 50
98 97 96 95 80 56 50 53 48 51 55 58 54 53 53 57 57 63 64 64 63 62 59 57 65 64 61 61 61 63 64 63 66 63 62 59 58 61 62 62 61 59 59 59 57
97 98 96 73 55 55 53 55 49 50 58 59 56 53 52 53 53 54 59 60 60 56 54 55 66 58 60 54 57 60 61 64 62 61 63 64 63 65 69 68 67 67 68 68 66
97 93 83 60 54 55 53 53 50 46 55 55 53 52 54 52 52 54 54 56 58 57 56 56 60 62 66 61 57 61 56 58 60 63 62 66 63 67 65 67 68 70 71 71 70

GFSSW_prec_cthk_075.txt.gz
RH
55 55 54 55 57 60 59 62 61 50 52 48 48 48 46 44 36 26 22 21 23 28 34 37 37 36 34 30 39 55 66 56 45 47 46 59 75 74 68 65 65 63 61 59 66
52 59 62 55 57 64 61 59 62 49 53 46 52 51 46 43 35 26 23 26 34 43 42 45 49 54 53 41 39 60 61 48 35 41 44 54 70 73 78 68 70 68 68 60 55
47 56 59 60 59 62 64 58 60 47 54 45 57 56 48 43 33 33 36 42 52 45 43 46 48 54 60 65 56 47 51 42 40 44 51 52 67 75 85 79 68 63 64 60 61
48 48 58 62 59 61 72 61 56 60 56 48 64 57 48 41 40 44 44 45 41 39 39 44 51 57 64 63 69 66 41 49 48 48 55 50 61 80 83 72 67 61 69 63 64
49 51 54 61 59 64 68 62 57 62 56 47 56 57 56 47 43 41 36 36 32 33 36 40 44 52 60 64 71 74 52 53 50 54 54 58 61 72 77 76 74 71 61 63 68
41 52 51 60 62 61 66 63 56 58 58 55 49 60 61 52 38 30 29 32 38 43 46 45 47 54 60 67 80 67 64 60 60 49 55 61 72 75 68 75 79 81 71 69 73
38 42 53 56 62 60 63 71 56 51 47 50 54 61 60 36 25 26 30 39 46 48 49 48 52 62 59 83 86 83 77 67 61 54 57 63 67 72 72 75 78 88 79 80 74
34 45 50 58 66 74 68 68 58 57 46 58 65 62 41 27 28 34 42 49 56 56 57 59 57 71 81 92 97 91 87 83 60 61 57 77 66 71 83 79 83 87 77 76 79
24 41 60 56 63 70 70 64 66 54 57 66 68 53 35 35 40 41 48 57 65 66 65 66 68 78 88 98 99 90 92 93 92 60 69 80 75 74 87 86 89 85 75 80 85
18 30 53 55 58 71 75 71 60 63 64 71 56 53 37 39 48 58 65 75 82 76 71 69 86 89 95 93 97 97 96 96 86 76 77 87 84 83 85 91 91 83 82 91 95
18 16 42 56 62 66 73 72 68 63 67 58 44 47 45 55 59 63 67 72 79 77 70 82 91 86 92 97 98 99 97 94 85 70 72 95 93 85 88 92 88 87 83 88 85
23 19 34 49 61 66 75 79 63 74 71 55 50 52 59 62 65 69 74 71 67 74 91 91 92 90 94 94 98 98 93 94 90 86 80 90 95 91 90 96 89 85 84 85 84
29 23 29 47 66 65 69 73 74 78 74 60 50 56 61 67 73 79 87 80 86 91 97 96 94 93 95 98 98 92 91 90 98 96 87 94 97 96 93 93 90 87 84 85 85
38 27 32 48 66 65 61 77 78 81 70 52 48 60 67 70 79 83 91 92 94 93 95 95 94 92 93 95 96 91 83 82 89 97 97 95 98 93 92 91 90 89 89 88 85
48 45 30 53 55 66 68 82 86 81 74 43 48 61 66 72 81 85 91 90 95 95 95 90 90 87 83 92 95 96 89 85 84 87 93 98 95 88 86 87 88 90 89 85 83
72 68 39 59 59 75 76 93 82 81 66 47 56 65 72 75 80 82 84 84 87 91 92 85 78 82 84 86 93 94 91 88 85 87 92 98 84 86 78 83 89 94 89 86 85
87 75 54 65 64 78 96 88 87 86 49 51 58 65 73 77 79 82 84 80 88 92 94 83 89 96 98 95 93 90 87 93 91 92 96 96 82 88 74 75 88 91 89 82 78
96 60 60 60 83 91 94 85 88 58 53 44 56 64 73 79 88 91 86 85 82 88 92 90 92 97 97 96 92 88 84 79 87 94 98 96 87 92 83 78 81 86 85 82 79
68 82 75 66 80 98 92 92 72 55 41 48 58 64 74 76 91 98 96 88 84 89 93 97 98 93 95 93 89 82 81 75 90 96 93 84 80 76 77 77 81 80 79 81 77
76 75 74 83 99 98 92 79 69 42 45 47 55 63 76 77 85 94 92 89 95 87 86 88 88 91 85 82 78 74 68 79 85 92 95 83 77 77 79 78 75 72 74 73 70
72 78 93 98 98 96 81 77 66 45 47 47 53 64 72 79 86 87 92 93 90 85 80 72 73 83 74 80 78 73 68 68 72 77 80 78 67 71 73 76 75 74 71 69 65
91 98 98 98 98 91 82 77 52 52 49 48 52 60 68 77 85 90 88 87 85 82 81 76 74 77 77 72 72 73 66 59 62 62 67 68 70 63 64 66 65 65 65 63 60
97 98 98 98 98 88 77 73 52 53 49 49 54 58 67 77 83 79 84 80 76 75 75 73 74 75 72 66 63 62 59 59 56 56 60 58 62 61 64 66 64 61 56 55 53
97 97 98 98 90 76 71 67 56 53 51 49 54 55 59 68 70 76 78 74 69 64 63 61 70 61 67 60 60 62 59 54 49 55 56 55 58 59 61 63 63 60 57 55 54
97 98 95 96 87 79 68 61 52 53 51 50 55 54 55 60 61 72 71 67 62 61 59 57 64 61 59 59 57 57 58 57 55 52 52 50 51 51 56 59 59 58 58 57 56
98 98 97 90 78 69 64 58 53 51 49 52 53 53 52 54 52 56 61 60 59 56 55 56 64 56 60 56 60 64 64 63 60 58 57 57 56 56 60 61 61 60 59 60 60
97 97 95 76 63 69 64 57 54 50 55 50 50 52 54 53 53 54 54 55 56 54 54 55 59 59 64 60 57 63 62 65 64 66 62 58 58 61 63 63 64 64 63 63 64

GFSSW_prec_cthk_078.txt.gz
RH
44 46 47 50 54 54 52 50 51 51 47 37 35 36 46 51 47 42 33 30 27 29 33 36 34 36 33 32 35 42 52 48 40 36 31 37 44 51 53 64 66 62 65 70 68
43 43 46 48 54 56 56 53 58 54 46 46 39 41 47 49 48 43 34 31 34 42 43 41 42 41 47 44 37 40 43 42 32 30 38 41 46 47 66 67 69 68 68 65 64
41 42 45 48 53 58 58 59 62 50 53 46 39 49 51 48 46 39 41 43 47 48 46 42 41 45 47 53 58 41 42 36 37 39 44 46 45 46 65 73 71 68 66 74 66
36 37 40 47 52 55 60 60 60 57 53 47 44 45 40 44 45 49 49 48 43 38 36 36 38 43 49 51 56 60 53 42 35 45 50 47 47 59 64 57 68 73 75 81 79
27 39 39 35 51 56 58 64 57 58 60 49 46 48 45 52 56 49 43 42 34 31 31 35 37 40 39 45 56 61 51 61 48 48 52 55 54 51 50 56 63 73 71 76 80
29 30 45 38 43 56 64 65 56 58 66 56 47 50 59 58 48 37 33 32 31 34 40 41 43 47 46 45 50 50 61 60 62 53 51 51 50 58 42 59 69 81 75 81 84
30 30 34 41 42 56 58 70 70 70 58 60 50 48 62 56 37 32 33 32 37 43 48 48 52 51 52 56 51 55 67 73 63 58 53 49 58 57 56 62 75 81 77 81 83
31 29 30 44 50 55 68 68 64 64 63 54 53 65 60 37 34 37 40 42 45 47 52 53 59 60 64 66 68 72 78 85 63 61 51 59 45 50 63 66 64 71 78 81 89
35 31 27 44 46 72 65 73 68 68 63 65 60 64 45 39 44 47 46 50 52 57 61 64 64 67 75 88 93 89 91 84 75 58 58 57 54 57 57 61 64 68 74 76 96
34 36 26 39 50 62 60 68 72 66 68 62 60 61 47 48 47 55 60 62 63 75 76 71 75 74 82 93 92 98 92 82 77 63 56 60 58 74 70 64 69 73 76 77 92
30 29 29 42 57 58 65 73 74 76 75 63 62 52 48 54 60 62 65 64 65 70 71 73 74 74 77 92 97 98 98 90 76 71 61 71 69 83 79 70 73 75 79 86 94
44 33 31 41 55 57 61 65 66 73 70 68 67 50 56 62 67 70 70 63 58 60 68 79 85 80 85 91 96 98 97 97 96 87 70 81 79 80 87 84 77 79 81 86 91
56 49 40 39 55 53 57 66 64 69 64 76 61 52 63 65 70 73 81 80 75 79 85 92 83 90 96 98 97 95 93 93 98 89 82 82 92 93 86 92 89 85 90 95 96
66 67 55 48 57 57 58 75 73 60 68 72 64 56 67 70 74 81 85 84 87 90 92 91 89 94 97 99 93 90 89 94 97 95 89 78 90 96 95 90 94 95 92 93 95
75 74 67 56 60 63 56 73 66 62 82 64 57 65 69 71 78 77 81 81 87 87 91 89 89 86 94 98 92 88 94 94 94 87 86 88 94 94 96 93 97 91 92 91 87
84 81 77 71 59 61 56 70 66 75 88 62 60 73 70 71 75 72 75 82 85 88 89 86 79 78 89 92 91 92 87 90 86 86 92 99 97 95 91 85 92 90 90 90 88
84 83 82 87 69 63 74 81 77 81 63 62 69 71 72 70 70 74 74 78 87 87 84 80 94 88 87 95 97 89 85 95 90 93 95 98 86 92 81 78 77 88 88 91 93
83 74 79 90 75 70 87 84 86 84 61 55 67 71 76 73 72 74 72 78 81 81 82 94 99 95 93 94 90 87 80 74 77 92 96 82 94 93 81 83 87 91 90 88 90
76 83 88 73 60 74 81 89 89 74 44 61 69 76 72 74 80 78 82 83 85 83 94 98 98 98 94 90 87 79 77 71 80 83 77 88 82 76 81 87 91 93 93 93 91
77 69 75 66 87 91 98 95 82 46 51 63 69 68 67 77 77 78 84 89 93 93 92 88 95 90 89 84 78 76 73 76 76 79 83 81 72 76 77 81 85 91 92 93 90
78 79 77 87 98 99 97 92 64 48 57 62 67 65 66 71 72 80 96 94 89 83 81 80 77 78 79 82 79 69 70 69 66 70 66 72 77 70 73 75 78 80 80 80 79
86 91 93 91 96 98 92 76 51 60 62 65 64 68 66 70 79 79 85 91 86 80 76 73 68 72 71 70 71 69 60 56 60 67 66 60 70 73 72 73 72 70 68 69 68
92 92 98 97 97 95 83 69 55 60 61 64 63 63 63 71 76 79 81 80 78 79 72 62 66 70 66 61 58 58 56 53 51 51 57 55 62 65 64 63 65 62 59 58 56
97 97 98 98 94 76 77 62 59 61 63 62 63 60 61 67 68 73 73 73 71 72 68 64 66 65 61 64 59 56 54 51 47 50 46 45 52 58 60 61 62 59 56 54 52
97 97 96 94 74 76 73 59 57 59 63 58 59 57 56 62 64 68 68 67 63 60 58 58 62 61 58 60 60 60 57 52 51 48 46 47 47 51 54 55 56 54 54 54 55
95 96 96 75 72 82 70 61 56 58 57 53 54 54 52 56 59 61 58 56 56 54 54 54 60 54 57 50 55 59 59 58 56 54 53 49 51 52 56 59 58 58 59 61 61
90 91 72 63 70 75 67 55 53 53 58 52 47 45 47 54 55 56 53 52 51 51 51 52 53 55 57 50 49 48 52 56 56 55 52 51 54 56 60 59 58 60 62 63 65

GFSSW_prec_cthk_081.txt.gz
RH
41 43 45 45 44 46 47 49 53 50 44 45 43 40 35 31 34 36 33 37 38 35 37 47 44 40 37 34 34 37 50 45 36 35 36 34 36 46 47 48 56 54 62 66 63
38 40 44 46 48 46 44 47 54 56 52 44 45 36 37 37 35 30 30 29 34 42 49 53 51 51 47 43 39 36 39 36 36 39 38 36 35 43 52 52 58 61 68 65 63
31 36 38 44 38 47 51 49 50 56 55 46 46 41 40 36 33 32 32 31 41 46 48 48 48 49 49 53 51 42 39 34 38 38 39 43 41 48 53 51 59 62 65 72 61
33 32 32 38 45 42 50 54 53 58 53 45 44 46 44 39 37 42 38 46 52 47 41 41 40 44 43 45 49 51 47 49 38 38 48 46 43 43 53 54 46 58 65 79 72
41 38 36 33 39 46 41 55 56 57 56 48 48 49 49 45 45 43 41 41 43 38 38 37 36 39 40 36 40 48 51 49 51 55 43 45 45 50 51 44 48 59 76 80 64
46 43 36 33 39 51 54 54 58 69 60 54 54 53 46 45 48 44 35 33 39 41 43 41 41 44 44 44 42 43 45 48 56 56 59 51 45 49 44 45 55 64 67 83 69
45 46 38 34 38 50 63 57 64 71 71 61 52 46 50 51 49 36 29 35 41 44 46 50 49 53 49 48 45 48 50 44 41 58 58 65 54 48 36 58 55 50 67 65 69
43 44 38 32 45 52 63 60 70 68 66 56 53 54 55 50 37 33 39 42 45 46 51 52 54 59 60 60 60 61 62 67 40 48 57 70 56 30 43 50 51 57 64 58 67
39 36 34 29 50 60 62 66 72 77 73 70 65 65 57 43 38 43 50 50 56 58 57 61 66 71 70 73 77 76 74 73 57 58 68 70 46 41 49 45 58 59 61 65 78
37 36 31 29 36 65 70 81 84 60 68 71 70 63 58 48 42 50 54 52 58 61 67 80 81 75 72 79 85 83 97 90 79 69 67 64 54 56 57 59 56 66 69 77 83
54 45 39 27 53 66 76 86 69 84 73 74 64 55 51 46 52 59 53 59 58 66 76 81 83 77 78 76 76 88 94 94 93 81 72 61 59 55 67 62 71 64 74 81 77
77 64 54 42 51 75 77 75 80 88 77 66 58 60 48 53 58 57 58 67 57 61 72 70 79 76 76 74 81 88 95 90 88 81 78 60 63 57 58 72 80 72 72 75 76
83 78 66 58 43 64 59 67 65 85 70 62 62 58 52 55 59 61 70 80 84 80 79 82 78 80 94 97 97 93 89 93 99 71 76 69 80 70 62 81 82 75 77 84 80
82 82 79 69 54 66 66 66 68 73 77 65 65 56 54 61 62 71 80 86 84 84 86 88 87 94 97 99 94 90 84 94 93 81 86 69 77 76 76 78 77 80 80 82 90
76 79 82 78 66 76 67 63 98 84 81 65 61 63 64 61 71 72 78 83 85 86 91 89 89 96 97 98 93 97 88 89 95 87 81 76 79 91 93 86 92 93 89 97 96
85 78 82 72 63 69 72 74 83 80 75 60 62 68 62 65 74 77 82 82 86 87 88 84 84 92 94 90 89 91 92 93 95 97 92 83 78 89 98 96 89 94 91 96 91
98 85 80 78 67 62 63 95 81 78 62 63 62 62 64 66 76 79 80 86 84 87 82 76 85 94 93 95 88 93 90 95 98 98 96 96 76 96 97 87 89 93 98 97 91
96 93 70 72 73 68 82 92 89 69 58 60 60 67 72 70 76 73 72 81 76 78 88 93 97 95 96 95 88 96 84 92 95 95 95 87 95 97 97 95 98 94 98 95 93
73 67 73 72 73 74 93 92 93 76 65 63 67 73 78 79 77 75 78 82 81 87 98 97 97 95 91 87 86 83 80 75 78 72 77 90 96 93 94 95 96 94 94 93 95
71 67 80 73 74 84 93 98 85 78 54 67 70 74 77 81 80 82 81 83 87 91 93 95 99 94 86 84 78 80 76 81 77 84 84 81 79 83 88 92 92 92 90 89 92
70 70 83 86 86 91 96 97 81 53 66 70 69 72 75 76 74 80 90 90 89 84 87 85 89 82 80 83 83 80 72 64 63 67 64 72 80 75 79 80 87 91 95 95 93
80 84 96 98 98 98 98 88 54 64 70 70 69 71 75 78 82 82 86 87 79 78 76 75 77 79 76 71 72 76 66 63 66 64 59 58 72 68 70 72 75 79 78 78 79
78 86 97 98 98 98 91 61 62 68 71 74 74 74 75 77 79 75 76 75 71 69 66 63 66 77 68 62 61 59 58 57 56 56 57 58 64 62 62 63 66 64 64 64 64
87 92 96 97 96 90 66 57 64 68 72 71 70 71 73 73 71 73 72 68 64 61 60 61 61 66 67 69 63 58 51 46 49 55 46 51 60 61 61 62 62 60 56 57 56
89 91 92 98 83 71 60 58 61 71 69 66 65 63 65 67 64 64 61 59 58 58 59 55 61 60 56 55 54 51 50 48 48 44 48 48 50 56 59 60 60 56 57 58 56
86 81 84 77 70 62 57 58 60 69 69 65 63 60 56 58 56 56 49 48 50 48 51 50 58 54 53 48 52 53 50 49 46 44 42 42 46 48 50 53 54 53 53 53 55
70 64 62 65 67 60 56 54 56 61 61 59 57 57 57 57 53 48 44 44 44 45 44 46 49 53 54 46 47 47 48 49 50 47 45 46 47 46 51 53 52 53 56 57 56

GFSSW_prec_cthk_084.txt.gz
RH
28 31 38 43 46 47 49 52 53 52 51 49 43 34 30 30 31 29 30 29 27 23 20 29 39 45 44 40 37 44 54 52 44 38 35 33 33 32 34 35 37 39 46 47 47
35 34 34 35 44 46 47 47 59 53 57 54 47 39 34 35 32 30 28 27 28 23 27 41 44 47 47 45 45 43 45 44 36 37 38 34 32 32 35 37 39 45 41 52 50
45 43 38 34 34 43 47 43 57 61 57 56 51 44 37 36 38 36 28 28 27 31 36 38 41 46 48 49 51 50 46 39 37 41 41 38 35 37 40 38 42 52 43 39 46
50 48 49 43 36 36 43 50 55 60 58 57 53 50 41 44 39 40 30 32 38 41 35 33 35 42 42 46 49 51 46 48 46 45 43 42 37 41 42 39 42 50 47 52 46
56 53 50 50 40 39 40 51 54 56 67 58 56 52 48 50 39 39 36 40 34 32 31 31 35 36 42 38 37 43 41 40 45 47 45 45 42 41 37 42 47 55 46 55 56
67 58 50 46 42 41 43 53 61 61 69 73 67 59 56 48 41 42 42 38 35 34 34 35 40 44 45 40 41 38 40 40 41 42 45 48 48 48 34 41 46 47 48 43 53
65 59 50 45 41 39 53 60 67 71 76 65 79 61 62 48 45 45 38 30 35 39 39 43 47 45 46 48 44 44 44 41 38 30 34 48 45 48 39 31 42 40 51 46 48
63 56 44 39 41 43 57 68 77 79 71 79 72 64 57 56 52 46 36 34 34 36 41 46 50 49 49 51 47 50 49 50 42 47 42 42 48 43 42 40 38 41 50 49 45
62 55 42 40 33 41 59 70 93 83 73 83 75 75 70 59 47 38 38 43 45 47 49 54 55 52 57 64 65 61 71 66 66 68 58 54 41 41 50 51 37 44 48 51 48
62 56 42 35 29 41 70 83 93 77 83 85 77 81 63 54 46 42 48 48 47 47 53 59 69 72 67 76 76 76 80 84 87 80 83 64 53 50 64 60 43 41 46 58 51
83 78 68 47 38 52 70 90 80 74 92 85 72 65 61 51 41 51 51 46 49 54 55 64 76 72 67 75 73 77 77 78 79 79 92 87 67 59 84 64 64 54 60 55 58
83 83 77 66 49 57 74 88 89 97 95 83 82 68 60 51 54 53 50 50 57 47 59 72 82 76 77 87 87 85 83 83 79 84 88 94 67 62 66 71 63 62 59 57 81
83 78 74 75 58 54 95 99 91 95 84 93 80 66 61 46 53 57 57 59 60 63 72 84 74 84 92 95 95 89 85 93 96 95 90 81 71 65 66 75 62 60 76 77 86
87 78 77 74 68 53 82 99 89 90 99 82 75 71 57 55 60 64 61 63 69 73 89 91 85 85 91 97 95 93 85 92 93 79 80 75 81 75 74 59 58 73 78 78 88
89 77 71 83 78 65 61 70 78 87 91 78 75 73 56 64 65 63 63 67 72 80 91 89 90 93 94 90 97 95 91 94 91 91 92 79 95 77 70 66 74 87 85 87 90
96 96 77 84 74 66 77 79 73 87 91 81 77 69 67 66 62 68 69 69 77 83 85 88 86 94 86 82 93 94 94 95 96 93 84 80 89 91 90 88 85 84 82 88 92
98 96 79 79 72 71 90 81 98 97 82 76 70 71 66 63 67 65 68 76 83 88 89 83 94 93 86 88 88 94 98 98 98 98 96 92 83 93 90 94 91 95 93 97 99
96 92 76 76 76 80 78 89 91 82 81 67 70 68 61 61 64 65 70 79 74 86 97 97 96 93 92 93 98 94 97 98 97 97 97 89 93 95 95 98 98 96 94 95 97
83 75 73 70 71 79 81 96 98 88 70 74 70 68 65 60 62 64 73 84 81 94 96 97 98 94 91 87 87 85 96 91 99 84 93 98 98 98 98 97 97 98 98 98 99
74 68 72 68 64 77 89 98 92 73 75 70 69 68 65 66 68 80 85 78 86 94 93 94 98 92 88 90 85 84 77 86 92 97 96 92 94 98 99 98 97 95 97 97 97
56 59 72 74 81 90 95 99 90 87 81 74 69 74 73 72 85 83 82 83 89 94 90 88 94 85 84 80 82 76 73 68 71 75 82 86 93 87 96 96 96 95 95 91 95
47 57 77 83 92 96 99 95 76 78 75 72 74 74 79 76 85 82 87 87 84 83 81 78 82 87 77 74 73 72 67 63 74 70 71 76 85 81 85 87 88 90 91 90 87
68 72 86 89 98 98 88 73 74 73 72 72 74 76 79 82 92 84 81 75 77 74 73 71 71 86 78 74 69 65 60 59 58 63 63 72 79 72 71 72 74 78 78 77 76
76 83 88 93 93 85 67 70 74 75 73 74 76 78 79 80 78 75 76 66 62 61 60 63 63 68 76 71 64 63 57 54 57 67 59 61 65 66 64 62 60 60 60 63 62
78 80 81 85 73 65 68 71 70 68 69 68 70 70 72 75 76 70 64 61 57 54 50 51 56 56 51 52 53 52 51 50 49 45 53 58 59 60 60 59 57 55 56 55 55
75 77 70 65 60 60 60 67 63 65 65 63 64 65 63 64 62 59 53 54 54 48 47 47 52 50 47 45 46 46 46 46 47 44 43 48 51 50 53 54 55 55 55 53 53
57 51 53 56 54 53 55 57 59 59 60 61 58 60 60 56 52 49 45 42 41 42 42 44 50 56 55 44 46 51 45 46 46 44 46 52 47 48 50 51 51 50 50 52 53

GFSSW_prec_cthk_087.txt.gz
RH
49 45 40 37 37 44 50 50 53 53 58 48 48 46 40 28 29 27 28 27 23 21 19 24 24 27 27 23 28 35 45 55 50 43 39 31 34 33 34 31 30 39 41 42 46
56 54 51 48 41 39 50 53 53 50 61 53 52 50 42 32 30 30 29 31 26 24 23 32 34 34 32 28 28 34 43 42 41 41 41 37 33 34 38 34 32 32 41 41 43
62 59 55 53 52 45 42 54 52 51 57 60 57 55 48 37 34 33 28 29 29 27 31 34 36 40 37 35 38 38 38 36 36 38 43 42 37 35 34 37 39 38 40 48 42
75 71 66 58 57 53 46 48 56 56 59 69 60 58 53 43 43 38 32 28 29 33 35 34 32 35 35 37 35 40 39 43 43 41 43 45 42 36 36 34 36 41 41 44 47
78 77 75 73 57 57 50 46 54 63 57 82 70 61 58 49 43 44 35 36 37 35 30 30 30 33 36 33 33 37 39 40 42 41 42 43 42 42 36 39 34 39 41 46 44
84 79 73 67 62 56 48 48 53 70 63 73 70 71 60 54 50 48 40 40 37 31 29 30 31 37 36 35 36 37 37 36 37 33 32 37 33 37 39 35 36 33 44 48 47
87 85 79 67 55 45 44 48 57 74 82 74 78 74 77 67 54 49 46 41 38 38 36 38 39 37 39 37 37 41 43 38 31 29 33 32 34 33 30 34 33 34 39 45 46
69 70 67 59 54 47 45 52 65 72 87 88 95 76 74 70 58 52 49 40 40 42 42 40 44 44 42 42 41 46 48 50 33 41 46 50 41 28 27 29 30 29 38 44 47
68 67 66 51 36 32 59 60 84 91 93 91 83 78 83 69 68 62 44 39 44 46 47 47 47 47 45 51 56 56 59 52 51 56 63 66 53 44 28 28 33 31 27 45 45
90 85 82 68 43 38 64 74 85 94 91 96 91 97 81 75 57 49 46 49 49 48 51 48 50 57 61 65 63 63 71 65 72 65 65 69 69 56 46 54 45 43 33 38 40
89 86 84 78 61 48 81 98 68 98 98 94 86 76 73 71 58 50 55 49 49 54 49 53 60 62 60 62 64 73 77 74 62 67 78 80 75 59 50 62 58 45 42 40 42
84 83 82 76 73 55 72 99 94 98 94 93 89 77 70 62 59 58 54 56 58 53 51 59 61 59 68 72 77 85 86 80 74 75 89 91 81 67 66 85 78 69 59 50 51
84 82 77 73 74 57 79 91 95 98 93 90 92 80 74 64 62 60 56 60 58 58 59 66 58 60 73 80 84 84 87 86 83 78 89 91 88 66 67 79 80 80 74 58 64
78 81 76 72 79 71 69 85 98 98 99 98 94 86 73 64 64 63 64 62 62 68 72 69 66 70 77 83 89 93 95 91 81 80 79 75 76 61 62 71 86 79 75 67 76
76 91 69 71 81 79 72 82 97 97 97 96 88 82 73 65 65 68 64 62 67 68 74 68 71 75 82 93 94 97 95 90 87 85 88 77 92 71 66 71 74 67 72 76 83
86 90 75 73 74 74 74 86 98 91 94 96 87 82 65 71 70 69 68 68 69 71 72 75 79 79 83 86 88 92 96 97 93 94 90 77 93 82 73 68 63 66 79 85 86
99 96 75 77 75 68 71 77 76 84 86 85 86 79 70 69 70 67 71 73 73 79 81 81 85 83 83 86 88 96 98 98 98 96 98 88 88 90 87 85 80 86 89 88 90
93 85 72 71 70 68 70 52 75 90 87 83 82 76 74 72 66 72 71 73 70 79 84 85 85 88 91 93 96 98 98 98 97 97 97 89 94 94 92 89 90 98 97 98 98
61 62 66 75 74 74 69 93 98 95 81 81 81 76 72 69 64 66 71 74 79 85 88 89 92 91 92 92 93 94 98 95 98 88 96 97 98 99 98 96 95 99 97 98 99
46 49 61 70 73 75 82 98 95 86 83 85 76 68 69 67 66 72 76 79 89 89 89 91 96 87 88 86 82 87 81 88 96 97 96 98 97 98 98 98 98 98 98 97 98
45 53 67 74 82 82 94 97 97 95 87 85 73 66 65 66 72 78 80 84 86 89 90 92 96 85 83 79 81 79 79 76 75 80 86 90 97 97 98 98 98 97 98 98 97
44 60 70 80 84 87 94 98 96 84 82 79 76 71 64 69 78 78 85 88 84 84 87 83 84 90 76 72 70 71 69 68 78 74 78 82 93 91 96 95 94 92 91 90 92
68 68 75 83 88 93 89 88 80 75 78 75 71 67 69 75 74 79 81 77 76 77 78 76 78 88 80 71 63 64 59 60 61 67 73 79 90 83 83 88 93 91 88 87 82
72 73 77 75 75 79 76 73 73 73 73 72 71 68 70 72 72 74 74 67 68 67 65 64 65 69 76 72 68 64 59 55 52 64 66 66 71 70 66 66 67 68 71 72 71
61 62 61 68 69 72 69 73 76 74 69 69 69 66 63 67 62 60 58 59 56 53 53 51 55 55 52 52 51 53 55 51 51 48 57 64 64 64 63 61 57 57 57 56 55
50 54 57 58 59 59 64 66 65 64 62 65 66 63 58 59 56 56 54 53 51 47 45 46 49 51 50 45 43 43 47 46 45 45 47 49 51 52 52 53 53 52 49 49 50
47 48 53 53 55 55 58 58 58 54 54 53 51 50 50 48 45 42 41 41 41 42 42 43 49 57 51 45 45 46 44 45 46 46 46 49 44 46 49 48 47 47 48 47 44

GFSSW_prec_cthk_090.txt.gz
RH
64 62 60 56 54 46 49 50 57 59 56 55 56 54 47 39 30 26 22 22 21 19 16 17 19 19 18 21 24 26 35 39 35 32 30 30 31 31 32 30 36 41 38 44 45
73 77 69 63 61 58 52 49 58 59 61 64 59 62 51 43 36 30 28 27 26 21 17 26 28 26 25 24 25 29 37 35 30 28 27 25 30 31 34 35 31 40 40 41 47
84 81 79 76 72 62 58 55 56 61 61 60 72 74 56 48 41 32 28 28 29 26 23 29 33 33 33 33 29 30 35 29 28 26 26 28 25 29 33 34 36 37 44 43 44
91 91 87 80 76 74 63 55 50 64 63 69 70 72 60 53 46 36 30 33 33 29 32 34 34 34 33 31 30 37 34 34 32 31 32 30 30 28 31 32 35 35 39 45 46
85 87 92 91 84 73 62 55 52 58 70 77 68 78 68 59 51 44 38 37 36 34 35 33 31 31 33 32 32 33 31 31 31 32 30 28 27 30 27 29 31 36 36 40 47
83 86 87 85 81 77 64 64 52 51 71 78 72 89 77 67 55 50 45 42 39 35 33 31 32 34 35 33 33 33 34 34 33 30 28 29 24 27 23 24 29 29 36 38 42
84 76 80 76 67 66 66 54 53 53 71 88 82 96 90 72 63 59 54 47 43 36 33 35 36 36 38 36 37 37 37 35 30 27 29 26 27 27 21 22 21 27 32 40 42
75 74 70 69 58 41 44 53 49 56 76 87 81 82 82 72 79 69 61 50 46 43 41 42 42 42 43 42 40 38 41 47 32 33 34 41 39 37 38 39 30 22 27 34 44
92 88 85 81 66 39 39 69 65 78 95 85 98 87 94 80 75 70 62 53 48 47 48 46 45 44 43 44 50 52 56 51 46 41 46 58 52 47 47 48 37 27 23 29 35
94 90 87 81 69 41 66 83 94 88 97 98 96 95 93 86 80 73 62 52 54 53 49 50 48 49 52 59 58 55 54 59 61 60 59 57 53 56 53 50 41 33 33 31 30
85 82 79 79 72 50 94 92 94 98 97 98 94 92 93 84 80 66 52 55 55 52 51 51 56 57 49 52 52 58 70 75 67 69 68 67 66 67 57 48 48 43 41 35 33
80 77 74 77 69 56 89 98 89 97 98 98 92 88 85 74 68 61 57 54 53 56 50 59 61 52 55 62 69 76 81 80 74 73 77 75 72 69 61 50 57 56 54 46 42
83 77 77 68 65 68 77 97 95 95 98 98 90 87 78 73 69 64 56 58 58 58 60 64 56 56 63 69 76 79 83 84 85 75 73 76 76 69 58 64 69 62 56 51 57
76 74 72 66 68 81 63 91 93 99 97 98 97 90 71 77 78 64 58 61 63 69 70 70 64 66 69 74 78 81 77 85 84 80 73 73 78 71 69 74 78 76 84 78 67
75 78 63 65 69 81 58 85 97 97 96 96 95 88 76 78 70 65 65 64 71 70 74 66 68 70 72 73 78 77 85 89 86 83 85 83 88 62 64 67 80 82 85 79 71
82 78 61 63 74 69 75 83 91 93 96 98 95 90 82 73 68 66 67 72 73 74 73 72 74 75 72 74 78 79 88 96 98 97 95 82 87 83 74 68 68 70 72 76 77
86 70 58 63 70 72 79 86 90 95 98 97 94 83 73 73 70 70 75 75 75 79 77 75 74 73 73 77 86 90 96 98 98 97 97 90 87 83 80 73 66 67 78 84 87
66 58 60 68 71 73 81 78 84 89 88 84 83 74 75 72 71 72 75 79 80 83 83 84 73 77 80 84 92 97 99 98 97 97 97 95 96 93 87 88 87 87 91 91 94
49 56 56 60 59 59 69 78 87 88 83 82 86 82 76 71 64 72 79 79 80 83 85 85 84 82 87 91 96 97 98 97 99 90 94 96 97 95 93 90 90 97 98 98 98
52 53 57 54 66 70 76 80 87 86 83 86 72 65 68 65 66 80 79 80 85 86 85 86 90 86 85 88 87 94 90 96 97 98 96 96 97 98 98 97 96 98 98 98 98
54 59 61 67 76 79 87 92 96 88 74 71 62 62 61 73 78 78 82 83 83 86 87 87 88 81 81 83 81 86 90 83 80 88 96 91 97 96 98 98 98 98 98 98 98
61 59 65 67 75 86 93 90 88 81 70 66 63 63 71 79 85 84 82 83 81 83 85 81 80 86 72 68 71 73 74 72 79 76 83 85 96 95 95 96 97 97 96 96 96
65 68 68 70 77 82 80 82 81 78 71 62 64 68 72 76 78 79 75 72 73 76 75 72 75 82 73 64 61 63 60 58 60 67 77 81 87 88 94 93 93 93 93 92 87
56 58 63 65 70 74 74 72 70 68 65 63 65 67 65 68 70 70 69 67 65 61 61 60 64 69 72 69 67 62 55 51 52 62 64 66 71 71 70 75 78 77 75 76 76
49 59 63 69 68 73 73 74 72 72 69 70 69 67 60 63 60 60 60 57 52 49 48 48 52 54 51 52 50 51 50 49 51 49 51 59 58 56 55 56 56 56 56 56 56
46 53 57 59 60 61 62 67 67 66 64 63 61 60 57 56 57 54 51 47 45 42 44 45 48 51 48 44 45 42 46 46 46 46 48 49 48 47 48 49 50 50 50 50 49
41 47 50 48 49 51 54 53 54 52 54 54 52 49 47 44 43 41 41 39 38 38 38 41 46 53 46 44 44 39 38 42 43 43 41 44 40 42 44 43 42 43 44 45 45

GFSSW_prec_cthk_093.txt.gz
RH
77 78 80 81 71 60 58 53 48 58 63 59 62 64 54 47 39 32 25 21 19 18 15 16 16 16 16 20 23 23 30 36 31 31 26 21 21 20 27 31 30 34 33 36 37
90 89 90 91 90 79 69 59 54 57 68 65 62 68 59 56 44 37 30 27 24 21 17 19 20 21 20 21 23 25 32 30 27 27 26 23 22 20 20 22 30 31 36 35 36
79 84 90 93 93 92 88 74 59 54 63 72 66 73 73 57 53 43 33 30 31 24 24 26 27 27 27 25 26 27 30 27 25 25 26 27 23 20 20 19 20 30 32 37 38
85 81 86 94 95 94 91 81 74 59 62 79 70 78 74 64 59 44 36 32 31 26 24 31 32 32 32 30 29 31 29 29 30 27 27 26 25 22 20 19 19 19 29 35 40
90 76 82 94 96 96 92 85 71 62 66 84 84 78 82 76 62 49 41 39 36 32 35 36 36 34 32 29 28 30 30 29 28 27 24 24 25 24 20 19 20 20 21 31 38
91 69 81 94 96 93 90 84 77 63 60 77 83 94 73 71 65 59 50 47 42 40 38 36 34 32 31 30 31 33 33 31 29 26 26 27 22 24 22 18 16 16 19 22 32
73 70 85 91 83 85 80 75 70 66 61 75 86 93 90 87 77 65 57 50 47 42 37 35 34 33 35 35 37 36 35 33 29 25 27 25 26 26 19 20 20 18 17 20 22
79 80 75 82 76 68 56 60 55 59 63 78 87 96 85 93 93 78 65 57 50 43 40 38 38 39 41 41 41 40 39 44 30 32 33 37 33 28 29 35 32 30 28 24 22
73 88 91 87 78 64 42 55 54 54 65 88 99 95 97 98 94 82 71 62 55 49 47 45 46 46 47 46 46 46 53 49 43 39 43 48 45 34 40 41 42 40 35 24 19
64 68 88 84 80 67 42 88 86 79 86 98 95 92 94 89 84 87 76 63 55 52 54 54 51 51 48 50 48 48 54 50 56 49 51 53 46 41 49 52 49 44 35 29 26
64 71 68 74 70 60 73 97 98 95 94 98 92 87 91 90 86 84 69 62 60 59 56 53 52 51 48 50 49 51 59 64 62 61 64 65 58 58 56 56 58 44 49 39 34
76 68 65 61 65 60 85 97 98 98 99 98 98 96 94 93 92 79 64 63 61 58 52 53 54 48 48 52 60 67 73 72 71 74 73 66 64 66 64 65 56 54 54 52 47
82 68 67 58 62 68 86 93 99 97 96 98 96 96 89 76 75 70 67 62 56 58 54 55 48 49 54 62 70 73 77 75 75 71 69 69 68 73 70 68 66 70 75 67 55
79 67 62 56 69 80 82 88 97 97 97 98 97 90 88 85 81 73 65 60 61 60 61 59 54 58 64 67 72 78 71 76 81 84 82 76 75 71 71 74 86 87 91 79 78
68 62 54 55 71 78 78 95 94 91 95 98 97 85 83 88 79 72 62 63 65 69 65 61 64 67 70 69 72 78 76 84 91 94 86 88 86 76 72 77 86 81 92 85 88
66 57 56 60 70 68 80 91 97 89 97 98 94 86 85 88 76 67 70 67 69 67 66 68 68 71 72 73 74 78 85 88 95 99 95 86 82 73 75 73 80 84 84 80 79
55 57 55 59 69 76 84 95 86 88 93 97 95 85 87 79 70 68 69 69 70 74 76 70 72 73 76 77 82 89 93 91 92 98 93 95 87 75 75 74 74 71 76 78 81
57 57 60 64 68 74 80 73 77 91 95 94 88 85 75 69 72 72 73 72 76 81 82 81 75 79 79 82 88 92 97 97 95 98 97 96 97 89 83 78 78 75 78 81 90
51 50 56 55 60 66 68 85 90 92 84 79 80 72 72 71 66 71 75 77 81 80 88 84 82 77 81 88 93 97 98 96 98 92 97 96 98 95 94 90 90 92 95 98 98
45 50 58 58 59 61 69 74 81 78 77 74 66 63 68 65 64 73 80 79 84 87 83 84 89 79 81 89 93 97 96 98 98 98 97 95 97 97 98 97 97 98 98 98 98
63 62 63 61 62 65 72 83 80 79 71 67 62 57 59 68 73 81 81 81 85 86 84 87 88 76 79 82 82 88 92 94 91 97 97 93 95 97 98 98 98 98 98 98 98
60 67 69 68 70 79 83 82 80 75 65 61 57 60 72 80 86 88 85 82 82 84 86 82 81 82 70 66 67 67 70 75 83 79 86 85 94 95 98 96 96 98 99 98 98
57 60 62 61 67 70 67 64 61 57 58 60 65 71 77 84 83 80 77 74 77 76 75 72 75 80 64 57 56 59 61 64 69 73 78 82 84 88 91 94 94 96 94 90 83
54 58 57 57 61 62 63 59 58 60 64 68 72 73 76 76 72 72 71 65 63 61 60 60 63 64 65 60 57 53 52 55 54 63 62 64 70 74 78 83 82 79 77 75 75
51 57 59 62 59 60 59 60 63 67 68 70 69 69 65 66 65 65 59 53 50 50 50 48 50 52 48 47 45 42 46 49 52 50 49 53 55 54 55 57 57 55 54 55 54
47 53 55 56 57 56 58 61 62 61 60 60 60 58 54 55 55 53 50 44 43 41 42 44 44 47 46 42 43 41 39 43 44 43 45 46 45 44 45 46 47 47 47 46 46
43 45 46 48 49 49 52 50 50 49 49 49 47 46 43 43 42 42 41 39 37 38 39 40 44 48 42 41 41 36 32 38 38 39 38 40 38 41 42 43 42 42 42 43 44

GFSSW_prec_cthk_096.txt.gz
RH
62 65 82 87 88 92 82 70 53 50 57 67 65 78 73 58 47 41 32 24 22 20 16 14 14 15 18 22 21 21 26 30 27 30 24 22 22 20 19 18 19 24 30 32 32
60 60 59 72 88 91 96 89 74 55 52 67 66 75 79 70 57 46 37 30 25 21 17 17 17 16 18 22 22 24 27 25 27 27 25 23 22 20 19 17 16 15 17 25 33
54 58 61 63 76 92 96 96 90 75 56 61 74 76 80 82 69 53 44 37 36 26 23 21 21 21 22 22 24 26 27 26 25 25 26 25 22 21 21 20 16 17 15 16 20
47 55 63 62 72 92 98 95 93 83 70 61 86 83 78 85 73 52 49 46 39 28 28 28 27 27 28 28 28 28 29 28 28 26 26 24 23 21 19 18 18 17 17 16 16
50 54 65 71 80 93 97 96 89 91 67 68 78 86 83 89 82 59 49 50 38 31 28 29 31 31 30 29 28 29 29 28 27 26 23 22 23 22 20 18 16 15 16 16 15
47 53 60 72 82 91 98 95 93 90 74 73 90 98 96 90 95 82 53 47 39 36 36 36 34 32 30 30 28 30 29 28 26 23 23 23 21 22 21 18 17 16 15 14 14
54 60 63 69 80 90 94 93 89 86 75 75 97 90 95 96 96 87 68 58 51 48 43 39 35 31 31 31 32 31 32 30 27 26 27 27 24 26 22 21 21 22 23 22 20
59 60 69 80 80 85 86 80 79 78 75 70 89 98 96 96 92 83 75 64 55 47 41 39 36 34 36 37 38 38 38 39 29 32 32 34 33 25 26 28 28 27 26 27 26
69 56 62 82 87 83 76 68 74 70 76 70 90 98 94 98 97 91 80 69 57 49 45 42 40 43 44 45 45 45 52 47 41 39 42 44 39 34 35 34 33 33 34 33 32
77 55 63 80 81 82 62 64 94 82 82 88 98 94 97 97 96 92 83 72 62 55 51 50 50 51 51 48 46 43 52 49 51 44 46 49 43 39 44 43 41 40 38 38 33
85 60 63 62 69 74 59 89 98 84 91 99 98 92 96 97 96 89 80 71 64 61 60 57 53 51 48 47 46 50 54 56 52 53 55 56 48 40 43 48 50 50 45 45 43
83 64 59 56 62 71 69 96 96 92 98 99 98 96 94 93 89 81 84 75 69 64 57 56 54 48 48 49 52 54 60 58 58 58 59 59 53 52 56 57 63 67 62 59 61
78 63 58 52 66 70 87 97 99 98 98 98 99 98 97 95 93 88 72 71 66 61 57 52 49 49 49 53 57 58 63 65 68 66 68 70 60 62 61 74 76 71 75 77 76
67 55 45 54 71 80 93 98 98 97 95 98 97 97 94 81 81 75 73 69 65 59 58 56 51 52 55 58 58 66 64 68 76 83 85 82 81 70 72 73 78 87 89 93 84
47 42 50 68 75 84 98 99 98 93 94 98 97 90 87 91 82 80 73 64 63 62 58 56 57 59 62 60 62 64 67 74 79 86 90 94 96 70 74 71 79 83 90 92 97
45 49 53 66 78 90 94 96 91 83 96 98 96 94 93 88 84 73 67 63 62 62 62 61 61 64 61 65 65 70 78 80 82 87 94 86 95 84 77 81 80 84 88 92 88
47 56 63 72 78 85 83 80 81 88 95 97 92 90 90 79 70 69 66 64 65 67 68 64 67 64 67 73 73 82 90 88 86 92 91 94 95 80 80 78 81 80 79 82 84
58 63 63 66 71 70 65 67 78 92 90 87 84 81 78 69 67 66 67 69 69 72 73 73 71 75 77 80 87 93 96 96 93 95 94 98 97 93 90 84 82 78 76 81 87
45 47 51 57 57 59 62 72 85 86 80 80 77 70 69 69 67 69 73 75 75 71 81 80 82 78 83 86 90 95 98 97 97 97 97 94 96 96 97 95 90 92 91 94 98
43 46 48 50 52 51 58 75 80 77 72 70 66 63 66 65 65 74 76 76 82 81 82 86 91 80 84 88 88 94 95 97 97 97 96 96 96 98 98 98 98 98 98 98 98
50 48 49 48 47 49 59 69 68 65 63 62 57 55 58 65 70 78 80 79 80 84 86 89 89 80 80 81 77 85 86 93 96 98 97 95 96 97 98 98 98 98 98 98 98
53 57 58 55 52 54 62 65 64 62 57 56 54 60 69 76 78 84 84 81 80 84 88 85 84 82 67 62 63 65 72 76 86 83 88 88 93 96 97 98 98 96 97 98 98
45 53 56 53 56 58 57 58 59 57 59 65 68 71 76 79 80 82 78 73 75 79 77 75 74 76 58 53 52 58 59 63 67 71 76 83 84 90 93 93 95 96 95 93 90
39 48 50 52 55 56 57 58 60 64 70 73 74 70 71 73 72 70 67 61 60 60 60 60 59 58 58 52 52 49 49 55 56 63 60 63 68 71 78 84 83 80 78 75 75
41 51 52 55 53 57 59 65 68 71 69 67 65 66 67 67 63 58 53 51 50 48 50 49 47 48 44 45 43 42 41 47 49 47 45 48 52 52 55 57 59 57 55 54 54
41 46 49 51 52 54 57 61 62 61 60 58 56 56 55 55 53 50 49 44 42 41 42 44 43 44 45 37 39 40 36 38 41 43 43 45 44 43 44 45 46 47 47 48 48
35 38 39 42 43 44 50 48 48 48 48 48 48 46 44 44 44 42 40 40 39 39 38 40 42 45 41 34 36 33 29 33 35 36 36 38 35 39 41 42 42 42 43 45 46

GFSSW_prec_cthk_099.txt.gz
RH
46 52 53 52 50 63 80 92 84 65 49 50 59 69 73 72 56 50 40 32 26 25 20 15 14 15 17 19 18 18 20 21 22 27 22 22 20 19 19 18 17 16 16 16 21
58 54 56 54 48 49 61 74 92 91 66 51 56 65 73 80 70 57 45 36 31 25 21 18 16 16 17 20 20 20 19 19 23 24 23 21 21 19 18 17 15 14 13 13 13
66 62 57 56 53 50 54 70 76 92 90 64 63 65 83 93 82 68 55 43 39 29 23 22 18 16 19 22 22 24 22 24 24 25 23 22 20 20 20 19 15 15 14 13 12
59 54 52 53 56 55 57 68 77 79 90 81 67 78 74 85 92 73 60 55 45 33 30 28 25 22 25 25 25 25 26 26 26 24 24 22 19 18 17 16 14 12 13 13 13
62 56 52 52 52 54 63 78 87 83 80 86 75 88 84 82 85 73 69 63 48 41 35 30 29 28 30 29 28 29 28 26 24 21 20 20 20 19 18 15 15 14 14 12 12
65 58 52 49 50 60 75 85 97 90 84 77 82 89 98 90 87 85 73 63 49 39 35 32 31 29 28 30 27 28 27 24 21 21 22 23 22 22 17 17 18 17 16 16 17
88 77 65 60 60 65 83 90 94 95 88 86 86 93 99 97 94 93 79 60 48 42 39 36 32 28 29 30 30 29 27 26 25 25 26 26 23 24 20 22 22 22 22 21 20
94 84 61 64 69 76 78 89 87 90 85 78 93 93 96 98 94 93 90 75 63 54 46 40 36 32 32 33 31 34 33 31 27 31 33 35 33 27 30 31 31 29 26 25 23
93 92 62 54 74 84 85 79 77 83 76 81 99 96 98 96 96 95 84 75 67 56 47 41 36 37 37 37 38 39 42 43 41 40 43 44 40 38 37 36 34 33 31 30 28
97 75 54 60 72 75 77 74 92 90 84 87 99 98 99 99 95 92 83 76 67 59 48 43 42 45 45 43 43 47 50 49 48 43 45 46 42 37 35 35 34 34 35 35 34
86 60 52 53 60 67 74 76 98 96 92 92 96 97 96 95 91 87 82 78 67 59 57 56 53 50 50 49 46 50 53 57 48 45 47 45 44 39 39 41 42 46 47 47 47
63 53 52 51 58 66 73 81 96 94 96 99 96 98 98 97 94 89 81 74 71 70 64 59 58 54 51 51 51 53 55 54 46 49 51 52 52 48 53 56 54 56 58 59 57
50 48 48 58 63 79 87 92 97 95 98 99 98 98 98 91 88 87 76 73 71 68 63 56 57 53 50 51 54 54 53 53 57 56 61 64 60 56 63 65 54 64 67 70 78
48 55 64 74 86 88 95 96 95 94 95 98 98 98 98 94 91 83 77 70 69 63 59 57 53 52 52 54 51 54 49 56 64 71 72 74 73 64 67 66 56 67 78 84 92
73 82 90 88 94 96 98 98 95 88 92 98 98 95 91 90 81 79 76 70 67 64 57 56 54 56 55 53 51 54 57 63 70 79 80 81 86 68 72 66 66 72 83 85 90
70 78 85 90 95 94 94 89 83 77 94 97 98 98 92 88 85 76 72 66 62 60 59 55 55 57 56 55 58 59 70 78 80 81 82 77 83 72 74 71 75 83 83 85 89
62 68 75 80 83 81 80 77 73 80 96 97 97 90 85 83 78 71 67 64 63 62 60 59 61 58 60 68 70 79 88 83 78 81 79 81 89 79 86 84 79 78 78 79 83
48 55 60 69 72 67 66 69 73 88 91 93 86 78 76 72 71 69 65 65 62 64 64 67 65 69 74 79 86 89 88 85 87 85 82 90 91 93 96 97 91 87 82 80 83
46 53 60 61 60 61 64 69 81 85 83 80 77 72 73 68 64 65 66 65 63 63 70 76 80 78 83 81 83 88 89 86 90 85 91 86 95 97 97 98 97 97 95 93 95
42 43 50 53 53 55 56 64 71 68 66 65 64 59 62 61 60 65 67 69 74 73 79 86 89 78 79 79 79 78 82 90 93 92 90 89 95 98 98 98 98 98 98 98 98
41 40 46 46 45 44 51 65 65 63 61 55 51 55 58 63 66 72 75 75 80 85 84 83 82 74 75 77 74 81 83 84 91 97 95 93 92 97 98 98 98 98 97 98 98
38 43 42 41 41 51 56 57 55 54 53 51 52 57 64 69 74 80 79 79 82 83 83 80 78 77 64 62 62 61 66 71 80 81 88 88 86 95 97 96 97 97 97 98 98
36 41 40 38 46 48 48 53 56 57 59 61 63 68 73 77 76 76 77 74 75 76 76 73 71 69 51 49 49 51 54 58 62 65 67 74 76 86 90 90 92 92 93 92 90
34 42 39 39 46 50 54 58 60 63 64 66 68 68 69 69 67 66 62 60 61 62 59 56 55 52 51 43 46 48 45 50 54 57 53 55 57 59 70 71 72 74 73 72 71
35 45 48 52 51 54 56 60 62 64 61 62 62 63 58 54 50 51 49 48 47 46 49 49 47 46 42 42 43 43 41 41 48 45 44 41 50 48 48 50 51 51 50 50 50
34 38 41 47 48 50 52 56 57 55 54 53 52 49 46 46 45 44 44 39 38 39 40 43 44 42 42 36 38 39 37 39 41 42 42 42 41 37 40 42 44 43 41 41 42
27 31 32 36 39 39 42 40 41 41 41 42 43 41 38 38 38 38 37 36 36 35 35 38 41 43 39 32 34 33 28 32 34 34 33 38 30 34 37 38 37 38 39 39 40

GFSSW_prec_cthk_102.txt.gz
RH
73 73 70 67 58 47 51 67 83 89 75 55 59 56 61 79 69 55 43 35 29 26 21 17 15 17 17 19 20 14 12 13 15 17 17 19 17 18 16 16 15 15 15 15 15
88 81 73 83 79 63 46 48 67 74 92 76 60 62 66 69 71 66 48 38 33 28 24 22 19 18 19 20 19 16 14 13 17 18 18 18 19 17 15 15 13 13 12 11 11
68 73 83 81 73 72 57 49 58 65 72 92 73 67 72 68 77 74 57 47 40 30 24 22 20 18 18 21 21 20 18 18 20 21 19 18 17 18 16 14 13 12 11 12 11
71 74 70 65 66 59 58 49 64 64 70 71 87 73 81 74 77 72 69 57 44 33 29 26 23 20 20 20 20 19 22 21 22 20 20 19 17 15 15 13 12 13 13 12 11
73 71 67 61 51 47 49 60 70 74 74 69 82 82 85 88 85 80 80 72 49 40 36 30 27 25 23 22 22 22 24 23 21 20 19 19 18 17 15 14 15 14 14 14 14
81 66 64 57 48 44 51 57 68 85 82 71 76 87 90 94 94 90 89 80 55 46 40 34 30 27 27 27 24 25 23 22 20 21 21 20 19 20 15 17 17 17 17 17 17
91 85 76 59 53 55 58 64 65 80 89 75 73 90 97 94 88 96 84 69 58 45 38 35 31 28 27 28 26 25 23 22 23 23 24 25 23 23 19 23 24 24 23 23 22
98 96 81 57 65 59 60 71 74 87 94 76 75 94 95 99 90 85 76 63 61 51 41 37 33 29 30 29 28 27 26 24 24 27 30 31 26 26 28 30 28 27 27 27 25
98 97 84 60 59 67 70 71 74 79 87 77 87 99 98 99 95 89 76 72 71 60 49 40 33 35 34 32 33 30 34 31 31 34 37 38 34 33 33 32 30 29 28 28 27
71 66 59 56 59 67 73 80 88 74 90 83 97 98 99 98 96 92 87 77 72 65 53 46 44 41 38 34 40 38 41 39 40 40 40 42 37 34 35 32 34 34 35 36 37
56 53 52 52 52 61 68 84 92 98 96 93 98 99 99 96 94 91 86 79 70 61 58 52 47 47 42 38 38 42 47 51 45 43 43 40 37 36 38 39 42 43 43 43 43
48 48 49 52 56 57 67 78 91 92 96 99 98 97 98 96 93 91 85 76 69 65 60 56 57 49 48 50 50 51 51 48 42 43 43 38 36 39 41 48 49 51 50 51 53
64 61 68 72 72 69 76 93 95 89 97 99 98 99 98 94 90 84 78 75 71 64 58 59 60 58 54 55 53 48 44 44 49 45 45 46 39 43 48 56 58 60 56 57 63
78 83 85 90 90 87 91 97 92 91 96 98 98 98 98 94 90 84 79 74 71 67 64 63 60 55 51 54 47 46 41 43 50 56 59 57 59 51 54 59 62 62 62 63 71
84 90 92 93 87 93 96 96 92 86 89 98 98 97 96 91 85 82 79 72 68 63 62 63 57 55 52 47 45 45 45 51 56 66 70 62 76 56 59 62 69 65 77 78 78
76 80 90 93 88 89 92 91 79 77 93 98 97 96 91 89 85 79 74 67 67 62 58 54 53 54 50 48 47 51 58 66 68 72 76 63 74 67 64 78 85 79 77 78 79
67 71 75 80 83 86 78 71 74 76 92 97 97 92 87 83 77 74 71 64 61 65 65 58 59 54 53 55 60 66 75 75 75 79 74 68 76 68 77 88 90 88 84 74 75
61 64 68 66 64 65 64 68 72 86 90 93 87 82 77 71 70 66 61 61 59 58 61 62 65 56 63 66 73 80 82 83 80 73 72 75 80 77 88 88 88 92 92 88 82
52 55 58 58 57 60 62 68 76 74 73 73 70 67 67 64 60 63 62 60 60 56 60 65 74 69 74 73 77 83 84 83 87 75 82 70 80 89 89 91 92 94 94 95 95
42 43 46 48 51 53 48 59 62 62 60 57 55 55 59 59 60 60 61 59 62 62 68 73 82 72 73 72 72 73 76 85 88 84 76 68 79 87 91 93 94 94 93 95 94
34 37 41 40 42 41 49 54 54 56 54 51 50 53 57 60 62 65 66 69 74 76 76 77 72 67 68 72 71 77 77 76 78 82 80 74 72 86 92 94 96 95 95 95 94
30 38 38 35 38 45 49 51 51 51 53 54 56 60 62 66 69 70 71 72 75 75 73 69 65 68 59 58 57 56 55 55 62 68 66 71 69 79 86 87 89 89 91 92 94
31 35 38 37 48 48 49 51 53 54 56 58 62 64 67 68 68 69 68 67 67 67 63 60 57 56 44 43 44 43 45 46 50 53 53 54 49 63 74 78 80 82 84 86 87
30 41 40 41 47 50 54 58 58 60 60 61 62 61 61 61 60 58 56 56 56 54 51 49 46 42 37 34 37 39 38 39 44 49 41 39 39 47 53 55 57 56 57 57 55
32 41 44 48 46 48 49 54 57 58 55 53 50 51 49 46 45 44 44 42 43 42 43 44 44 40 35 34 36 36 35 35 40 37 38 30 34 34 39 41 43 45 46 43 43
29 35 37 41 43 42 41 47 48 49 48 44 42 40 38 37 38 37 38 35 34 36 38 41 43 38 38 30 33 34 31 31 31 32 35 32 31 28 33 37 38 40 39 38 39
21 23 25 28 29 29 33 33 34 35 34 35 35 33 32 33 34 33 33 33 33 34 34 36 38 38 34 27 27 25 21 24 26 27 28 31 25 28 32 35 36 38 39 38 39

GFSSW_prec_cthk_105.txt.gz
RH
85 86 83 73 76 71 64 61 79 84 82 66 59 72 82 73 67 55 46 36 34 27 22 20 19 16 20 23 21 16 15 15 17 14 18 17 17 17 15 14 15 13 12 13 13
61 63 64 79 74 85 78 59 62 79 86 86 66 58 71 77 71 62 50 35 31 29 28 25 24 21 19 20 18 15 15 16 18 18 17 19 17 17 14 14 12 12 12 12 11
63 63 62 65 80 93 90 72 57 58 75 88 88 62 65 78 75 68 58 39 34 29 30 28 25 21 22 21 19 18 19 17 18 18 17 15 14 15 15 12 12 12 12 11 11
75 77 76 71 79 82 83 74 63 55 61 70 92 82 82 84 90 71 65 57 38 32 28 28 26 22 24 22 19 20 18 18 19 19 17 15 14 12 11 11 11 11 11 11 12
85 79 80 83 72 69 67 63 63 68 58 57 76 93 85 88 89 75 66 64 44 35 32 28 25 26 23 22 18 18 19 19 19 19 16 15 14 13 12 12 11 12 12 13 13
85 80 67 65 64 49 51 52 61 74 74 64 65 87 89 94 90 76 80 70 56 43 38 32 30 27 26 24 22 21 19 17 17 16 16 16 14 15 13 14 15 16 17 17 17
89 89 79 66 55 50 45 48 48 62 70 73 64 74 89 92 94 80 93 83 65 55 42 35 31 27 26 25 24 22 19 18 18 18 18 20 18 19 17 17 20 21 20 21 21
93 90 83 57 60 55 54 53 55 57 75 79 69 72 88 92 97 93 95 83 73 58 42 35 31 30 29 26 24 25 22 24 23 22 25 25 20 23 22 26 26 26 25 24 24
96 95 81 61 59 57 56 53 58 68 89 80 77 80 90 96 98 97 88 74 71 61 46 37 34 33 31 32 33 27 38 26 28 27 29 31 28 29 30 32 31 32 33 32 32
56 65 55 59 58 59 58 58 65 88 98 83 89 86 97 96 96 90 83 74 71 63 55 46 40 37 35 33 44 36 34 31 31 34 34 35 35 33 33 33 36 37 36 36 36
54 50 49 49 52 59 84 93 91 94 92 91 98 95 97 97 92 88 84 76 72 66 62 58 54 50 42 38 36 34 34 35 35 37 41 38 35 32 32 33 37 39 40 40 38
69 63 56 55 55 65 82 93 94 88 90 95 98 98 98 98 97 94 85 75 68 69 62 59 57 51 44 42 44 45 43 46 43 43 43 37 33 33 34 36 40 44 47 44 46
86 86 78 72 61 65 83 92 95 94 97 98 97 98 98 97 94 90 85 79 71 67 58 62 57 51 50 52 51 48 48 48 51 44 40 43 36 37 37 43 47 50 55 56 57
94 92 90 90 79 87 93 96 95 94 97 98 98 99 98 96 92 90 85 77 69 64 62 60 57 56 56 59 54 54 44 42 44 47 49 44 51 42 45 47 54 59 62 66 64
90 88 91 89 90 90 91 94 95 91 94 98 98 97 97 92 84 83 78 76 70 68 68 73 66 65 59 56 48 49 42 43 46 51 58 53 65 51 51 52 60 67 74 73 67
75 83 88 85 85 85 89 89 83 92 95 98 97 97 94 89 85 82 79 74 70 66 64 61 59 56 54 49 46 43 47 50 57 62 66 57 62 54 59 64 70 74 80 78 70
69 72 81 85 84 82 76 72 83 83 96 97 97 92 86 84 77 75 69 66 68 72 70 57 57 54 52 52 51 52 61 73 73 74 70 62 64 58 65 78 81 78 78 79 74
58 62 63 68 72 69 64 72 76 86 88 93 85 81 80 74 72 70 64 60 57 56 60 67 66 56 53 57 62 69 75 76 74 71 68 65 73 67 75 80 82 82 81 80 80
48 51 55 57 58 61 71 75 81 81 80 80 71 69 67 63 59 61 60 57 56 53 60 64 69 59 60 63 69 77 80 74 80 66 79 66 67 75 78 82 82 81 82 81 81
41 45 48 51 53 51 54 61 62 60 58 57 57 56 53 54 56 57 57 55 54 54 58 61 72 62 66 66 67 66 70 81 85 83 77 69 68 74 80 84 84 83 83 83 84
30 38 41 43 42 44 58 53 49 50 52 52 49 50 51 55 54 55 54 54 60 63 68 70 68 64 64 64 65 69 70 70 69 71 78 65 66 65 73 77 78 77 78 79 81
29 36 36 36 39 44 50 51 50 49 51 52 52 54 57 60 61 61 63 67 71 71 70 65 61 62 54 52 51 52 51 48 56 60 54 55 53 53 59 65 69 72 76 79 80
33 35 37 43 52 49 47 48 51 52 55 56 60 62 64 64 64 65 64 64 65 65 61 55 53 52 42 40 40 43 41 42 43 48 47 47 40 41 43 47 51 55 58 60 60
33 41 42 45 49 50 51 54 55 57 57 58 60 61 61 60 58 57 56 55 53 51 47 45 43 41 41 37 35 36 36 36 39 46 38 34 29 37 37 38 42 44 46 46 46
34 37 40 45 43 45 46 49 49 49 47 46 46 46 44 42 40 40 40 39 41 40 39 39 40 38 32 28 28 29 30 32 38 35 35 26 26 26 32 33 35 38 39 40 41
27 30 31 31 31 33 34 38 38 38 37 34 34 34 32 32 33 32 33 31 30 33 35 36 38 33 34 24 26 27 25 25 27 29 29 27 24 22 24 32 33 34 36 38 38
20 21 23 22 24 24 24 25 27 28 27 27 27 26 26 27 28 28 29 28 28 27 29 31 32 35 34 25 24 22 17 19 21 22 22 26 22 24 24 29 31 33 34 36 37

GFSSW_prec_cthk_108.txt.gz
RH
64 75 96 97 90 82 73 65 66 74 67 65 65 73 80 81 67 56 43 33 34 27 23 20 19 20 24 24 25 21 21 19 19 17 22 18 17 15 14 14 13 12 12 13 14
59 60 65 71 71 70 73 75 64 74 77 70 73 62 75 84 80 69 51 37 31 30 26 24 23 20 19 20 18 16 19 25 22 20 20 18 16 15 12 12 12 13 12 13 11
80 70 63 58 57 58 70 77 73 67 72 75 77 74 67 87 89 75 61 43 30 29 31 27 25 23 21 17 16 16 23 21 21 18 17 15 14 14 13 13 13 12 11 10 10
90 81 75 71 70 77 75 81 81 66 66 74 76 86 68 84 96 86 69 51 36 30 29 30 27 24 24 21 17 20 19 19 19 18 16 15 14 12 11 11 11 10 10 10 10
91 76 74 80 78 75 77 86 83 75 63 58 66 85 86 83 91 92 74 66 45 33 29 27 28 27 25 23 18 18 20 18 18 17 15 14 13 12 10 10 10 10 11 12 13
93 87 70 68 76 70 80 84 81 76 68 63 61 78 90 92 85 89 84 74 56 42 34 28 26 27 26 25 22 19 20 18 16 15 14 13 12 12 11 11 13 15 16 17 17
88 84 72 67 71 61 62 63 70 77 78 73 60 71 91 94 87 86 95 73 58 54 41 34 29 24 24 23 22 19 18 18 17 15 15 14 15 17 15 15 16 19 20 20 21
94 91 73 56 57 57 57 53 52 54 75 77 65 80 94 97 91 95 88 89 65 55 46 35 30 27 25 22 20 20 18 21 20 19 19 19 18 20 19 22 23 24 27 26 27
90 94 76 62 62 60 55 53 57 60 75 83 73 87 91 98 96 94 89 87 78 64 49 36 31 28 25 28 30 24 38 25 28 25 24 26 25 24 25 26 28 30 33 33 34
64 68 69 66 62 58 58 54 59 75 85 85 76 90 88 99 97 96 82 80 76 68 52 37 33 32 30 35 49 37 32 30 28 32 31 31 30 27 29 30 32 33 36 36 36
45 44 46 50 54 65 72 62 74 90 86 87 81 86 89 97 92 91 89 77 68 64 59 48 44 45 36 36 34 36 32 34 33 33 36 36 36 33 33 34 37 36 38 39 38
68 56 55 51 58 86 85 83 91 88 91 96 85 93 92 93 89 87 84 76 71 71 59 59 60 48 42 38 37 36 38 43 44 44 45 44 42 37 34 36 36 37 40 42 44
86 75 70 65 67 83 90 87 84 83 94 98 92 93 95 94 92 85 81 78 72 68 66 66 60 55 52 52 49 48 49 51 54 49 47 48 42 36 35 36 39 41 44 51 53
83 73 73 72 73 85 87 86 90 93 97 99 98 99 97 96 95 90 82 75 71 66 64 63 58 55 52 54 50 54 50 49 52 55 58 43 55 39 39 41 43 48 53 58 59
78 76 75 82 89 91 89 93 93 92 93 98 98 98 97 95 92 89 82 80 71 67 65 67 57 57 57 57 53 63 55 53 52 47 50 46 58 47 44 48 51 57 63 63 59
74 78 80 84 87 88 88 90 91 90 95 98 96 97 92 91 86 85 82 77 71 66 67 64 61 61 65 59 57 53 49 49 48 52 60 54 59 53 54 56 60 64 67 66 62
66 73 70 76 78 79 80 78 84 85 95 98 98 96 85 86 85 81 77 75 77 82 81 71 67 63 60 56 51 48 54 62 68 70 69 57 60 57 57 63 67 70 72 72 68
53 58 65 64 70 73 72 77 79 91 94 96 92 88 84 79 78 75 73 71 66 65 69 64 67 56 53 53 54 59 64 74 67 70 69 60 69 60 65 68 72 73 72 69 69
47 51 54 61 64 70 74 76 86 87 82 81 80 77 75 72 68 66 60 59 54 55 59 64 66 54 55 57 59 69 76 70 74 64 74 68 65 68 69 69 70 70 71 71 70
39 42 47 51 56 58 61 68 74 70 71 68 63 58 58 59 59 59 56 54 54 51 54 57 63 58 61 61 62 68 67 80 81 83 79 70 67 71 68 67 69 70 69 70 71
33 36 36 39 38 38 52 50 49 50 52 52 49 50 50 54 53 53 52 51 54 57 61 61 64 64 64 65 70 70 67 67 66 68 71 70 68 56 52 57 60 62 63 65 66
31 38 36 37 41 46 51 49 49 51 52 53 53 54 55 53 54 56 60 62 64 64 65 60 64 70 63 56 52 52 51 53 60 65 60 55 50 47 40 40 43 48 49 52 52
36 39 43 44 55 54 53 55 56 56 57 57 58 57 57 57 60 61 61 61 61 61 60 54 55 58 47 43 41 40 38 40 41 47 51 57 44 40 37 35 35 36 38 40 41
34 41 42 44 48 51 53 54 55 56 55 54 54 55 54 52 51 50 50 48 46 45 42 40 40 42 50 39 34 36 35 36 39 52 42 39 31 38 35 34 32 33 34 36 37
29 33 37 42 40 40 39 42 43 43 42 40 38 37 36 36 34 35 33 34 35 35 34 34 37 35 33 29 28 28 28 32 36 33 39 25 28 25 30 30 31 31 34 36 37
23 27 25 25 27 29 28 30 31 30 32 29 29 28 29 29 30 30 29 29 28 32 33 33 36 31 34 25 26 28 26 25 26 30 31 29 27 23 20 24 29 30 32 34 35
19 20 24 22 23 24 25 25 26 27 26 26 26 27 26 27 26 26 26 26 26 26 28 30 35 37 38 30 30 29 20 21 22 22 24 30 22 24 25 26 28 30 31 32 34

GFSSW_prec_cthk_111.txt.gz
RH
92 83 67 79 93 92 94 83 62 64 70 62 57 72 88 93 80 59 45 37 36 31 24 23 24 28 29 31 31 27 29 31 33 31 33 31 26 23 22 19 17 16 15 15 14
93 84 79 80 94 96 91 88 82 64 68 71 65 60 81 93 88 69 53 38 33 28 27 23 24 24 23 24 24 22 28 28 29 27 27 20 16 15 12 12 11 11 11 11 10
94 81 75 58 70 87 79 72 78 74 66 73 70 70 67 95 93 81 64 48 31 28 29 28 23 22 20 19 19 19 24 24 25 22 18 14 12 13 13 13 12 11 11 10 10
95 85 76 68 62 65 68 69 69 71 65 76 72 72 72 85 85 92 74 53 34 30 29 28 26 24 22 20 17 18 20 21 22 17 13 14 13 12 12 11 11 11 10 9 9
89 80 70 71 72 76 79 68 68 67 70 69 75 80 76 76 83 94 84 62 41 33 31 29 25 25 23 21 17 18 18 16 17 14 13 13 12 12 10 10 10 11 13 14 15
89 78 68 63 66 69 71 80 79 78 73 68 69 76 80 83 83 94 95 69 48 36 31 29 28 27 26 22 19 18 19 17 16 14 13 13 13 12 10 11 12 14 16 17 18
88 74 61 56 68 67 78 89 92 94 85 72 62 65 84 84 90 89 96 76 59 41 33 29 27 26 26 26 23 20 17 17 16 15 14 13 14 15 13 14 16 18 19 20 22
96 83 56 52 60 63 76 81 88 86 78 73 66 68 78 84 94 96 92 83 69 52 36 29 26 24 23 22 21 20 18 21 18 17 17 16 12 16 17 19 20 21 23 24 29
91 81 63 59 55 54 71 68 63 67 79 82 75 70 81 94 94 93 93 86 72 59 47 35 29 26 22 23 27 21 33 20 21 20 21 21 20 20 21 23 24 27 29 30 32
53 69 68 58 51 49 47 50 60 63 86 86 84 78 93 98 95 90 87 82 78 58 48 36 30 29 28 33 35 29 28 26 24 27 27 29 27 25 24 28 29 32 35 35 35
41 37 42 49 51 57 53 63 74 76 91 85 92 90 96 97 91 92 83 80 83 69 54 43 39 38 32 30 31 31 31 32 30 32 33 32 33 30 30 33 37 38 38 37 35
57 51 45 49 61 65 60 74 88 84 92 83 91 95 98 98 98 87 84 79 77 72 56 55 48 38 34 33 32 32 33 38 39 38 37 38 41 39 39 39 38 37 36 35 36
65 61 59 59 69 70 77 81 82 90 93 85 95 98 98 94 95 91 82 76 72 65 63 60 51 44 40 39 38 38 39 45 49 46 47 47 45 40 38 35 34 35 37 40 43
66 58 56 59 71 74 77 85 94 93 87 93 98 98 97 92 94 92 84 76 69 70 68 65 58 52 52 50 48 50 50 51 52 54 59 49 52 39 34 36 40 43 46 49 52
74 70 64 62 70 73 76 85 86 84 89 98 98 96 96 92 85 83 82 78 72 72 68 68 58 55 56 55 52 58 53 53 54 56 56 47 55 40 40 43 48 53 55 58 58
69 72 69 70 72 68 72 78 81 76 94 98 97 97 95 92 88 80 79 71 71 68 66 60 57 58 60 57 56 56 57 57 52 49 57 50 55 50 49 47 54 59 62 63 62
64 68 68 66 69 69 68 70 74 83 97 97 97 95 90 91 88 85 78 76 75 72 75 66 64 61 62 62 59 54 52 58 60 67 62 54 60 51 50 57 59 62 64 64 62
55 64 65 67 68 67 68 71 73 91 94 95 92 90 89 86 82 79 75 74 73 72 75 73 69 66 62 57 56 52 52 62 66 71 67 57 61 52 59 62 62 61 61 62 62
44 55 63 64 65 67 67 73 83 85 83 86 84 82 81 78 79 77 75 71 65 61 60 65 66 56 55 50 51 61 64 64 71 65 71 64 59 61 61 61 60 60 61 60 60
36 39 44 51 59 59 59 67 75 76 74 72 71 66 67 66 64 60 58 53 52 50 52 53 61 57 55 56 57 64 63 71 76 76 69 67 65 65 56 50 54 55 55 54 54
37 37 38 38 36 36 48 49 49 52 54 55 48 47 49 50 51 50 48 48 48 51 54 56 57 63 63 61 61 64 64 63 60 65 68 70 58 52 41 35 35 38 39 39 41
35 42 44 43 44 49 54 53 53 54 52 52 52 52 50 47 51 55 55 56 58 59 62 59 62 69 60 56 55 53 50 50 59 61 58 58 45 35 37 33 31 30 32 33 34
35 40 45 49 54 57 56 58 60 60 60 58 59 60 61 61 63 62 62 59 59 58 58 51 53 57 50 45 40 42 41 41 42 45 48 54 39 36 34 33 31 30 31 32 33
30 36 36 39 44 47 49 50 52 52 52 52 53 52 51 49 46 45 45 43 43 43 40 38 43 41 45 36 35 39 35 36 40 51 41 40 32 32 34 34 32 31 30 32 33
21 27 32 34 33 35 36 38 38 39 37 36 35 37 38 36 34 35 35 36 35 36 34 34 38 34 33 32 32 32 31 32 40 34 41 28 28 23 28 31 26 26 30 30 31
19 22 21 21 25 25 25 28 30 30 30 28 27 27 27 29 30 31 29 29 31 34 32 33 34 34 35 28 31 33 29 28 29 32 33 30 27 23 20 22 25 25 29 29 28
16 18 20 20 23 24 25 25 25 26 25 24 25 25 25 25 23 22 24 26 29 30 32 35 38 38 35 33 31 26 23 23 24 23 24 32 19 21 21 23 25 26 28 28 29

GFSSW_prec_cthk_114.txt.gz
RH
79 87 89 92 74 97 98 95 87 84 67 61 60 88 89 85 82 65 45 41 39 30 27 28 31 37 37 36 34 30 32 33 34 32 33 30 30 28 27 26 24 24 22 19 17
87 88 87 94 81 94 95 95 93 84 79 69 64 72 78 91 87 82 56 41 36 32 28 29 31 33 34 36 32 31 36 34 33 32 33 32 29 23 22 22 19 15 13 13 12
84 82 80 88 84 77 93 96 94 89 76 76 71 65 82 88 94 87 75 48 36 34 30 31 28 25 25 28 28 28 31 33 33 30 29 26 21 17 15 13 11 11 11 11 11
85 82 72 74 71 77 86 87 87 90 82 73 82 70 76 87 96 93 82 53 33 36 32 28 25 22 24 24 25 25 27 27 27 25 19 16 13 12 11 10 11 10 10 10 9
84 75 74 71 68 67 76 81 86 82 81 74 75 79 81 91 91 95 85 60 38 34 33 30 25 22 22 20 19 21 22 23 22 18 14 13 12 11 10 9 9 10 12 13 13
82 64 51 49 52 58 70 76 81 82 74 72 73 90 89 81 88 96 91 69 44 35 34 31 26 23 22 20 18 19 18 17 15 14 13 13 13 12 9 9 11 14 15 16 17
87 75 46 51 57 67 69 70 80 82 69 68 69 85 90 89 87 97 86 73 53 38 32 29 27 25 23 21 21 19 18 17 16 15 14 13 12 13 11 12 15 18 19 20 21
85 60 48 49 61 77 75 80 88 87 76 70 67 76 89 89 91 86 84 77 62 42 33 30 30 28 25 24 21 20 19 18 17 16 17 15 10 14 13 17 19 22 23 24 25
79 62 51 49 65 78 81 83 85 82 78 73 69 70 82 88 88 88 92 82 74 50 37 31 27 27 27 27 29 25 27 21 20 19 19 19 15 17 18 19 20 23 27 29 29
48 59 53 46 50 52 66 68 72 82 84 77 72 72 81 87 97 98 93 85 77 61 44 34 27 26 26 27 29 25 28 22 21 22 22 22 22 20 19 21 23 26 31 33 35
34 37 43 43 51 48 60 61 64 83 87 87 82 80 85 86 94 93 93 81 71 64 48 37 33 33 27 25 26 23 25 25 24 25 26 27 27 25 24 26 27 30 35 39 41
47 40 45 52 49 50 69 67 77 89 96 98 86 91 89 87 85 89 80 85 75 63 56 48 41 32 30 28 28 29 31 33 32 32 33 34 32 29 30 32 34 38 41 40 38
49 44 48 53 59 63 74 77 87 86 96 99 94 95 94 94 95 85 81 79 87 71 60 53 43 36 33 33 32 34 35 38 38 37 37 38 35 38 41 41 40 38 38 37 38
51 50 53 64 69 74 81 86 81 76 92 98 98 98 98 97 93 87 84 75 76 73 65 57 50 43 39 40 38 41 39 40 44 44 44 44 45 41 41 40 38 39 40 42 45
57 49 58 66 75 82 83 78 76 80 91 97 98 96 97 97 95 85 77 77 77 73 62 61 52 49 49 46 45 47 45 46 48 52 54 52 58 40 37 38 38 43 46 49 52
58 56 59 65 71 72 74 73 75 72 92 98 97 97 93 92 87 89 83 79 78 74 66 62 58 56 53 51 49 50 53 56 57 57 60 51 51 42 39 38 42 49 52 55 55
60 60 60 65 69 70 72 69 69 79 93 97 97 92 90 90 83 80 78 78 75 73 77 68 65 61 59 61 57 56 60 64 58 63 52 51 54 43 38 44 48 52 54 54 54
57 61 67 67 68 67 68 68 73 86 88 89 93 92 91 87 82 76 72 75 71 69 72 70 65 63 61 61 61 60 56 56 54 64 62 53 57 45 45 50 53 54 54 54 55
50 54 59 66 71 70 68 72 81 84 85 88 88 85 84 83 83 82 76 72 70 67 69 70 72 64 62 58 52 51 53 50 58 62 67 58 48 47 55 51 52 52 51 50 47
41 43 44 46 51 61 62 70 77 76 77 80 80 76 80 78 76 71 69 63 60 57 57 58 65 57 53 49 48 51 54 62 65 67 69 60 59 57 55 41 37 38 37 37 36
42 44 45 42 38 36 48 52 52 54 57 57 54 55 57 58 58 57 52 48 48 49 50 47 49 55 55 55 54 59 61 57 58 64 68 64 48 44 42 31 28 27 27 28 28
39 44 47 47 48 52 53 51 50 50 50 50 50 50 51 49 51 53 51 51 52 52 57 56 58 64 57 53 54 55 56 53 58 55 56 55 41 26 32 29 26 24 23 24 25
32 36 39 42 51 55 54 57 59 61 61 60 63 64 63 62 61 61 61 60 59 58 57 51 54 57 52 47 44 47 45 43 43 45 47 53 35 28 31 28 26 26 24 24 25
25 30 30 33 37 39 42 44 45 46 48 49 50 51 52 49 48 49 49 48 47 47 45 42 46 43 43 37 39 41 38 40 42 50 43 39 30 23 27 27 25 25 24 24 25
19 23 24 27 26 27 30 31 32 33 33 32 33 35 35 35 34 35 37 36 36 36 35 35 39 36 33 32 33 33 32 34 40 35 39 24 29 17 18 20 22 24 25 27 27
19 20 21 22 23 23 23 24 25 26 26 25 25 27 27 28 28 30 29 31 33 36 34 34 33 34 34 27 31 34 29 28 30 32 34 30 28 20 20 21 22 21 24 26 25
17 20 21 21 23 23 23 23 24 25 24 23 24 24 25 24 24 23 24 26 29 32 34 36 38 39 37 32 33 27 24 25 28 27 26 34 20 20 19 20 20 20 22 24 24

GFSSW_prec_cthk_117.txt.gz
RH
67 79 86 84 86 75 86 98 96 90 75 57 79 87 97 92 79 69 55 52 43 31 29 29 30 30 31 32 28 26 29 30 31 32 31 30 28 28 26 24 23 22 23 23 22
78 80 86 94 94 90 90 96 97 97 83 68 70 93 91 97 90 75 58 52 43 34 30 32 36 38 35 32 28 28 32 30 31 31 30 29 28 27 26 25 24 22 21 18 16
77 79 82 88 86 92 92 97 97 98 92 76 65 72 93 99 97 87 64 54 43 36 33 35 37 37 36 34 31 31 33 33 34 32 32 31 28 25 22 22 20 18 16 14 14
80 76 71 75 83 92 94 90 94 96 91 86 69 74 96 98 96 90 78 59 44 39 37 35 34 33 35 35 33 35 35 35 35 34 30 27 24 21 18 16 14 13 11 11 11
77 68 63 65 76 79 87 88 93 96 89 83 78 67 93 97 97 96 84 63 47 41 37 35 32 31 31 32 31 34 33 33 32 28 24 22 18 15 12 11 11 10 11 11 11
68 45 42 45 49 64 80 79 91 90 88 81 82 74 79 93 95 97 91 65 55 43 38 33 30 26 26 27 26 28 28 27 25 22 19 15 14 12 10 9 9 11 12 13 14
62 43 42 46 55 61 69 79 89 86 79 75 79 87 81 90 94 97 82 69 57 46 38 32 28 26 23 24 24 23 23 21 19 17 16 14 12 12 9 10 12 15 16 16 17
55 49 46 60 69 69 67 86 85 84 75 72 77 91 85 89 94 97 87 72 58 50 40 34 30 26 23 22 23 21 20 18 18 16 17 14 9 12 12 13 15 17 19 21 22
52 45 45 55 77 77 77 83 79 78 71 67 76 88 92 95 97 96 86 77 62 51 40 36 33 29 25 25 28 24 25 20 20 18 18 16 12 14 13 15 17 18 21 24 26
37 41 40 49 57 73 78 83 80 76 73 71 73 74 90 94 95 95 91 79 68 51 42 36 34 34 32 28 32 25 31 23 22 21 20 20 19 17 16 16 18 19 24 28 30
35 41 44 48 50 58 64 74 78 74 72 76 75 77 82 95 97 94 89 75 69 55 43 38 36 38 33 30 25 25 26 24 24 23 23 22 22 19 18 19 20 22 27 32 35
37 48 49 54 76 69 66 72 80 81 85 77 75 86 87 86 87 92 93 79 65 63 48 39 38 31 29 27 25 24 24 27 27 26 27 27 26 22 22 24 25 27 31 36 40
53 61 68 74 79 82 83 88 92 96 88 83 91 86 87 94 94 93 95 79 70 64 52 41 36 32 29 28 30 31 30 31 30 31 32 33 25 28 30 32 33 34 37 39 39
58 63 70 75 80 81 83 86 93 90 90 98 98 97 91 94 91 88 90 83 70 68 57 48 39 36 35 34 31 33 33 34 35 36 34 37 36 29 35 39 38 39 40 40 40
54 65 72 71 74 77 75 82 85 81 90 97 98 94 92 92 89 79 81 78 75 68 55 55 46 44 42 39 37 38 38 39 40 44 45 43 51 39 40 38 38 39 40 41 42
62 64 68 71 74 75 75 76 74 74 93 98 97 98 96 92 87 80 79 75 72 67 60 57 52 48 46 44 43 42 44 46 51 52 54 49 56 45 39 35 34 38 40 44 48
67 72 71 74 74 73 73 71 76 84 95 97 98 97 94 93 83 78 82 80 76 67 70 61 57 55 53 52 50 50 54 57 50 62 53 55 57 40 31 33 35 39 44 47 48
54 66 69 70 73 73 68 68 74 84 90 92 94 89 89 83 83 78 78 82 78 72 74 69 64 60 58 59 58 59 56 57 40 65 61 53 54 35 32 37 38 43 45 46 45
45 52 62 68 69 72 72 74 80 85 88 90 89 87 86 82 80 78 78 77 71 66 67 73 72 65 64 62 57 60 60 54 56 55 61 51 39 31 35 41 42 43 43 39 37
44 40 43 47 55 64 67 74 79 78 82 82 80 80 84 78 74 71 72 70 70 66 64 64 72 66 62 60 55 51 49 52 54 60 62 51 48 47 45 40 35 33 30 28 28
44 45 45 38 36 37 48 52 57 64 69 75 76 75 76 73 67 66 64 61 59 61 61 59 57 55 53 53 51 52 54 53 56 57 61 57 40 37 38 35 30 24 21 21 22
36 42 45 46 49 53 55 50 49 47 46 48 52 53 57 57 58 59 54 55 51 50 52 52 55 59 53 50 51 51 54 52 56 52 56 56 44 23 31 28 24 19 19 19 20
30 32 34 35 44 50 52 55 58 60 61 61 59 55 52 52 54 54 55 55 56 58 57 54 57 60 54 52 53 54 49 48 46 47 48 51 29 21 25 26 23 21 20 21 21
25 28 26 27 29 31 34 37 39 40 43 47 51 53 53 53 52 55 54 53 52 51 49 46 47 42 37 31 38 42 38 40 43 49 43 39 29 20 21 25 24 22 21 24 24
21 25 27 28 26 26 26 27 28 28 28 29 29 30 31 33 33 35 36 36 36 36 35 33 34 36 33 32 33 32 32 37 41 36 41 26 28 17 18 19 19 18 20 23 22
19 21 22 24 26 26 25 26 25 25 24 23 23 25 24 25 24 27 27 28 28 33 32 32 32 33 35 28 32 35 32 33 35 38 39 37 32 23 20 20 20 19 20 21 21
17 19 19 23 24 25 26 26 26 27 26 26 26 25 26 24 24 24 25 26 27 32 35 36 38 38 37 30 33 29 28 27 29 28 28 36 20 18 18 18 18 18 19 20 20